Wetterdaten: Donnerstag, 07.12.2017
Datum Zeit Temp. A. Pool Temp. Feuchte A. Luftdruck Regen Wind Richtung Richtung Sonnenschein ET UV Solar Taupunkt Windchill Windben Empfang
07.12.2017 00:00 1,1 C 3,9 C 89 % 1030,5 hPa 0,0 l/m 9,0 km/h (2 Bft) SW 219 0 min 0,000 mm 0,0 UV-I 0 W/m -0,5 C -1,4 C 11,3 km/h (2 Bft) 95,45 %
07.12.2017 00:02 1,1 C 3,9 C 89 % 1030,4 hPa 0,0 l/m 7,7 km/h (2 Bft) W-SW 239 0 min 0,000 mm 0,0 UV-I 0 W/m -0,5 C -0,2 C 12,9 km/h (3 Bft) 97,62 %
07.12.2017 00:04 1,1 C 3,9 C 89 % 1030,4 hPa 0,0 l/m 9,1 km/h (2 Bft) SW 234 0 min 0,000 mm 0,0 UV-I 0 W/m -0,5 C -1,5 C 14,5 km/h (3 Bft) 95,12 %
07.12.2017 00:06 1,1 C 3,9 C 89 % 1030,4 hPa 0,0 l/m 7,0 km/h (2 Bft) SW 226 0 min 0,000 mm 0,0 UV-I 0 W/m -0,5 C 0,5 C 11,3 km/h (2 Bft) 96,23 %
07.12.2017 00:08 1,1 C 3,9 C 89 % 1030,3 hPa 0,0 l/m 8,1 km/h (2 Bft) W-SW 242 0 min 0,000 mm 0,0 UV-I 0 W/m -0,5 C -0,6 C 12,9 km/h (3 Bft) 97,87 %
07.12.2017 00:10 1,1 C 3,9 C 89 % 1030,3 hPa 0,0 l/m 7,1 km/h (2 Bft) SW 225 0 min 0,000 mm 0,0 UV-I 0 W/m -0,5 C 0,4 C 11,3 km/h (2 Bft) 96,00 %
07.12.2017 00:12 1,1 C 3,9 C 89 % 1030,3 hPa 0,0 l/m 9,8 km/h (2 Bft) SW 217 0 min 0,000 mm 0,0 UV-I 0 W/m -0,5 C -2,1 C 14,5 km/h (3 Bft) 97,73 %
07.12.2017 00:14 1,0 C 3,9 C 89 % 1030,3 hPa 0,0 l/m 11,0 km/h (2 Bft) W-SW 257 0 min 0,000 mm 0,0 UV-I 0 W/m -0,6 C -3,1 C 16,1 km/h (3 Bft) 97,44 %
07.12.2017 00:16 1,1 C 3,9 C 89 % 1030,3 hPa 0,0 l/m 6,9 km/h (2 Bft) SW 231 0 min 0,000 mm 0,0 UV-I 0 W/m -0,5 C 0,6 C 12,9 km/h (3 Bft) 96,15 %
07.12.2017 00:18 1,0 C 3,9 C 89 % 1030,2 hPa 0,0 l/m 7,5 km/h (2 Bft) W-SW 252 0 min 0,000 mm 0,0 UV-I 0 W/m -0,6 C -0,1 C 12,9 km/h (3 Bft) 97,78 %
07.12.2017 00:20 1,0 C 3,9 C 89 % 1030,2 hPa 0,0 l/m 7,2 km/h (2 Bft) S-SW 200 0 min 0,000 mm 0,0 UV-I 0 W/m -0,6 C 0,2 C 12,9 km/h (3 Bft) 95,74 %
07.12.2017 00:22 1,0 C 3,9 C 89 % 1030,1 hPa 0,0 l/m 8,4 km/h (2 Bft) SW 216 0 min 0,000 mm 0,0 UV-I 0 W/m -0,6 C -1,0 C 12,9 km/h (3 Bft) 97,87 %
07.12.2017 00:24 1,0 C 3,9 C 89 % 1030,1 hPa 0,0 l/m 7,2 km/h (2 Bft) S-SW 211 0 min 0,000 mm 0,0 UV-I 0 W/m -0,6 C 0,2 C 9,7 km/h (2 Bft) 98,11 %
07.12.2017 00:26 1,0 C 3,9 C 89 % 1030,1 hPa 0,0 l/m 7,8 km/h (2 Bft) S-SW 205 0 min 0,000 mm 0,0 UV-I 0 W/m -0,6 C -0,4 C 12,9 km/h (3 Bft) 94,29 %
07.12.2017 00:28 1,0 C 3,9 C 89 % 1030,0 hPa 0,0 l/m 8,3 km/h (2 Bft) SW 214 0 min 0,000 mm 0,0 UV-I 0 W/m -0,6 C -0,9 C 12,9 km/h (3 Bft) 98,11 %
07.12.2017 00:30 1,0 C 3,9 C 89 % 1030,0 hPa 0,0 l/m 9,8 km/h (2 Bft) SW 232 0 min 0,000 mm 0,0 UV-I 0 W/m -0,6 C -2,2 C 14,5 km/h (3 Bft) 98,00 %
07.12.2017 00:32 1,0 C 3,9 C 89 % 1030,0 hPa 0,0 l/m 9,1 km/h (2 Bft) SW 236 0 min 0,000 mm 0,0 UV-I 0 W/m -0,6 C -1,6 C 12,9 km/h (3 Bft) 97,56 %
07.12.2017 00:34 1,0 C 3,9 C 89 % 1030,0 hPa 0,0 l/m 7,7 km/h (2 Bft) W-SW 239 0 min 0,000 mm 0,0 UV-I 0 W/m -0,6 C -0,3 C 14,5 km/h (3 Bft) 96,23 %
07.12.2017 00:36 1,0 C 3,9 C 89 % 1030,0 hPa 0,0 l/m 9,3 km/h (2 Bft) W-SW 242 0 min 0,000 mm 0,0 UV-I 0 W/m -0,6 C -1,8 C 17,7 km/h (3 Bft) 97,56 %
07.12.2017 00:38 1,0 C 3,9 C 89 % 1030,0 hPa 0,0 l/m 9,0 km/h (2 Bft) S-SW 194 0 min 0,000 mm 0,0 UV-I 0 W/m -0,6 C -1,5 C 12,9 km/h (3 Bft) 94,64 %
07.12.2017 00:40 1,0 C 3,9 C 89 % 1029,9 hPa 0,0 l/m 8,0 km/h (2 Bft) SW 234 0 min 0,000 mm 0,0 UV-I 0 W/m -0,6 C -0,6 C 12,9 km/h (3 Bft) 97,56 %
07.12.2017 00:42 1,0 C 3,9 C 89 % 1030,0 hPa 0,0 l/m 6,8 km/h (2 Bft) SW 215 0 min 0,000 mm 0,0 UV-I 0 W/m -0,6 C 0,6 C 11,3 km/h (2 Bft) 98,00 %
07.12.2017 00:44 1,0 C 3,9 C 89 % 1030,0 hPa 0,0 l/m 5,8 km/h (2 Bft) SW 219 0 min 0,000 mm 0,0 UV-I 0 W/m -0,6 C 1,0 C 11,3 km/h (2 Bft) 98,00 %
07.12.2017 00:46 1,0 C 3,9 C 89 % 1029,9 hPa 0,0 l/m 6,9 km/h (2 Bft) SW 218 0 min 0,000 mm 0,0 UV-I 0 W/m -0,6 C 0,5 C 12,9 km/h (3 Bft) 97,56 %
07.12.2017 00:48 1,0 C 3,9 C 89 % 1029,9 hPa 0,0 l/m 7,8 km/h (2 Bft) SW 226 0 min 0,000 mm 0,0 UV-I 0 W/m -0,6 C -0,4 C 12,9 km/h (3 Bft) 100,00 %
07.12.2017 00:50 1,0 C 3,9 C 89 % 1029,9 hPa 0,0 l/m 7,9 km/h (2 Bft) SW 216 0 min 0,000 mm 0,0 UV-I 0 W/m -0,6 C -0,5 C 12,9 km/h (3 Bft) 100,00 %
07.12.2017 00:52 0,9 C 3,9 C 89 % 1029,9 hPa 0,0 l/m 7,5 km/h (2 Bft) SW 234 0 min 0,000 mm 0,0 UV-I 0 W/m -0,7 C -0,2 C 11,3 km/h (2 Bft) 96,00 %
07.12.2017 00:54 0,9 C 3,9 C 89 % 1029,9 hPa 0,0 l/m 5,1 km/h (1 Bft) SW 229 0 min 0,000 mm 0,0 UV-I 0 W/m -0,7 C 0,9 C 6,4 km/h (2 Bft) 100,00 %
07.12.2017 00:56 0,9 C 3,9 C 89 % 1029,9 hPa 0,0 l/m 4,9 km/h (1 Bft) SW 217 0 min 0,000 mm 0,0 UV-I 0 W/m -0,7 C 0,9 C 8,0 km/h (2 Bft) 100,00 %
07.12.2017 00:58 0,9 C 3,9 C 89 % 1029,9 hPa 0,0 l/m 6,5 km/h (2 Bft) W-SW 257 0 min 0,000 mm 0,0 UV-I 0 W/m -0,7 C 0,8 C 9,7 km/h (2 Bft) 100,00 %
07.12.2017 01:00 0,9 C 3,9 C 89 % 1029,9 hPa 0,0 l/m 5,9 km/h (2 Bft) S-SW 205 0 min 0,000 mm 0,0 UV-I 0 W/m -0,7 C 0,9 C 9,7 km/h (2 Bft) 96,55 %
07.12.2017 01:02 0,9 C 3,9 C 89 % 1029,8 hPa 0,0 l/m 7,7 km/h (2 Bft) W-SW 248 0 min 0,000 mm 0,0 UV-I 0 W/m -0,7 C -0,4 C 11,3 km/h (2 Bft) 98,53 %
07.12.2017 01:04 0,9 C 3,9 C 89 % 1029,8 hPa 0,0 l/m 4,7 km/h (1 Bft) W-SW 237 0 min 0,000 mm 0,0 UV-I 0 W/m -0,7 C 0,9 C 8,0 km/h (2 Bft) 100,00 %
07.12.2017 01:06 0,9 C 3,9 C 89 % 1029,8 hPa 0,0 l/m 10,4 km/h (2 Bft) SW 230 0 min 0,000 mm 0,0 UV-I 0 W/m -0,7 C -2,8 C 16,1 km/h (3 Bft) 100,00 %
07.12.2017 01:08 0,9 C 3,9 C 89 % 1029,7 hPa 0,0 l/m 6,8 km/h (2 Bft) SW 225 0 min 0,000 mm 0,0 UV-I 0 W/m -0,7 C 0,5 C 11,3 km/h (2 Bft) 100,00 %
07.12.2017 01:10 0,9 C 3,9 C 89 % 1029,8 hPa 0,0 l/m 6,6 km/h (2 Bft) SW 235 0 min 0,000 mm 0,0 UV-I 0 W/m -0,7 C 0,7 C 11,3 km/h (2 Bft) 100,00 %
07.12.2017 01:12 0,9 C 3,9 C 89 % 1029,8 hPa 0,0 l/m 7,4 km/h (2 Bft) S-SW 203 0 min 0,000 mm 0,0 UV-I 0 W/m -0,7 C -0,1 C 9,7 km/h (2 Bft) 97,56 %
07.12.2017 01:14 0,9 C 3,9 C 89 % 1029,7 hPa 0,0 l/m 6,6 km/h (2 Bft) W-SW 254 0 min 0,000 mm 0,0 UV-I 0 W/m -0,7 C 0,7 C 11,3 km/h (2 Bft) 100,00 %
07.12.2017 01:16 0,9 C 3,9 C 89 % 1029,7 hPa 0,0 l/m 7,8 km/h (2 Bft) SW 225 0 min 0,000 mm 0,0 UV-I 0 W/m -0,7 C -0,5 C 12,9 km/h (3 Bft) 100,00 %
07.12.2017 01:18 0,9 C 3,9 C 88 % 1029,7 hPa 0,0 l/m 7,4 km/h (2 Bft) W-SW 247 0 min 0,000 mm 0,0 UV-I 0 W/m -0,9 C -0,1 C 11,3 km/h (2 Bft) 100,00 %
07.12.2017 01:20 0,9 C 3,9 C 88 % 1029,7 hPa 0,0 l/m 5,5 km/h (1 Bft) SW 220 0 min 0,000 mm 0,0 UV-I 0 W/m -0,9 C 0,9 C 9,7 km/h (2 Bft) 100,00 %
07.12.2017 01:22 0,9 C 3,9 C 88 % 1029,7 hPa 0,0 l/m 5,6 km/h (1 Bft) W-SW 239 0 min 0,000 mm 0,0 UV-I 0 W/m -0,9 C 0,9 C 8,0 km/h (2 Bft) 100,00 %
07.12.2017 01:24 0,9 C 3,9 C 88 % 1029,7 hPa 0,0 l/m 7,7 km/h (2 Bft) W 259 0 min 0,000 mm 0,0 UV-I 0 W/m -0,9 C -0,4 C 12,9 km/h (3 Bft) 100,00 %
07.12.2017 01:26 0,9 C 3,9 C 88 % 1029,7 hPa 0,0 l/m 5,7 km/h (1 Bft) S 188 0 min 0,000 mm 0,0 UV-I 0 W/m -0,9 C 0,9 C 9,7 km/h (2 Bft) 100,00 %
07.12.2017 01:28 0,9 C 3,9 C 88 % 1029,7 hPa 0,0 l/m 9,3 km/h (2 Bft) SW 236 0 min 0,000 mm 0,0 UV-I 0 W/m -0,9 C -1,9 C 12,9 km/h (3 Bft) 100,00 %
07.12.2017 01:30 0,9 C 3,9 C 88 % 1029,6 hPa 0,0 l/m 8,4 km/h (2 Bft) W-SW 252 0 min 0,000 mm 0,0 UV-I 0 W/m -0,9 C -1,1 C 12,9 km/h (3 Bft) 100,00 %
07.12.2017 01:32 0,9 C 3,9 C 88 % 1029,6 hPa 0,0 l/m 6,7 km/h (2 Bft) W-SW 238 0 min 0,000 mm 0,0 UV-I 0 W/m -0,9 C 0,6 C 9,7 km/h (2 Bft) 100,00 %
07.12.2017 01:34 0,9 C 3,9 C 88 % 1029,6 hPa 0,0 l/m 8,3 km/h (2 Bft) SW 223 0 min 0,000 mm 0,0 UV-I 0 W/m -0,9 C -1,0 C 12,9 km/h (3 Bft) 98,00 %
07.12.2017 01:36 0,9 C 3,9 C 89 % 1029,6 hPa 0,0 l/m 7,5 km/h (2 Bft) W-SW 246 0 min 0,000 mm 0,0 UV-I 0 W/m -0,7 C -0,2 C 12,9 km/h (3 Bft) 97,87 %
07.12.2017 01:38 0,8 C 3,9 C 89 % 1029,5 hPa 0,0 l/m 7,2 km/h (2 Bft) W-SW 241 0 min 0,000 mm 0,0 UV-I 0 W/m -0,8 C -0,0 C 11,3 km/h (2 Bft) 100,00 %
07.12.2017 01:40 0,8 C 3,9 C 89 % 1029,6 hPa 0,0 l/m 10,4 km/h (2 Bft) W-SW 246 0 min 0,000 mm 0,0 UV-I 0 W/m -0,8 C -2,9 C 16,1 km/h (3 Bft) 97,92 %
07.12.2017 01:42 0,8 C 3,9 C 88 % 1029,6 hPa 0,0 l/m 6,0 km/h (2 Bft) SW 229 0 min 0,000 mm 0,0 UV-I 0 W/m -1,0 C 0,8 C 9,7 km/h (2 Bft) 100,00 %
07.12.2017 01:44 0,8 C 3,9 C 88 % 1029,6 hPa 0,0 l/m 8,6 km/h (2 Bft) SW 229 0 min 0,000 mm 0,0 UV-I 0 W/m -1,0 C -1,4 C 11,3 km/h (2 Bft) 100,00 %
07.12.2017 01:46 0,8 C 3,9 C 89 % 1029,6 hPa 0,0 l/m 6,5 km/h (2 Bft) W-SW 240 0 min 0,000 mm 0,0 UV-I 0 W/m -0,8 C 0,7 C 9,7 km/h (2 Bft) 100,00 %
07.12.2017 01:48 0,8 C 3,9 C 89 % 1029,6 hPa 0,0 l/m 7,9 km/h (2 Bft) SW 235 0 min 0,000 mm 0,0 UV-I 0 W/m -0,8 C -0,7 C 14,5 km/h (3 Bft) 100,00 %
07.12.2017 01:50 0,8 C 3,9 C 89 % 1029,6 hPa 0,0 l/m 10,7 km/h (2 Bft) W-SW 243 0 min 0,000 mm 0,0 UV-I 0 W/m -0,8 C -3,1 C 16,1 km/h (3 Bft) 100,00 %
07.12.2017 01:52 0,8 C 3,9 C 89 % 1029,6 hPa 0,0 l/m 9,2 km/h (2 Bft) W-SW 254 0 min 0,000 mm 0,0 UV-I 0 W/m -0,8 C -1,9 C 14,5 km/h (3 Bft) 100,00 %
07.12.2017 01:54 0,8 C 3,9 C 88 % 1029,6 hPa 0,0 l/m 7,9 km/h (2 Bft) W-SW 251 0 min 0,000 mm 0,0 UV-I 0 W/m -1,0 C -0,7 C 12,9 km/h (3 Bft) 100,00 %
07.12.2017 01:56 0,8 C 3,9 C 88 % 1029,6 hPa 0,0 l/m 8,6 km/h (2 Bft) W-SW 246 0 min 0,000 mm 0,0 UV-I 0 W/m -1,0 C -1,4 C 12,9 km/h (3 Bft) 100,00 %
07.12.2017 01:58 0,8 C 3,9 C 88 % 1029,5 hPa 0,0 l/m 10,3 km/h (2 Bft) SW 236 0 min 0,000 mm 0,0 UV-I 0 W/m -1,0 C -2,8 C 16,1 km/h (3 Bft) 100,00 %
07.12.2017 02:00 0,8 C 3,9 C 88 % 1029,5 hPa 0,0 l/m 7,9 km/h (2 Bft) SW 235 0 min 0,000 mm 0,0 UV-I 0 W/m -1,0 C -0,7 C 16,1 km/h (3 Bft) 100,00 %
07.12.2017 02:02 0,8 C 3,9 C 88 % 1029,5 hPa 0,0 l/m 9,0 km/h (2 Bft) W-SW 248 0 min 0,000 mm 0,0 UV-I 0 W/m -1,0 C -1,7 C 12,9 km/h (3 Bft) 100,00 %
07.12.2017 02:04 0,8 C 3,9 C 88 % 1029,5 hPa 0,0 l/m 9,4 km/h (2 Bft) W-SW 246 0 min 0,000 mm 0,0 UV-I 0 W/m -1,0 C -2,1 C 11,3 km/h (2 Bft) 98,00 %
07.12.2017 02:06 0,8 C 3,9 C 88 % 1029,5 hPa 0,0 l/m 8,2 km/h (2 Bft) W-SW 239 0 min 0,000 mm 0,0 UV-I 0 W/m -1,0 C -1,0 C 14,5 km/h (3 Bft) 100,00 %
07.12.2017 02:08 0,8 C 3,9 C 88 % 1029,5 hPa 0,0 l/m 6,0 km/h (2 Bft) SW 233 0 min 0,000 mm 0,0 UV-I 0 W/m -1,0 C 0,8 C 11,3 km/h (2 Bft) 100,00 %
07.12.2017 02:10 0,8 C 3,9 C 88 % 1029,4 hPa 0,0 l/m 5,6 km/h (1 Bft) W-SW 243 0 min 0,000 mm 0,0 UV-I 0 W/m -1,0 C 0,8 C 8,0 km/h (2 Bft) 98,11 %
07.12.2017 02:12 0,8 C 3,9 C 88 % 1029,4 hPa 0,0 l/m 6,5 km/h (2 Bft) SW 234 0 min 0,000 mm 0,0 UV-I 0 W/m -1,0 C 0,7 C 8,0 km/h (2 Bft) 100,00 %
07.12.2017 02:14 0,8 C 3,9 C 88 % 1029,4 hPa 0,0 l/m 6,8 km/h (2 Bft) W 266 0 min 0,000 mm 0,0 UV-I 0 W/m -1,0 C 0,4 C 12,9 km/h (3 Bft) 100,00 %
07.12.2017 02:16 0,8 C 3,9 C 88 % 1029,4 hPa 0,0 l/m 10,3 km/h (2 Bft) W 275 0 min 0,000 mm 0,0 UV-I 0 W/m -1,0 C -2,8 C 16,1 km/h (3 Bft) 95,24 %
07.12.2017 02:18 0,8 C 3,9 C 88 % 1029,5 hPa 0,0 l/m 9,2 km/h (2 Bft) W 260 0 min 0,000 mm 0,0 UV-I 0 W/m -1,0 C -1,9 C 16,1 km/h (3 Bft) 95,74 %
07.12.2017 02:20 0,8 C 3,9 C 88 % 1029,4 hPa 0,0 l/m 8,2 km/h (2 Bft) SW 229 0 min 0,000 mm 0,0 UV-I 0 W/m -1,0 C -1,0 C 14,5 km/h (3 Bft) 96,00 %
07.12.2017 02:22 0,8 C 3,9 C 88 % 1029,4 hPa 0,0 l/m 9,3 km/h (2 Bft) W-SW 247 0 min 0,000 mm 0,0 UV-I 0 W/m -1,0 C -2,0 C 16,1 km/h (3 Bft) 100,00 %
07.12.2017 02:24 0,8 C 3,9 C 88 % 1029,4 hPa 0,0 l/m 9,5 km/h (2 Bft) SW 221 0 min 0,000 mm 0,0 UV-I 0 W/m -1,0 C -2,2 C 12,9 km/h (3 Bft) 94,64 %
07.12.2017 02:26 0,8 C 3,9 C 88 % 1029,4 hPa 0,0 l/m 9,0 km/h (2 Bft) SW 232 0 min 0,000 mm 0,0 UV-I 0 W/m -1,0 C -1,7 C 14,5 km/h (3 Bft) 97,56 %
07.12.2017 02:28 0,7 C 3,9 C 88 % 1029,4 hPa 0,0 l/m 10,7 km/h (2 Bft) SW 235 0 min 0,000 mm 0,0 UV-I 0 W/m -1,1 C -3,2 C 14,5 km/h (3 Bft) 98,21 %
07.12.2017 02:30 0,7 C 3,9 C 88 % 1029,4 hPa 0,0 l/m 8,7 km/h (2 Bft) W 268 0 min 0,000 mm 0,0 UV-I 0 W/m -1,1 C -1,6 C 16,1 km/h (3 Bft) 97,37 %
07.12.2017 02:32 0,7 C 3,9 C 88 % 1029,3 hPa 0,0 l/m 10,1 km/h (2 Bft) W-SW 250 0 min 0,000 mm 0,0 UV-I 0 W/m -1,1 C -2,8 C 14,5 km/h (3 Bft) 94,34 %
07.12.2017 02:34 0,7 C 3,9 C 88 % 1029,3 hPa 0,0 l/m 5,8 km/h (2 Bft) W 261 0 min 0,000 mm 0,0 UV-I 0 W/m -1,1 C 0,7 C 8,0 km/h (2 Bft) 97,87 %
07.12.2017 02:36 0,7 C 3,9 C 88 % 1029,2 hPa 0,0 l/m 6,5 km/h (2 Bft) SW 229 0 min 0,000 mm 0,0 UV-I 0 W/m -1,1 C 0,6 C 14,5 km/h (3 Bft) 98,00 %
07.12.2017 02:38 0,7 C 3,9 C 88 % 1029,2 hPa 0,0 l/m 9,9 km/h (2 Bft) W-SW 253 0 min 0,000 mm 0,0 UV-I 0 W/m -1,1 C -2,6 C 14,5 km/h (3 Bft) 94,00 %
07.12.2017 02:40 0,7 C 3,9 C 88 % 1029,3 hPa 0,0 l/m 9,5 km/h (2 Bft) SW 219 0 min 0,000 mm 0,0 UV-I 0 W/m -1,1 C -2,3 C 14,5 km/h (3 Bft) 97,37 %
07.12.2017 02:42 0,7 C 3,9 C 88 % 1029,2 hPa 0,0 l/m 11,7 km/h (2 Bft) SW 216 0 min 0,000 mm 0,0 UV-I 0 W/m -1,1 C -4,0 C 17,7 km/h (3 Bft) 98,00 %
07.12.2017 02:44 0,7 C 3,9 C 88 % 1029,2 hPa 0,0 l/m 10,6 km/h (2 Bft) W-SW 245 0 min 0,000 mm 0,0 UV-I 0 W/m -1,1 C -3,2 C 19,3 km/h (3 Bft) 98,00 %
07.12.2017 02:46 0,7 C 3,9 C 88 % 1029,2 hPa 0,0 l/m 10,3 km/h (2 Bft) SW 225 0 min 0,000 mm 0,0 UV-I 0 W/m -1,1 C -2,9 C 17,7 km/h (3 Bft) 94,00 %
07.12.2017 02:48 0,7 C 3,9 C 88 % 1029,2 hPa 0,0 l/m 9,0 km/h (2 Bft) W-SW 238 0 min 0,000 mm 0,0 UV-I 0 W/m -1,1 C -1,8 C 12,9 km/h (3 Bft) 97,14 %
07.12.2017 02:50 0,6 C 3,9 C 88 % 1029,1 hPa 0,0 l/m 11,8 km/h (2 Bft) SW 223 0 min 0,000 mm 0,0 UV-I 0 W/m -1,2 C -4,2 C 19,3 km/h (3 Bft) 96,61 %
07.12.2017 02:52 0,6 C 3,9 C 88 % 1029,1 hPa 0,0 l/m 8,7 km/h (2 Bft) W-SW 250 0 min 0,000 mm 0,0 UV-I 0 W/m -1,2 C -1,7 C 17,7 km/h (3 Bft) 100,00 %
07.12.2017 02:54 0,6 C 3,9 C 88 % 1029,1 hPa 0,0 l/m 8,2 km/h (2 Bft) W-SW 237 0 min 0,000 mm 0,0 UV-I 0 W/m -1,2 C -1,2 C 14,5 km/h (3 Bft) 100,00 %
07.12.2017 02:56 0,6 C 3,9 C 88 % 1029,1 hPa 0,0 l/m 8,8 km/h (2 Bft) SW 234 0 min 0,000 mm 0,0 UV-I 0 W/m -1,2 C -1,8 C 14,5 km/h (3 Bft) 100,00 %
07.12.2017 02:58 0,6 C 3,9 C 88 % 1029,1 hPa 0,0 l/m 10,6 km/h (2 Bft) W-SW 246 0 min 0,000 mm 0,0 UV-I 0 W/m -1,2 C -3,3 C 17,7 km/h (3 Bft) 97,78 %
07.12.2017 03:00 0,6 C 3,9 C 88 % 1029,0 hPa 0,0 l/m 11,2 km/h (2 Bft) W-NW 284 0 min 0,000 mm 0,0 UV-I 0 W/m -1,2 C -3,7 C 16,1 km/h (3 Bft) 97,73 %
07.12.2017 03:02 0,6 C 3,9 C 88 % 1029,0 hPa 0,0 l/m 8,6 km/h (2 Bft) SW 229 0 min 0,000 mm 0,0 UV-I 0 W/m -1,2 C -1,6 C 14,5 km/h (3 Bft) 94,34 %
07.12.2017 03:04 0,6 C 3,9 C 88 % 1029,0 hPa 0,0 l/m 6,0 km/h (2 Bft) W-SW 258 0 min 0,000 mm 0,0 UV-I 0 W/m -1,2 C 0,6 C 9,7 km/h (2 Bft) 97,37 %
07.12.2017 03:06 0,6 C 3,9 C 88 % 1029,0 hPa 0,0 l/m 7,4 km/h (2 Bft) W-SW 248 0 min 0,000 mm 0,0 UV-I 0 W/m -1,2 C -0,4 C 11,3 km/h (2 Bft) 97,14 %
07.12.2017 03:08 0,6 C 3,9 C 89 % 1029,0 hPa 0,0 l/m 3,9 km/h (1 Bft) W 261 0 min 0,000 mm 0,0 UV-I 0 W/m -1,0 C 0,6 C 6,4 km/h (2 Bft) 97,06 %
07.12.2017 03:10 0,6 C 3,9 C 89 % 1029,0 hPa 0,0 l/m 4,1 km/h (1 Bft) W 261 0 min 0,000 mm 0,0 UV-I 0 W/m -1,0 C 0,6 C 6,4 km/h (2 Bft) 95,12 %
07.12.2017 03:12 0,6 C 3,9 C 89 % 1029,0 hPa 0,0 l/m 7,6 km/h (2 Bft) W-SW 255 0 min 0,000 mm 0,0 UV-I 0 W/m -1,0 C -0,6 C 12,9 km/h (3 Bft) 98,00 %
07.12.2017 03:14 0,6 C 3,9 C 89 % 1029,0 hPa 0,0 l/m 7,6 km/h (2 Bft) W-SW 253 0 min 0,000 mm 0,0 UV-I 0 W/m -1,0 C -0,6 C 12,9 km/h (3 Bft) 97,37 %
07.12.2017 03:16 0,6 C 3,9 C 89 % 1029,0 hPa 0,0 l/m 5,7 km/h (1 Bft) SW 227 0 min 0,000 mm 0,0 UV-I 0 W/m -1,0 C 0,6 C 11,3 km/h (2 Bft) 98,11 %
07.12.2017 03:18 0,6 C 3,9 C 89 % 1029,0 hPa 0,0 l/m 5,2 km/h (1 Bft) SW 231 0 min 0,000 mm 0,0 UV-I 0 W/m -1,0 C 0,6 C 11,3 km/h (2 Bft) 95,74 %
07.12.2017 03:20 0,6 C 3,9 C 89 % 1028,9 hPa 0,0 l/m 10,3 km/h (2 Bft) W-SW 237 0 min 0,000 mm 0,0 UV-I 0 W/m -1,0 C -3,0 C 17,7 km/h (3 Bft) 97,37 %
07.12.2017 03:22 0,5 C 3,9 C 89 % 1029,0 hPa 0,0 l/m 7,0 km/h (2 Bft) S-SW 210 0 min 0,000 mm 0,0 UV-I 0 W/m -1,1 C -0,1 C 11,3 km/h (2 Bft) 98,11 %
07.12.2017 03:24 0,5 C 3,9 C 89 % 1028,9 hPa 0,0 l/m 5,7 km/h (1 Bft) W 262 0 min 0,000 mm 0,0 UV-I 0 W/m -1,1 C 0,5 C 9,7 km/h (2 Bft) 97,56 %
07.12.2017 03:26 0,5 C 3,9 C 89 % 1028,9 hPa 0,0 l/m 4,7 km/h (1 Bft) W-SW 242 0 min 0,000 mm 0,0 UV-I 0 W/m -1,1 C 0,5 C 6,4 km/h (2 Bft) 97,62 %
07.12.2017 03:28 0,5 C 3,9 C 89 % 1028,9 hPa 0,0 l/m 4,0 km/h (1 Bft) W-SW 242 0 min 0,000 mm 0,0 UV-I 0 W/m -1,1 C 0,5 C 6,4 km/h (2 Bft) 98,08 %
07.12.2017 03:30 0,5 C 3,9 C 89 % 1028,9 hPa 0,0 l/m 4,4 km/h (1 Bft) SW 220 0 min 0,000 mm 0,0 UV-I 0 W/m -1,1 C 0,5 C 6,4 km/h (2 Bft) 96,23 %
07.12.2017 03:32 0,5 C 3,9 C 89 % 1028,9 hPa 0,0 l/m 4,2 km/h (1 Bft) SW 217 0 min 0,000 mm 0,0 UV-I 0 W/m -1,1 C 0,5 C 6,4 km/h (2 Bft) 96,00 %
07.12.2017 03:34 0,5 C 3,9 C 89 % 1028,9 hPa 0,0 l/m 4,1 km/h (1 Bft) W-SW 252 0 min 0,000 mm 0,0 UV-I 0 W/m -1,1 C 0,5 C 6,4 km/h (2 Bft) 97,87 %
07.12.2017 03:36 0,5 C 3,9 C 89 % 1028,8 hPa 0,0 l/m 6,0 km/h (2 Bft) W-SW 238 0 min 0,000 mm 0,0 UV-I 0 W/m -1,1 C 0,5 C 9,7 km/h (2 Bft) 97,62 %
07.12.2017 03:38 0,4 C 3,9 C 89 % 1028,8 hPa 0,0 l/m 5,0 km/h (1 Bft) S-SW 213 0 min 0,000 mm 0,0 UV-I 0 W/m -1,2 C 0,4 C 8,0 km/h (2 Bft) 98,00 %
07.12.2017 03:40 0,4 C 3,9 C 89 % 1028,8 hPa 0,0 l/m 5,2 km/h (1 Bft) SW 229 0 min 0,000 mm 0,0 UV-I 0 W/m -1,2 C 0,4 C 8,0 km/h (2 Bft) 98,00 %
07.12.2017 03:42 0,4 C 3,9 C 90 % 1028,7 hPa 0,0 l/m 5,9 km/h (2 Bft) S-SW 212 0 min 0,000 mm 0,0 UV-I 0 W/m -1,0 C 0,4 C 9,7 km/h (2 Bft) 97,56 %
07.12.2017 03:44 0,4 C 3,9 C 90 % 1028,6 hPa 0,0 l/m 5,9 km/h (2 Bft) S-SW 205 0 min 0,000 mm 0,0 UV-I 0 W/m -1,0 C 0,4 C 9,7 km/h (2 Bft) 97,56 %
07.12.2017 03:46 0,4 C 3,9 C 90 % 1028,7 hPa 0,0 l/m 6,8 km/h (2 Bft) SW 215 0 min 0,000 mm 0,0 UV-I 0 W/m -1,0 C 0,0 C 9,7 km/h (2 Bft) 96,00 %
07.12.2017 03:48 0,4 C 3,9 C 90 % 1028,6 hPa 0,0 l/m 6,8 km/h (2 Bft) S-SW 204 0 min 0,000 mm 0,0 UV-I 0 W/m -1,0 C 0,0 C 11,3 km/h (2 Bft) 97,87 %
07.12.2017 03:50 0,4 C 3,9 C 90 % 1028,6 hPa 0,0 l/m 4,2 km/h (1 Bft) S-SW 204 0 min 0,000 mm 0,0 UV-I 0 W/m -1,0 C 0,4 C 6,4 km/h (2 Bft) 94,34 %
07.12.2017 03:52 0,3 C 3,9 C 90 % 1028,6 hPa 0,0 l/m 5,1 km/h (1 Bft) S-SW 198 0 min 0,000 mm 0,0 UV-I 0 W/m -1,1 C 0,3 C 8,0 km/h (2 Bft) 97,56 %
07.12.2017 03:54 0,4 C 3,9 C 90 % 1028,6 hPa 0,0 l/m 5,4 km/h (1 Bft) SW 222 0 min 0,000 mm 0,0 UV-I 0 W/m -1,0 C 0,4 C 8,0 km/h (2 Bft) 98,00 %
07.12.2017 03:56 0,4 C 3,9 C 90 % 1028,5 hPa 0,0 l/m 6,8 km/h (2 Bft) SW 234 0 min 0,000 mm 0,0 UV-I 0 W/m -1,0 C 0,0 C 9,7 km/h (2 Bft) 95,12 %
07.12.2017 03:58 0,4 C 3,9 C 90 % 1028,5 hPa 0,0 l/m 6,3 km/h (2 Bft) W-SW 252 0 min 0,000 mm 0,0 UV-I 0 W/m -1,0 C 0,4 C 9,7 km/h (2 Bft) 98,21 %
07.12.2017 04:00 0,4 C 3,9 C 90 % 1028,5 hPa 0,0 l/m 6,9 km/h (2 Bft) SW 217 0 min 0,000 mm 0,0 UV-I 0 W/m -1,0 C -0,1 C 14,5 km/h (3 Bft) 97,87 %
07.12.2017 04:02 0,4 C 3,9 C 90 % 1028,5 hPa 0,0 l/m 7,3 km/h (2 Bft) SW 236 0 min 0,000 mm 0,0 UV-I 0 W/m -1,0 C -0,5 C 11,3 km/h (2 Bft) 100,00 %
07.12.2017 04:04 0,4 C 3,9 C 90 % 1028,5 hPa 0,0 l/m 5,9 km/h (2 Bft) SW 234 0 min 0,000 mm 0,0 UV-I 0 W/m -1,0 C 0,4 C 9,7 km/h (2 Bft) 100,00 %
07.12.2017 04:06 0,4 C 3,9 C 90 % 1028,5 hPa 0,0 l/m 5,8 km/h (2 Bft) SW 235 0 min 0,000 mm 0,0 UV-I 0 W/m -1,0 C 0,4 C 8,0 km/h (2 Bft) 98,00 %
07.12.2017 04:08 0,3 C 3,9 C 90 % 1028,5 hPa 0,0 l/m 6,4 km/h (2 Bft) SW 233 0 min 0,000 mm 0,0 UV-I 0 W/m -1,1 C 0,3 C 8,0 km/h (2 Bft) 96,23 %
07.12.2017 04:10 0,4 C 3,9 C 90 % 1028,4 hPa 0,0 l/m 4,8 km/h (1 Bft) SW 215 0 min 0,000 mm 0,0 UV-I 0 W/m -1,0 C 0,4 C 6,4 km/h (2 Bft) 100,00 %
07.12.2017 04:12 0,3 C 3,9 C 90 % 1028,5 hPa 0,0 l/m 5,1 km/h (1 Bft) SW 225 0 min 0,000 mm 0,0 UV-I 0 W/m -1,1 C 0,3 C 9,7 km/h (2 Bft) 100,00 %
07.12.2017 04:14 0,3 C 3,9 C 90 % 1028,4 hPa 0,0 l/m 6,3 km/h (2 Bft) W-SW 240 0 min 0,000 mm 0,0 UV-I 0 W/m -1,1 C 0,3 C 9,7 km/h (2 Bft) 100,00 %
07.12.2017 04:16 0,3 C 3,9 C 90 % 1028,4 hPa 0,0 l/m 5,2 km/h (1 Bft) SW 216 0 min 0,000 mm 0,0 UV-I 0 W/m -1,1 C 0,3 C 9,7 km/h (2 Bft) 100,00 %
07.12.2017 04:18 0,3 C 3,9 C 90 % 1028,4 hPa 0,0 l/m 7,3 km/h (2 Bft) SW 223 0 min 0,000 mm 0,0 UV-I 0 W/m -1,1 C -0,6 C 11,3 km/h (2 Bft) 100,00 %
07.12.2017 04:20 0,3 C 3,9 C 90 % 1028,4 hPa 0,0 l/m 8,0 km/h (2 Bft) S-SW 203 0 min 0,000 mm 0,0 UV-I 0 W/m -1,1 C -1,3 C 12,9 km/h (3 Bft) 96,00 %
07.12.2017 04:22 0,3 C 3,9 C 90 % 1028,3 hPa 0,0 l/m 7,6 km/h (2 Bft) SW 216 0 min 0,000 mm 0,0 UV-I 0 W/m -1,1 C -0,9 C 11,3 km/h (2 Bft) 100,00 %
07.12.2017 04:24 0,3 C 3,9 C 90 % 1028,3 hPa 0,0 l/m 6,6 km/h (2 Bft) SW 227 0 min 0,000 mm 0,0 UV-I 0 W/m -1,1 C 0,1 C 11,3 km/h (2 Bft) 96,00 %
07.12.2017 04:26 0,3 C 3,9 C 90 % 1028,3 hPa 0,0 l/m 4,6 km/h (1 Bft) SW 227 0 min 0,000 mm 0,0 UV-I 0 W/m -1,1 C 0,3 C 9,7 km/h (2 Bft) 98,11 %
07.12.2017 04:28 0,3 C 3,9 C 90 % 1028,2 hPa 0,0 l/m 6,0 km/h (2 Bft) SW 236 0 min 0,000 mm 0,0 UV-I 0 W/m -1,1 C 0,3 C 9,7 km/h (2 Bft) 95,12 %
07.12.2017 04:30 0,3 C 3,9 C 91 % 1028,3 hPa 0,0 l/m 8,0 km/h (2 Bft) SW 214 0 min 0,000 mm 0,0 UV-I 0 W/m -1,0 C -1,3 C 12,9 km/h (3 Bft) 96,23 %
07.12.2017 04:32 0,2 C 3,9 C 90 % 1028,2 hPa 0,0 l/m 6,7 km/h (2 Bft) SW 221 0 min 0,000 mm 0,0 UV-I 0 W/m -1,2 C -0,1 C 11,3 km/h (2 Bft) 97,14 %
07.12.2017 04:34 0,3 C 3,9 C 90 % 1028,2 hPa 0,0 l/m 7,1 km/h (2 Bft) W-SW 238 0 min 0,000 mm 0,0 UV-I 0 W/m -1,1 C -0,4 C 9,7 km/h (2 Bft) 98,31 %
07.12.2017 04:36 0,2 C 3,9 C 90 % 1028,2 hPa 0,0 l/m 7,1 km/h (2 Bft) SW 227 0 min 0,000 mm 0,0 UV-I 0 W/m -1,2 C -0,5 C 11,3 km/h (2 Bft) 97,73 %
07.12.2017 04:38 0,2 C 3,9 C 90 % 1028,2 hPa 0,0 l/m 8,1 km/h (2 Bft) SW 221 0 min 0,000 mm 0,0 UV-I 0 W/m -1,2 C -1,5 C 11,3 km/h (2 Bft) 97,56 %
07.12.2017 04:40 0,2 C 3,9 C 90 % 1028,2 hPa 0,0 l/m 9,4 km/h (2 Bft) SW 227 0 min 0,000 mm 0,0 UV-I 0 W/m -1,2 C -2,7 C 12,9 km/h (3 Bft) 96,23 %
07.12.2017 04:42 0,2 C 3,9 C 90 % 1028,2 hPa 0,0 l/m 8,4 km/h (2 Bft) W-SW 240 0 min 0,000 mm 0,0 UV-I 0 W/m -1,2 C -1,8 C 12,9 km/h (3 Bft) 97,73 %
07.12.2017 04:44 0,2 C 3,9 C 90 % 1028,1 hPa 0,0 l/m 7,7 km/h (2 Bft) W-SW 246 0 min 0,000 mm 0,0 UV-I 0 W/m -1,2 C -1,1 C 11,3 km/h (2 Bft) 97,56 %
07.12.2017 04:46 0,2 C 3,9 C 90 % 1028,1 hPa 0,0 l/m 6,6 km/h (2 Bft) W 265 0 min 0,000 mm 0,0 UV-I 0 W/m -1,2 C 0,0 C 11,3 km/h (2 Bft) 96,43 %
07.12.2017 04:48 0,2 C 3,9 C 90 % 1028,1 hPa 0,0 l/m 5,3 km/h (1 Bft) S-SW 213 0 min 0,000 mm 0,0 UV-I 0 W/m -1,2 C 0,2 C 8,0 km/h (2 Bft) 97,37 %
07.12.2017 04:50 0,2 C 3,9 C 90 % 1028,1 hPa 0,0 l/m 6,2 km/h (2 Bft) SW 218 0 min 0,000 mm 0,0 UV-I 0 W/m -1,2 C 0,2 C 9,7 km/h (2 Bft) 97,87 %
07.12.2017 04:52 0,2 C 3,9 C 90 % 1028,1 hPa 0,0 l/m 5,4 km/h (1 Bft) W-SW 246 0 min 0,000 mm 0,0 UV-I 0 W/m -1,2 C 0,2 C 9,7 km/h (2 Bft) 97,87 %
07.12.2017 04:54 0,2 C 3,9 C 91 % 1028,1 hPa 0,0 l/m 8,7 km/h (2 Bft) SW 228 0 min 0,000 mm 0,0 UV-I 0 W/m -1,1 C -2,1 C 12,9 km/h (3 Bft) 100,00 %
07.12.2017 04:56 0,2 C 3,9 C 91 % 1028,1 hPa 0,0 l/m 7,2 km/h (2 Bft) SW 227 0 min 0,000 mm 0,0 UV-I 0 W/m -1,1 C -0,6 C 12,9 km/h (3 Bft) 96,55 %
07.12.2017 04:58 0,2 C 3,9 C 91 % 1028,1 hPa 0,0 l/m 8,5 km/h (2 Bft) W-SW 249 0 min 0,000 mm 0,0 UV-I 0 W/m -1,1 C -1,9 C 11,3 km/h (2 Bft) 100,00 %
07.12.2017 05:00 0,1 C 3,9 C 91 % 1028,1 hPa 0,0 l/m 8,0 km/h (2 Bft) SW 228 0 min 0,000 mm 0,0 UV-I 0 W/m -1,2 C -1,5 C 11,3 km/h (2 Bft) 100,00 %
07.12.2017 05:02 0,1 C 3,9 C 91 % 1028,1 hPa 0,0 l/m 4,2 km/h (1 Bft) SW 223 0 min 0,000 mm 0,0 UV-I 0 W/m -1,2 C 0,1 C 8,0 km/h (2 Bft) 97,87 %
07.12.2017 05:04 0,1 C 3,9 C 91 % 1028,0 hPa 0,0 l/m 6,8 km/h (2 Bft) W-SW 253 0 min 0,000 mm 0,0 UV-I 0 W/m -1,2 C -0,3 C 12,9 km/h (3 Bft) 94,00 %
07.12.2017 05:06 0,1 C 3,9 C 91 % 1028,1 hPa 0,0 l/m 6,0 km/h (2 Bft) W-NW 286 0 min 0,000 mm 0,0 UV-I 0 W/m -1,2 C 0,1 C 9,7 km/h (2 Bft) 100,00 %
07.12.2017 05:08 0,1 C 3,9 C 91 % 1028,0 hPa 0,0 l/m 3,5 km/h (1 Bft) W-SW 257 0 min 0,000 mm 0,0 UV-I 0 W/m -1,2 C 0,1 C 4,8 km/h (1 Bft) 100,00 %
07.12.2017 05:10 0,1 C 3,9 C 91 % 1028,0 hPa 0,0 l/m 6,3 km/h (2 Bft) W-NW 286 0 min 0,000 mm 0,0 UV-I 0 W/m -1,2 C 0,1 C 9,7 km/h (2 Bft) 100,00 %
07.12.2017 05:12 0,1 C 3,9 C 91 % 1028,0 hPa 0,0 l/m 7,0 km/h (2 Bft) W-SW 254 0 min 0,000 mm 0,0 UV-I 0 W/m -1,2 C -0,5 C 12,9 km/h (3 Bft) 100,00 %
07.12.2017 05:14 0,1 C 3,9 C 91 % 1028,0 hPa 0,0 l/m 7,1 km/h (2 Bft) W 263 0 min 0,000 mm 0,0 UV-I 0 W/m -1,2 C -0,6 C 11,3 km/h (2 Bft) 100,00 %
07.12.2017 05:16 0,1 C 3,9 C 91 % 1028,0 hPa 0,0 l/m 4,7 km/h (1 Bft) W-SW 242 0 min 0,000 mm 0,0 UV-I 0 W/m -1,2 C 0,1 C 6,4 km/h (2 Bft) 100,00 %
07.12.2017 05:18 0,1 C 3,9 C 91 % 1027,9 hPa 0,0 l/m 3,8 km/h (1 Bft) W-SW 242 0 min 0,000 mm 0,0 UV-I 0 W/m -1,2 C 0,1 C 4,8 km/h (1 Bft) 100,00 %
07.12.2017 05:20 0,1 C 3,9 C 91 % 1028,0 hPa 0,0 l/m 6,4 km/h (2 Bft) W-NW 282 0 min 0,000 mm 0,0 UV-I 0 W/m -1,2 C 0,1 C 11,3 km/h (2 Bft) 98,46 %
07.12.2017 05:22 0,1 C 3,9 C 91 % 1027,9 hPa 0,0 l/m 2,5 km/h (1 Bft) W 281 0 min 0,000 mm 0,0 UV-I 0 W/m -1,2 C 0,1 C 3,2 km/h (1 Bft) 100,00 %
07.12.2017 05:24 0,1 C 3,9 C 91 % 1027,9 hPa 0,0 l/m 7,6 km/h (2 Bft) W 260 0 min 0,000 mm 0,0 UV-I 0 W/m -1,2 C -1,1 C 11,3 km/h (2 Bft) 100,00 %
07.12.2017 05:26 0,1 C 3,9 C 91 % 1028,0 hPa 0,0 l/m 4,8 km/h (1 Bft) W 263 0 min 0,000 mm 0,0 UV-I 0 W/m -1,2 C 0,1 C 6,4 km/h (2 Bft) 100,00 %
07.12.2017 05:28 0,1 C 3,9 C 91 % 1028,0 hPa 0,0 l/m 3,1 km/h (1 Bft) W 263 0 min 0,000 mm 0,0 UV-I 0 W/m -1,2 C 0,1 C 6,4 km/h (2 Bft) 95,74 %
07.12.2017 05:30 0,1 C 3,9 C 91 % 1028,0 hPa 0,0 l/m 3,4 km/h (1 Bft) W 263 0 min 0,000 mm 0,0 UV-I 0 W/m -1,2 C 0,1 C 4,8 km/h (1 Bft) 97,37 %
07.12.2017 05:32 0,1 C 3,9 C 91 % 1028,0 hPa 0,0 l/m 4,9 km/h (1 Bft) W-SW 257 0 min 0,000 mm 0,0 UV-I 0 W/m -1,2 C 0,1 C 6,4 km/h (2 Bft) 100,00 %
07.12.2017 05:34 0,1 C 3,9 C 91 % 1028,0 hPa 0,0 l/m 4,8 km/h (1 Bft) W-SW 247 0 min 0,000 mm 0,0 UV-I 0 W/m -1,2 C 0,1 C 6,4 km/h (2 Bft) 100,00 %
07.12.2017 05:36 0,1 C 3,9 C 91 % 1027,9 hPa 0,0 l/m 3,7 km/h (1 Bft) W-SW 247 0 min 0,000 mm 0,0 UV-I 0 W/m -1,2 C 0,1 C 4,8 km/h (1 Bft) 100,00 %
07.12.2017 05:38 0,1 C 3,9 C 91 % 1027,9 hPa 0,0 l/m 3,1 km/h (1 Bft) W-SW 247 0 min 0,000 mm 0,0 UV-I 0 W/m -1,2 C 0,1 C 4,8 km/h (1 Bft) 100,00 %
07.12.2017 05:40 0,1 C 3,9 C 91 % 1027,9 hPa 0,0 l/m 3,3 km/h (1 Bft) W-SW 247 0 min 0,000 mm 0,0 UV-I 0 W/m -1,2 C 0,1 C 4,8 km/h (1 Bft) 98,00 %
07.12.2017 05:42 0,1 C 3,9 C 92 % 1027,9 hPa 0,0 l/m 3,7 km/h (1 Bft) W-SW 248 0 min 0,000 mm 0,0 UV-I 0 W/m -1,0 C 0,1 C 4,8 km/h (1 Bft) 98,00 %
07.12.2017 05:44 0,1 C 3,9 C 91 % 1027,9 hPa 0,0 l/m 3,5 km/h (1 Bft) W-SW 248 0 min 0,000 mm 0,0 UV-I 0 W/m -1,2 C 0,1 C 6,4 km/h (2 Bft) 100,00 %
07.12.2017 05:46 0,1 C 3,9 C 92 % 1027,9 hPa 0,0 l/m 3,5 km/h (1 Bft) W-SW 248 0 min 0,000 mm 0,0 UV-I 0 W/m -1,0 C 0,1 C 4,8 km/h (1 Bft) 100,00 %
07.12.2017 05:48 0,1 C 3,9 C 92 % 1027,9 hPa 0,0 l/m 3,2 km/h (1 Bft) W-SW 248 0 min 0,000 mm 0,0 UV-I 0 W/m -1,0 C 0,1 C 4,8 km/h (1 Bft) 100,00 %
07.12.2017 05:50 0,1 C 3,9 C 92 % 1027,8 hPa 0,0 l/m 2,7 km/h (1 Bft) W-SW 248 0 min 0,000 mm 0,0 UV-I 0 W/m -1,0 C 0,1 C 4,8 km/h (1 Bft) 100,00 %
07.12.2017 05:52 0,1 C 3,9 C 92 % 1027,9 hPa 0,0 l/m 3,5 km/h (1 Bft) W-SW 247 0 min 0,000 mm 0,0 UV-I 0 W/m -1,0 C 0,1 C 4,8 km/h (1 Bft) 100,00 %
07.12.2017 05:54 0,1 C 3,9 C 92 % 1027,9 hPa 0,0 l/m 4,3 km/h (1 Bft) W-SW 255 0 min 0,000 mm 0,0 UV-I 0 W/m -1,0 C 0,1 C 8,0 km/h (2 Bft) 98,00 %
07.12.2017 05:56 0,1 C 3,9 C 92 % 1027,8 hPa 0,0 l/m 3,2 km/h (1 Bft) W-SW 247 0 min 0,000 mm 0,0 UV-I 0 W/m -1,0 C 0,1 C 6,4 km/h (2 Bft) 98,21 %
07.12.2017 05:58 0,1 C 3,9 C 92 % 1027,8 hPa 0,0 l/m 2,2 km/h (1 Bft) W-SW 247 0 min 0,000 mm 0,0 UV-I 0 W/m -1,0 C 0,1 C 4,8 km/h (1 Bft) 100,00 %
07.12.2017 06:00 0,1 C 3,9 C 92 % 1027,8 hPa 0,0 l/m 3,1 km/h (1 Bft) W-SW 247 0 min 0,000 mm 0,0 UV-I 0 W/m -1,0 C 0,1 C 4,8 km/h (1 Bft) 98,00 %
07.12.2017 06:02 0,1 C 3,9 C 92 % 1027,8 hPa 0,0 l/m 2,2 km/h (1 Bft) W-SW 247 0 min 0,000 mm 0,0 UV-I 0 W/m -1,0 C 0,1 C 3,2 km/h (1 Bft) 100,00 %
07.12.2017 06:04 0,1 C 3,9 C 92 % 1027,8 hPa 0,0 l/m 3,2 km/h (1 Bft) W 280 0 min 0,000 mm 0,0 UV-I 0 W/m -1,0 C 0,1 C 4,8 km/h (1 Bft) 100,00 %
07.12.2017 06:06 0,1 C 3,9 C 92 % 1027,8 hPa 0,0 l/m 0,6 km/h (0 Bft) W 280 0 min 0,000 mm 0,0 UV-I 0 W/m -1,0 C 0,1 C 3,2 km/h (1 Bft) 100,00 %
07.12.2017 06:08 0,1 C 3,9 C 92 % 1027,7 hPa 0,0 l/m 2,1 km/h (1 Bft) W 280 0 min 0,000 mm 0,0 UV-I 0 W/m -1,0 C 0,1 C 3,2 km/h (1 Bft) 97,87 %
07.12.2017 06:10 0,1 C 3,9 C 92 % 1027,7 hPa 0,0 l/m 1,8 km/h (1 Bft) W 280 0 min 0,000 mm 0,0 UV-I 0 W/m -1,0 C 0,1 C 3,2 km/h (1 Bft) 100,00 %
07.12.2017 06:12 0,1 C 3,9 C 92 % 1027,6 hPa 0,0 l/m 3,4 km/h (1 Bft) W-SW 254 0 min 0,000 mm 0,0 UV-I 0 W/m -1,0 C 0,1 C 6,4 km/h (2 Bft) 98,11 %
07.12.2017 06:14 0,1 C 3,9 C 92 % 1027,6 hPa 0,0 l/m 4,9 km/h (1 Bft) SW 230 0 min 0,000 mm 0,0 UV-I 0 W/m -1,0 C 0,1 C 6,4 km/h (2 Bft) 100,00 %
07.12.2017 06:16 0,1 C 3,9 C 92 % 1027,7 hPa 0,0 l/m 2,9 km/h (1 Bft) SW 229 0 min 0,000 mm 0,0 UV-I 0 W/m -1,0 C 0,1 C 4,8 km/h (1 Bft) 100,00 %
07.12.2017 06:18 0,1 C 3,9 C 92 % 1027,6 hPa 0,0 l/m 0,5 km/h (0 Bft) SW 229 0 min 0,000 mm 0,0 UV-I 0 W/m -1,0 C 0,1 C 1,6 km/h (1 Bft) 100,00 %
07.12.2017 06:20 0,1 C 3,9 C 92 % 1027,6 hPa 0,0 l/m 2,0 km/h (1 Bft) SW 229 0 min 0,000 mm 0,0 UV-I 0 W/m -1,0 C 0,1 C 3,2 km/h (1 Bft) 97,22 %
07.12.2017 06:22 0,1 C 3,9 C 92 % 1027,6 hPa 0,0 l/m 2,6 km/h (1 Bft) SW 229 0 min 0,000 mm 0,0 UV-I 0 W/m -1,0 C 0,1 C 4,8 km/h (1 Bft) 100,00 %
07.12.2017 06:24 0,1 C 3,9 C 92 % 1027,6 hPa 0,0 l/m 2,1 km/h (1 Bft) SW 229 0 min 0,000 mm 0,0 UV-I 0 W/m -1,0 C 0,1 C 3,2 km/h (1 Bft) 94,00 %
07.12.2017 06:26 0,1 C 3,9 C 92 % 1027,6 hPa 0,0 l/m 1,8 km/h (1 Bft) SW 229 0 min 0,000 mm 0,0 UV-I 0 W/m -1,0 C 0,1 C 3,2 km/h (1 Bft) 96,23 %
07.12.2017 06:28 0,1 C 3,9 C 92 % 1027,6 hPa 0,0 l/m 2,7 km/h (1 Bft) SW 230 0 min 0,000 mm 0,0 UV-I 0 W/m -1,0 C 0,1 C 4,8 km/h (1 Bft) 97,87 %
07.12.2017 06:30 0,2 C 3,9 C 92 % 1027,6 hPa 0,0 l/m 2,9 km/h (1 Bft) SW 232 0 min 0,000 mm 0,0 UV-I 0 W/m -0,9 C 0,2 C 4,8 km/h (1 Bft) 97,37 %
07.12.2017 06:32 0,2 C 3,9 C 93 % 1027,6 hPa 0,0 l/m 3,7 km/h (1 Bft) SW 232 0 min 0,000 mm 0,0 UV-I 0 W/m -0,8 C 0,2 C 6,4 km/h (2 Bft) 95,74 %
07.12.2017 06:34 0,2 C 3,9 C 93 % 1027,6 hPa 0,0 l/m 1,4 km/h (1 Bft) SW 232 0 min 0,000 mm 0,0 UV-I 0 W/m -0,8 C 0,2 C 3,2 km/h (1 Bft) 95,74 %
07.12.2017 06:36 0,2 C 3,9 C 92 % 1027,6 hPa 0,0 l/m 1,4 km/h (1 Bft) SW 232 0 min 0,000 mm 0,0 UV-I 0 W/m -0,9 C 0,2 C 3,2 km/h (1 Bft) 98,00 %
07.12.2017 06:38 0,1 C 3,9 C 92 % 1027,6 hPa 0,0 l/m 1,9 km/h (1 Bft) SW 232 0 min 0,000 mm 0,0 UV-I 0 W/m -1,0 C 0,1 C 4,8 km/h (1 Bft) 98,00 %
07.12.2017 06:40 0,2 C 3,9 C 92 % 1027,5 hPa 0,0 l/m 2,3 km/h (1 Bft) SW 232 0 min 0,000 mm 0,0 UV-I 0 W/m -0,9 C 0,2 C 3,2 km/h (1 Bft) 95,12 %
07.12.2017 06:42 0,2 C 3,9 C 92 % 1027,6 hPa 0,0 l/m 3,4 km/h (1 Bft) SW 232 0 min 0,000 mm 0,0 UV-I 0 W/m -0,9 C 0,2 C 4,8 km/h (1 Bft) 89,36 %
07.12.2017 06:44 0,2 C 3,9 C 92 % 1027,6 hPa 0,0 l/m 3,6 km/h (1 Bft) W 266 0 min 0,000 mm 0,0 UV-I 0 W/m -0,9 C 0,2 C 9,7 km/h (2 Bft) 95,74 %
07.12.2017 06:46 0,2 C 3,9 C 92 % 1027,5 hPa 0,0 l/m 3,4 km/h (1 Bft) SW 218 0 min 0,000 mm 0,0 UV-I 0 W/m -0,9 C 0,2 C 6,4 km/h (2 Bft) 94,34 %
07.12.2017 06:48 0,2 C 3,9 C 92 % 1027,6 hPa 0,0 l/m 2,8 km/h (1 Bft) SW 218 0 min 0,000 mm 0,0 UV-I 0 W/m -0,9 C 0,2 C 4,8 km/h (1 Bft) 94,74 %
07.12.2017 06:50 0,2 C 3,9 C 92 % 1027,5 hPa 0,0 l/m 2,3 km/h (1 Bft) S-SW 211 0 min 0,000 mm 0,0 UV-I 0 W/m -0,9 C 0,2 C 3,2 km/h (1 Bft) 94,34 %
07.12.2017 06:52 0,2 C 3,9 C 92 % 1027,5 hPa 0,0 l/m 3,3 km/h (1 Bft) S-SW 207 0 min 0,000 mm 0,0 UV-I 0 W/m -0,9 C 0,2 C 4,8 km/h (1 Bft) 95,12 %
07.12.2017 06:54 0,2 C 3,9 C 92 % 1027,5 hPa 0,0 l/m 3,1 km/h (1 Bft) S-SW 208 0 min 0,000 mm 0,0 UV-I 0 W/m -0,9 C 0,2 C 4,8 km/h (1 Bft) 98,00 %
07.12.2017 06:56 0,2 C 3,9 C 92 % 1027,5 hPa 0,0 l/m 2,4 km/h (1 Bft) S-SW 208 0 min 0,000 mm 0,0 UV-I 0 W/m -0,9 C 0,2 C 4,8 km/h (1 Bft) 92,31 %
07.12.2017 06:58 0,2 C 3,9 C 92 % 1027,4 hPa 0,0 l/m 3,5 km/h (1 Bft) W-SW 240 0 min 0,000 mm 0,0 UV-I 0 W/m -0,9 C 0,2 C 8,0 km/h (2 Bft) 96,23 %
07.12.2017 07:00 0,2 C 3,9 C 93 % 1027,4 hPa 0,0 l/m 4,5 km/h (1 Bft) SW 223 0 min 0,000 mm 0,0 UV-I 0 W/m -0,8 C 0,2 C 6,4 km/h (2 Bft) 96,23 %
07.12.2017 07:02 0,2 C 3,9 C 93 % 1027,4 hPa 0,0 l/m 4,0 km/h (1 Bft) W-SW 244 0 min 0,000 mm 0,0 UV-I 0 W/m -0,8 C 0,2 C 6,4 km/h (2 Bft) 94,74 %
07.12.2017 07:04 0,2 C 3,9 C 92 % 1027,4 hPa 0,0 l/m 4,1 km/h (1 Bft) W-SW 242 0 min 0,000 mm 0,0 UV-I 0 W/m -0,9 C 0,2 C 6,4 km/h (2 Bft) 94,34 %
07.12.2017 07:06 0,2 C 3,9 C 93 % 1027,4 hPa 0,0 l/m 2,8 km/h (1 Bft) W-SW 242 0 min 0,000 mm 0,0 UV-I 0 W/m -0,8 C 0,2 C 4,8 km/h (1 Bft) 97,87 %
07.12.2017 07:08 0,2 C 3,9 C 93 % 1027,4 hPa 0,0 l/m 1,2 km/h (1 Bft) W-SW 242 0 min 0,000 mm 0,0 UV-I 0 W/m -0,8 C 0,2 C 3,2 km/h (1 Bft) 95,12 %
07.12.2017 07:10 0,2 C 3,9 C 92 % 1027,3 hPa 0,0 l/m 0,2 km/h (0 Bft) W-SW 242 0 min 0,000 mm 0,0 UV-I 0 W/m -0,9 C 0,2 C 1,6 km/h (1 Bft) 93,62 %
07.12.2017 07:12 0,2 C 3,9 C 92 % 1027,4 hPa 0,0 l/m 1,0 km/h (0 Bft) W-SW 242 0 min 0,000 mm 0,0 UV-I 0 W/m -0,9 C 0,2 C 1,6 km/h (1 Bft) 98,00 %
07.12.2017 07:14 0,2 C 3,9 C 92 % 1027,4 hPa 0,0 l/m 1,3 km/h (1 Bft) W-SW 242 0 min 0,000 mm 0,0 UV-I 0 W/m -0,9 C 0,2 C 3,2 km/h (1 Bft) 98,11 %
07.12.2017 07:16 0,1 C 3,9 C 92 % 1027,4 hPa 0,0 l/m 0,8 km/h (0 Bft) W-SW 242 0 min 0,000 mm 0,0 UV-I 0 W/m -1,0 C 0,1 C 1,6 km/h (1 Bft) 97,56 %
07.12.2017 07:18 0,1 C 3,9 C 92 % 1027,4 hPa 0,0 l/m 0,3 km/h (0 Bft) W-SW 242 0 min 0,000 mm 0,0 UV-I 0 W/m -1,0 C 0,1 C 1,6 km/h (1 Bft) 96,00 %
07.12.2017 07:20 0,2 C 3,9 C 92 % 1027,4 hPa 0,0 l/m 0,0 km/h (0 Bft) W-SW 242 0 min 0,000 mm 0,0 UV-I 0 W/m -0,9 C 0,2 C 0,0 km/h (0 Bft) 95,74 %
07.12.2017 07:22 0,1 C 3,9 C 92 % 1027,4 hPa 0,0 l/m 0,0 km/h (0 Bft) W-SW 242 0 min 0,000 mm 0,0 UV-I 0 W/m -1,0 C 0,1 C 0,0 km/h (0 Bft) 100,00 %
07.12.2017 07:24 0,1 C 3,9 C 92 % 1027,4 hPa 0,0 l/m 0,0 km/h (0 Bft) W-SW 242 0 min 0,000 mm 0,0 UV-I 0 W/m -1,0 C 0,1 C 0,0 km/h (0 Bft) 96,15 %
07.12.2017 07:26 0,1 C 3,9 C 93 % 1027,4 hPa 0,0 l/m 0,9 km/h (0 Bft) W-SW 242 0 min 0,000 mm 0,0 UV-I 3 W/m -0,9 C 0,1 C 3,2 km/h (1 Bft) 98,00 %
07.12.2017 07:28 0,1 C 3,9 C 93 % 1027,3 hPa 0,0 l/m 0,0 km/h (0 Bft) W-SW 242 0 min 0,000 mm 0,0 UV-I 5 W/m -0,9 C 0,1 C 1,6 km/h (1 Bft) 98,00 %
07.12.2017 07:30 0,2 C 3,9 C 93 % 1027,3 hPa 0,0 l/m 0,0 km/h (0 Bft) W-SW 242 0 min 0,000 mm 0,0 UV-I 5 W/m -0,8 C 0,2 C 0,0 km/h (0 Bft) 94,29 %
07.12.2017 07:32 0,2 C 3,9 C 93 % 1027,3 hPa 0,0 l/m 0,0 km/h (0 Bft) W-SW 242 0 min 0,000 mm 0,0 UV-I 5 W/m -0,8 C 0,2 C 1,6 km/h (1 Bft) 97,92 %
07.12.2017 07:34 0,2 C 3,9 C 93 % 1027,3 hPa 0,0 l/m 0,8 km/h (0 Bft) W-NW 283 0 min 0,000 mm 0,0 UV-I 5 W/m -0,8 C 0,2 C 6,4 km/h (2 Bft) 98,08 %
07.12.2017 07:36 0,1 C 3,9 C 93 % 1027,3 hPa 0,0 l/m 2,8 km/h (1 Bft) W-NW 283 0 min 0,000 mm 0,0 UV-I 5 W/m -0,9 C 0,1 C 4,8 km/h (1 Bft) 94,87 %
07.12.2017 07:38 0,1 C 3,9 C 93 % 1027,3 hPa 0,0 l/m 1,8 km/h (1 Bft) W-NW 283 0 min 0,000 mm 0,0 UV-I 5 W/m -0,9 C 0,1 C 3,2 km/h (1 Bft) 98,11 %
07.12.2017 07:40 0,2 C 3,9 C 93 % 1027,3 hPa 0,0 l/m 3,7 km/h (1 Bft) W 271 0 min 0,000 mm 0,0 UV-I 5 W/m -0,8 C 0,2 C 6,4 km/h (2 Bft) 97,87 %
07.12.2017 07:42 0,2 C 3,9 C 93 % 1027,3 hPa 0,0 l/m 4,0 km/h (1 Bft) W 263 0 min 0,000 mm 0,0 UV-I 5 W/m -0,8 C 0,2 C 6,4 km/h (2 Bft) 95,74 %
07.12.2017 07:44 0,2 C 3,9 C 93 % 1027,3 hPa 0,0 l/m 1,6 km/h (1 Bft) W 263 0 min 0,000 mm 0,0 UV-I 5 W/m -0,8 C 0,2 C 4,8 km/h (1 Bft) 97,87 %
07.12.2017 07:46 0,2 C 3,9 C 93 % 1027,4 hPa 0,0 l/m 2,2 km/h (1 Bft) W 259 0 min 0,000 mm 0,0 UV-I 7 W/m -0,8 C 0,2 C 3,2 km/h (1 Bft) 97,87 %
07.12.2017 07:48 0,1 C 3,9 C 93 % 1027,4 hPa 0,0 l/m 2,6 km/h (1 Bft) W-SW 258 0 min 0,000 mm 0,0 UV-I 7 W/m -0,9 C 0,1 C 4,8 km/h (1 Bft) 100,00 %
07.12.2017 07:50 0,1 C 3,9 C 93 % 1027,4 hPa 0,0 l/m 2,8 km/h (1 Bft) S-SW 213 0 min 0,000 mm 0,0 UV-I 7 W/m -0,9 C 0,1 C 4,8 km/h (1 Bft) 100,00 %
07.12.2017 07:52 0,1 C 3,9 C 93 % 1027,4 hPa 0,0 l/m 2,6 km/h (1 Bft) S-SW 212 0 min 0,000 mm 0,0 UV-I 7 W/m -0,9 C 0,1 C 4,8 km/h (1 Bft) 98,25 %
07.12.2017 07:54 0,1 C 3,9 C 93 % 1027,4 hPa 0,0 l/m 2,1 km/h (1 Bft) S-SW 212 0 min 0,000 mm 0,0 UV-I 7 W/m -0,9 C 0,1 C 4,8 km/h (1 Bft) 100,00 %
07.12.2017 07:56 0,1 C 3,9 C 93 % 1027,3 hPa 0,0 l/m 3,6 km/h (1 Bft) S-SW 212 0 min 0,000 mm 0,0 UV-I 7 W/m -0,9 C 0,1 C 6,4 km/h (2 Bft) 95,12 %
07.12.2017 07:58 0,1 C 3,9 C 93 % 1027,3 hPa 0,0 l/m 2,4 km/h (1 Bft) S-SW 212 0 min 0,000 mm 0,0 UV-I 9 W/m -0,9 C 0,1 C 4,8 km/h (1 Bft) 98,11 %
07.12.2017 08:00 0,1 C 3,9 C 93 % 1027,3 hPa 0,0 l/m 3,1 km/h (1 Bft) S-SW 211 0 min 0,000 mm 0,0 UV-I 9 W/m -0,9 C 0,1 C 6,4 km/h (2 Bft) 100,00 %
07.12.2017 08:02 0,1 C 3,9 C 93 % 1027,4 hPa 0,0 l/m 3,6 km/h (1 Bft) S-SW 205 0 min 0,000 mm 0,0 UV-I 10 W/m -0,9 C 0,1 C 6,4 km/h (2 Bft) 100,00 %
07.12.2017 08:04 0,1 C 3,9 C 93 % 1027,3 hPa 0,0 l/m 2,8 km/h (1 Bft) S-SW 203 0 min 0,000 mm 0,0 UV-I 11 W/m -0,9 C 0,1 C 4,8 km/h (1 Bft) 96,43 %
07.12.2017 08:06 0,1 C 3,9 C 93 % 1027,3 hPa 0,0 l/m 2,0 km/h (1 Bft) S-SW 204 0 min 0,000 mm 0,0 UV-I 12 W/m -0,9 C 0,1 C 4,8 km/h (1 Bft) 100,00 %
07.12.2017 08:08 0,1 C 3,9 C 93 % 1027,3 hPa 0,0 l/m 1,6 km/h (1 Bft) S-SW 203 0 min 0,000 mm 0,0 UV-I 16 W/m -0,9 C 0,1 C 3,2 km/h (1 Bft) 100,00 %
07.12.2017 08:10 0,2 C 3,9 C 93 % 1027,2 hPa 0,0 l/m 1,8 km/h (1 Bft) S-SW 204 0 min 0,000 mm 0,0 UV-I 17 W/m -0,8 C 0,2 C 3,2 km/h (1 Bft) 97,87 %
07.12.2017 08:12 0,2 C 3,9 C 93 % 1027,3 hPa 0,0 l/m 2,7 km/h (1 Bft) S-SW 204 0 min 0,000 mm 0,0 UV-I 19 W/m -0,8 C 0,2 C 4,8 km/h (1 Bft) 100,00 %
07.12.2017 08:14 0,1 C 3,9 C 93 % 1027,3 hPa 0,0 l/m 2,5 km/h (1 Bft) S-SW 204 0 min 0,000 mm 0,0 UV-I 19 W/m -0,9 C 0,1 C 4,8 km/h (1 Bft) 100,00 %
07.12.2017 08:16 0,1 C 3,9 C 93 % 1027,3 hPa 0,0 l/m 2,9 km/h (1 Bft) S-SW 204 0 min 0,000 mm 0,0 UV-I 18 W/m -0,9 C 0,1 C 4,8 km/h (1 Bft) 100,00 %
07.12.2017 08:18 0,1 C 3,9 C 93 % 1027,3 hPa 0,0 l/m 3,5 km/h (1 Bft) S-SW 204 0 min 0,000 mm 0,0 UV-I 18 W/m -0,9 C 0,1 C 4,8 km/h (1 Bft) 100,00 %
07.12.2017 08:20 0,1 C 3,9 C 93 % 1027,3 hPa 0,0 l/m 4,4 km/h (1 Bft) SW 229 0 min 0,000 mm 0,0 UV-I 18 W/m -0,9 C 0,1 C 6,4 km/h (2 Bft) 100,00 %
07.12.2017 08:22 0,1 C 3,9 C 93 % 1027,3 hPa 0,0 l/m 4,4 km/h (1 Bft) W-SW 238 0 min 0,000 mm 0,0 UV-I 19 W/m -0,9 C 0,1 C 6,4 km/h (2 Bft) 100,00 %
07.12.2017 08:24 0,1 C 3,9 C 93 % 1027,3 hPa 0,0 l/m 3,3 km/h (1 Bft) W-SW 238 0 min 0,000 mm 0,0 UV-I 20 W/m -0,9 C 0,1 C 4,8 km/h (1 Bft) 100,00 %
07.12.2017 08:26 0,1 C 3,9 C 93 % 1027,2 hPa 0,0 l/m 3,7 km/h (1 Bft) W-SW 237 0 min 0,000 mm 0,0 UV-I 24 W/m -0,9 C 0,1 C 6,4 km/h (2 Bft) 95,74 %
07.12.2017 08:28 0,1 C 3,9 C 93 % 1027,3 hPa 0,0 l/m 3,1 km/h (1 Bft) W-SW 241 0 min 0,000 mm 0,0 UV-I 25 W/m -0,9 C 0,1 C 4,8 km/h (1 Bft) 98,21 %
07.12.2017 08:30 0,1 C 3,9 C 93 % 1027,3 hPa 0,0 l/m 3,8 km/h (1 Bft) W-SW 240 0 min 0,000 mm 0,0 UV-I 25 W/m -0,9 C 0,1 C 6,4 km/h (2 Bft) 97,56 %
07.12.2017 08:32 0,2 C 3,9 C 93 % 1027,2 hPa 0,0 l/m 4,2 km/h (1 Bft) W-SW 240 0 min 0,000 mm 0,0 UV-I 25 W/m -0,8 C 0,2 C 6,4 km/h (2 Bft) 96,23 %
07.12.2017 08:34 0,1 C 3,9 C 93 % 1027,3 hPa 0,0 l/m 2,6 km/h (1 Bft) W-SW 240 0 min 0,000 mm 0,0 UV-I 25 W/m -0,9 C 0,1 C 4,8 km/h (1 Bft) 97,37 %
07.12.2017 08:36 0,1 C 3,9 C 93 % 1027,2 hPa 0,0 l/m 2,6 km/h (1 Bft) W-SW 241 0 min 0,000 mm 0,0 UV-I 27 W/m -0,9 C 0,1 C 4,8 km/h (1 Bft) 98,11 %
07.12.2017 08:38 0,1 C 3,9 C 93 % 1027,2 hPa 0,0 l/m 2,9 km/h (1 Bft) W-SW 241 0 min 0,000 mm 0,0 UV-I 29 W/m -0,9 C 0,1 C 4,8 km/h (1 Bft) 97,87 %
07.12.2017 08:40 0,1 C 3,9 C 93 % 1027,2 hPa 0,0 l/m 1,4 km/h (1 Bft) W-SW 241 0 min 0,000 mm 0,0 UV-I 30 W/m -0,9 C 0,1 C 4,8 km/h (1 Bft) 92,00 %
07.12.2017 08:42 0,1 C 3,9 C 93 % 1027,3 hPa 0,0 l/m 4,3 km/h (1 Bft) W-SW 256 0 min 0,000 mm 0,0 UV-I 32 W/m -0,9 C 0,1 C 8,0 km/h (2 Bft) 100,00 %
07.12.2017 08:44 0,1 C 3,9 C 93 % 1027,3 hPa 0,0 l/m 5,7 km/h (1 Bft) W-SW 251 0 min 0,000 mm 0,0 UV-I 32 W/m -0,9 C 0,1 C 9,7 km/h (2 Bft) 94,00 %
07.12.2017 08:46 0,0 C 3,9 C 93 % 1027,3 hPa 0,0 l/m 5,3 km/h (1 Bft) SW 228 0 min 0,000 mm 0,0 UV-I 34 W/m -1,0 C 0,0 C 8,0 km/h (2 Bft) 97,87 %
07.12.2017 08:48 0,0 C 3,9 C 93 % 1027,3 hPa 0,0 l/m 3,9 km/h (1 Bft) SW 233 0 min 0,000 mm 0,0 UV-I 38 W/m -1,0 C 0,0 C 4,8 km/h (1 Bft) 98,00 %
07.12.2017 08:50 -0,1 C 3,9 C 93 % 1027,2 hPa 0,0 l/m 4,8 km/h (1 Bft) SW 224 0 min 0,000 mm 0,0 UV-I 41 W/m -1,1 C -0,1 C 6,4 km/h (2 Bft) 98,00 %
07.12.2017 08:52 -0,1 C 3,9 C 93 % 1027,2 hPa 0,0 l/m 2,2 km/h (1 Bft) SW 224 0 min 0,000 mm 0,0 UV-I 45 W/m -1,1 C -0,1 C 4,8 km/h (1 Bft) 97,44 %
07.12.2017 08:54 -0,2 C 3,9 C 93 % 1027,2 hPa 0,0 l/m 1,3 km/h (1 Bft) SW 224 0 min 0,000 mm 0,0 UV-I 48 W/m -1,2 C -0,2 C 3,2 km/h (1 Bft) 97,37 %
07.12.2017 08:56 -0,2 C 3,9 C 93 % 1027,2 hPa 0,0 l/m 1,8 km/h (1 Bft) S-SW 207 0 min 0,000 mm 0,0 UV-I 48 W/m -1,2 C -0,2 C 3,2 km/h (1 Bft) 96,88 %
07.12.2017 08:58 -0,2 C 3,9 C 93 % 1027,1 hPa 0,0 l/m 4,1 km/h (1 Bft) S-SW 202 0 min 0,000 mm 0,0 UV-I 47 W/m -1,2 C -0,2 C 6,4 km/h (2 Bft) 97,62 %
07.12.2017 09:00 -0,1 C 3,9 C 93 % 1027,1 hPa 0,0 l/m 1,4 km/h (1 Bft) S-SW 202 0 min 0,000 mm 0,0 UV-I 48 W/m -1,1 C -0,1 C 3,2 km/h (1 Bft) 96,15 %
07.12.2017 09:02 -0,1 C 3,9 C 93 % 1027,1 hPa 0,0 l/m 3,1 km/h (1 Bft) S-SW 202 0 min 0,000 mm 0,0 UV-I 50 W/m -1,1 C -0,1 C 4,8 km/h (1 Bft) 97,92 %
07.12.2017 09:04 -0,1 C 3,9 C 93 % 1027,1 hPa 0,0 l/m 1,3 km/h (1 Bft) S-SW 202 0 min 0,000 mm 0,0 UV-I 53 W/m -1,1 C -0,1 C 3,2 km/h (1 Bft) 100,00 %
07.12.2017 09:06 0,0 C 3,9 C 93 % 1027,1 hPa 0,0 l/m 1,9 km/h (1 Bft) S-SW 202 0 min 0,000 mm 0,0 UV-I 53 W/m -1,0 C 0,0 C 4,8 km/h (1 Bft) 100,00 %
07.12.2017 09:08 -0,1 C 3,9 C 93 % 1027,1 hPa 0,0 l/m 2,5 km/h (1 Bft) S-SW 202 0 min 0,000 mm 0,0 UV-I 51 W/m -1,1 C -0,1 C 4,8 km/h (1 Bft) 100,00 %
07.12.2017 09:10 -0,1 C 3,9 C 93 % 1027,1 hPa 0,0 l/m 0,9 km/h (0 Bft) S-SW 202 0 min 0,000 mm 0,0 UV-I 54 W/m -1,1 C -0,1 C 3,2 km/h (1 Bft) 100,00 %
07.12.2017 09:12 -0,2 C 3,9 C 93 % 1027,1 hPa 0,0 l/m 2,7 km/h (1 Bft) S-SO 168 0 min 0,000 mm 0,0 UV-I 57 W/m -1,2 C -0,2 C 6,4 km/h (2 Bft) 100,00 %
07.12.2017 09:14 -0,2 C 3,9 C 93 % 1027,1 hPa 0,0 l/m 2,5 km/h (1 Bft) S-SO 168 0 min 0,000 mm 0,0 UV-I 56 W/m -1,2 C -0,2 C 6,4 km/h (2 Bft) 100,00 %
07.12.2017 09:16 -0,2 C 3,9 C 93 % 1027,1 hPa 0,0 l/m 1,2 km/h (1 Bft) S-SO 168 0 min 0,000 mm 0,0 UV-I 59 W/m -1,2 C -0,2 C 3,2 km/h (1 Bft) 100,00 %
07.12.2017 09:18 -0,1 C 3,9 C 93 % 1027,1 hPa 0,0 l/m 5,5 km/h (1 Bft) S-SW 212 0 min 0,000 mm 0,0 UV-I 63 W/m -1,1 C -0,1 C 8,0 km/h (2 Bft) 100,00 %
07.12.2017 09:20 -0,1 C 3,9 C 93 % 1027,1 hPa 0,0 l/m 5,3 km/h (1 Bft) S-SW 195 0 min 0,000 mm 0,0 UV-I 64 W/m -1,1 C -0,1 C 8,0 km/h (2 Bft) 100,00 %
07.12.2017 09:22 -0,1 C 3,9 C 93 % 1027,1 hPa 0,0 l/m 3,1 km/h (1 Bft) S-SW 195 0 min 0,000 mm 0,0 UV-I 69 W/m -1,1 C -0,1 C 4,8 km/h (1 Bft) 100,00 %
07.12.2017 09:24 -0,1 C 3,9 C 93 % 1027,1 hPa 0,0 l/m 3,4 km/h (1 Bft) S-SW 196 0 min 0,000 mm 0,0 UV-I 74 W/m -1,1 C -0,1 C 6,4 km/h (2 Bft) 100,00 %
07.12.2017 09:26 0,0 C 3,9 C 93 % 1027,0 hPa 0,0 l/m 6,3 km/h (2 Bft) S-SW 205 0 min 0,000 mm 0,0 UV-I 76 W/m -1,0 C 0,0 C 11,3 km/h (2 Bft) 97,87 %
07.12.2017 09:28 -0,1 C 3,9 C 93 % 1027,0 hPa 0,0 l/m 5,8 km/h (2 Bft) S-SW 198 0 min 0,000 mm 0,0 UV-I 77 W/m -1,1 C -0,1 C 8,0 km/h (2 Bft) 100,00 %
07.12.2017 09:30 -0,2 C 3,9 C 93 % 1027,0 hPa 0,0 l/m 1,5 km/h (1 Bft) S-SW 196 0 min 0,000 mm 0,0 UV-I 77 W/m -1,2 C -0,2 C 3,2 km/h (1 Bft) 100,00 %
07.12.2017 09:32 -0,1 C 3,9 C 93 % 1027,0 hPa 0,0 l/m 4,4 km/h (1 Bft) S-SW 208 0 min 0,000 mm 0,0 UV-I 77 W/m -1,1 C -0,1 C 8,0 km/h (2 Bft) 97,44 %
07.12.2017 09:34 -0,1 C 3,9 C 93 % 1027,0 hPa 0,0 l/m 5,2 km/h (1 Bft) S-SW 208 0 min 0,000 mm 0,0 UV-I 79 W/m -1,1 C -0,1 C 8,0 km/h (2 Bft) 100,00 %
07.12.2017 09:36 -0,1 C 3,9 C 93 % 1027,0 hPa 0,0 l/m 2,3 km/h (1 Bft) S-SW 208 0 min 0,000 mm 0,0 UV-I 82 W/m -1,1 C -0,1 C 4,8 km/h (1 Bft) 96,15 %
07.12.2017 09:38 0,0 C 3,9 C 93 % 1027,0 hPa 0,0 l/m 1,2 km/h (1 Bft) S-SW 208 0 min 0,000 mm 0,0 UV-I 81 W/m -1,0 C 0,0 C 3,2 km/h (1 Bft) 100,00 %
07.12.2017 09:40 0,1 C 3,9 C 93 % 1027,0 hPa 0,0 l/m 1,6 km/h (1 Bft) S-SW 208 0 min 0,000 mm 0,0 UV-I 77 W/m -0,9 C 0,1 C 3,2 km/h (1 Bft) 100,00 %
07.12.2017 09:42 0,1 C 3,9 C 93 % 1027,0 hPa 0,0 l/m 1,5 km/h (1 Bft) S-SW 208 0 min 0,000 mm 0,0 UV-I 74 W/m -0,9 C 0,1 C 3,2 km/h (1 Bft) 98,00 %
07.12.2017 09:44 0,1 C 3,9 C 93 % 1027,0 hPa 0,0 l/m 1,2 km/h (1 Bft) S-SW 208 0 min 0,000 mm 0,0 UV-I 72 W/m -0,9 C 0,1 C 3,2 km/h (1 Bft) 100,00 %
07.12.2017 09:46 0,1 C 3,9 C 93 % 1027,0 hPa 0,0 l/m 3,6 km/h (1 Bft) SW 216 0 min 0,000 mm 0,0 UV-I 70 W/m -0,9 C 0,1 C 6,4 km/h (2 Bft) 100,00 %
07.12.2017 09:48 0,2 C 3,9 C 93 % 1027,0 hPa 0,0 l/m 2,3 km/h (1 Bft) SW 215 0 min 0,000 mm 0,0 UV-I 73 W/m -0,8 C 0,2 C 6,4 km/h (2 Bft) 100,00 %
07.12.2017 09:50 0,2 C 3,9 C 93 % 1027,0 hPa 0,0 l/m 3,6 km/h (1 Bft) SW 229 0 min 0,000 mm 0,0 UV-I 72 W/m -0,8 C 0,2 C 6,4 km/h (2 Bft) 100,00 %
07.12.2017 09:52 0,2 C 3,9 C 93 % 1027,0 hPa 0,0 l/m 4,4 km/h (1 Bft) W 261 0 min 0,000 mm 0,0 UV-I 75 W/m -0,8 C 0,2 C 6,4 km/h (2 Bft) 98,11 %
07.12.2017 09:54 0,2 C 3,9 C 93 % 1027,0 hPa 0,0 l/m 7,0 km/h (2 Bft) W 259 0 min 0,000 mm 0,0 UV-I 76 W/m -0,8 C -0,4 C 11,3 km/h (2 Bft) 100,00 %
07.12.2017 09:56 0,1 C 3,9 C 92 % 1026,9 hPa 0,0 l/m 6,9 km/h (2 Bft) W-SW 246 0 min 0,000 mm 0,0 UV-I 79 W/m -1,0 C -0,4 C 12,9 km/h (3 Bft) 100,00 %
07.12.2017 09:58 0,0 C 3,9 C 93 % 1026,9 hPa 0,0 l/m 5,5 km/h (1 Bft) W-SW 246 0 min 0,000 mm 0,0 UV-I 84 W/m -1,0 C 0,0 C 8,0 km/h (2 Bft) 100,00 %
07.12.2017 10:00 0,0 C 3,9 C 93 % 1026,9 hPa 0,0 l/m 5,1 km/h (1 Bft) SW 224 0 min 0,025 mm 0,0 UV-I 88 W/m -1,0 C 0,0 C 6,4 km/h (2 Bft) 97,87 %
07.12.2017 10:02 0,0 C 3,9 C 93 % 1026,9 hPa 0,0 l/m 5,2 km/h (1 Bft) SW 218 0 min 0,000 mm 0,0 UV-I 86 W/m -1,0 C 0,0 C 8,0 km/h (2 Bft) 97,37 %
07.12.2017 10:04 0,0 C 3,9 C 93 % 1026,9 hPa 0,0 l/m 3,3 km/h (1 Bft) SW 218 0 min 0,000 mm 0,0 UV-I 85 W/m -1,0 C 0,0 C 4,8 km/h (1 Bft) 100,00 %
07.12.2017 10:06 0,0 C 3,9 C 93 % 1026,9 hPa 0,0 l/m 1,2 km/h (1 Bft) S-SW 212 0 min 0,000 mm 0,0 UV-I 83 W/m -1,0 C 0,0 C 3,2 km/h (1 Bft) 92,59 %
07.12.2017 10:08 0,1 C 3,9 C 93 % 1026,9 hPa 0,0 l/m 2,9 km/h (1 Bft) W-SW 242 0 min 0,000 mm 0,0 UV-I 83 W/m -0,9 C 0,1 C 9,7 km/h (2 Bft) 98,44 %
07.12.2017 10:10 0,2 C 3,9 C 93 % 1026,9 hPa 0,0 l/m 4,0 km/h (1 Bft) W 281 0 min 0,000 mm 0,0 UV-I 86 W/m -0,8 C 0,2 C 6,4 km/h (2 Bft) 100,00 %
07.12.2017 10:12 0,1 C 3,9 C 93 % 1026,9 hPa 0,0 l/m 1,6 km/h (1 Bft) W 281 0 min 0,000 mm 0,0 UV-I 86 W/m -0,9 C 0,1 C 3,2 km/h (1 Bft) 98,00 %
07.12.2017 10:14 0,2 C 3,9 C 93 % 1027,0 hPa 0,0 l/m 1,5 km/h (1 Bft) W 281 0 min 0,000 mm 0,0 UV-I 82 W/m -0,8 C 0,2 C 3,2 km/h (1 Bft) 100,00 %
07.12.2017 10:16 0,2 C 3,9 C 93 % 1027,0 hPa 0,0 l/m 0,3 km/h (0 Bft) W 281 0 min 0,000 mm 0,0 UV-I 83 W/m -0,8 C 0,2 C 1,6 km/h (1 Bft) 94,44 %
07.12.2017 10:18 0,3 C 3,9 C 93 % 1027,0 hPa 0,0 l/m 0,5 km/h (0 Bft) W 281 0 min 0,000 mm 0,0 UV-I 88 W/m -0,7 C 0,3 C 1,6 km/h (1 Bft) 100,00 %
07.12.2017 10:20 0,3 C 3,9 C 93 % 1026,9 hPa 0,0 l/m 3,3 km/h (1 Bft) W-SW 248 0 min 0,000 mm 0,0 UV-I 86 W/m -0,7 C 0,3 C 4,8 km/h (1 Bft) 98,11 %
07.12.2017 10:23 0,4 C 3,9 C 93 % 1026,9 hPa 0,0 l/m 5,5 km/h (1 Bft) W 266 0 min 0,000 mm 0,0 UV-I 86 W/m -0,6 C 0,4 C 8,0 km/h (2 Bft) 100,00 %
07.12.2017 10:24 0,4 C 3,9 C 92 % 1026,9 hPa 0,0 l/m 4,8 km/h (1 Bft) W 259 0 min 0,000 mm 0,0 UV-I 86 W/m -0,7 C 0,4 C 6,4 km/h (2 Bft) 100,00 %
07.12.2017 10:26 0,3 C 3,9 C 92 % 1026,9 hPa 0,0 l/m 3,5 km/h (1 Bft) W 259 0 min 0,000 mm 0,0 UV-I 88 W/m -0,8 C 0,3 C 4,8 km/h (1 Bft) 100,00 %
07.12.2017 10:28 0,3 C 3,9 C 92 % 1026,9 hPa 0,0 l/m 2,7 km/h (1 Bft) W 259 0 min 0,000 mm 0,0 UV-I 84 W/m -0,8 C 0,3 C 4,8 km/h (1 Bft) 94,00 %
07.12.2017 10:30 0,3 C 3,9 C 92 % 1026,8 hPa 0,0 l/m 3,8 km/h (1 Bft) W 259 0 min 0,000 mm 0,0 UV-I 83 W/m -0,8 C 0,3 C 4,8 km/h (1 Bft) 96,23 %
07.12.2017 10:33 0,2 C 3,9 C 92 % 1026,7 hPa 0,0 l/m 3,4 km/h (1 Bft) W 267 0 min 0,000 mm 0,0 UV-I 88 W/m -0,9 C 0,2 C 4,8 km/h (1 Bft) 96,77 %
07.12.2017 10:34 0,2 C 3,9 C 92 % 1026,7 hPa 0,0 l/m 3,1 km/h (1 Bft) W 273 0 min 0,000 mm 0,0 UV-I 95 W/m -0,9 C 0,2 C 4,8 km/h (1 Bft) 91,30 %
07.12.2017 10:36 0,3 C 3,9 C 93 % 1026,7 hPa 0,0 l/m 2,3 km/h (1 Bft) W 273 0 min 0,000 mm 0,0 UV-I 98 W/m -0,7 C 0,3 C 4,8 km/h (1 Bft) 96,23 %
07.12.2017 10:38 0,3 C 3,9 C 93 % 1026,7 hPa 0,0 l/m 2,6 km/h (1 Bft) W 273 0 min 0,000 mm 0,0 UV-I 101 W/m -0,7 C 0,3 C 4,8 km/h (1 Bft) 95,74 %
07.12.2017 10:40 0,3 C 3,9 C 92 % 1026,7 hPa 0,0 l/m 2,7 km/h (1 Bft) W-NW 296 0 min 0,000 mm 0,0 UV-I 99 W/m -0,8 C 0,3 C 4,8 km/h (1 Bft) 94,74 %
07.12.2017 10:42 0,3 C 3,9 C 92 % 1026,7 hPa 0,0 l/m 2,1 km/h (1 Bft) W-NW 296 0 min 0,000 mm 0,0 UV-I 104 W/m -0,8 C 0,3 C 4,8 km/h (1 Bft) 95,74 %
07.12.2017 10:44 0,3 C 3,9 C 92 % 1026,6 hPa 0,0 l/m 2,3 km/h (1 Bft) W-NW 283 0 min 0,000 mm 0,0 UV-I 114 W/m -0,8 C 0,3 C 6,4 km/h (2 Bft) 94,44 %
07.12.2017 10:46 0,4 C 3,9 C 92 % 1026,6 hPa 0,0 l/m 5,0 km/h (1 Bft) W 261 0 min 0,000 mm 0,0 UV-I 121 W/m -0,7 C 0,4 C 8,0 km/h (2 Bft) 95,52 %
07.12.2017 10:48 0,3 C 3,9 C 92 % 1026,6 hPa 0,0 l/m 4,7 km/h (1 Bft) SW 229 0 min 0,000 mm 0,0 UV-I 125 W/m -0,8 C 0,3 C 8,0 km/h (2 Bft) 95,12 %
07.12.2017 10:50 0,3 C 3,9 C 92 % 1026,6 hPa 0,0 l/m 3,4 km/h (1 Bft) SW 229 0 min 0,000 mm 0,0 UV-I 129 W/m -0,8 C 0,3 C 4,8 km/h (1 Bft) 96,23 %
07.12.2017 10:52 0,2 C 3,9 C 92 % 1026,6 hPa 0,0 l/m 2,8 km/h (1 Bft) SW 229 0 min 0,000 mm 0,0 UV-I 137 W/m -0,9 C 0,2 C 4,8 km/h (1 Bft) 95,74 %
07.12.2017 10:54 0,2 C 3,9 C 92 % 1026,6 hPa 0,0 l/m 2,0 km/h (1 Bft) SW 229 0 min 0,000 mm 0,0 UV-I 142 W/m -0,9 C 0,2 C 4,8 km/h (1 Bft) 94,44 %
07.12.2017 10:56 0,2 C 3,9 C 92 % 1026,5 hPa 0,0 l/m 2,6 km/h (1 Bft) SW 229 0 min 0,000 mm 0,0 UV-I 139 W/m -0,9 C 0,2 C 4,8 km/h (1 Bft) 94,34 %
07.12.2017 10:58 0,3 C 3,9 C 92 % 1026,5 hPa 0,0 l/m 0,3 km/h (0 Bft) SW 229 0 min 0,000 mm 0,0 UV-I 132 W/m -0,8 C 0,3 C 1,6 km/h (1 Bft) 94,00 %
07.12.2017 11:00 0,3 C 3,9 C 92 % 1026,4 hPa 0,0 l/m 0,2 km/h (0 Bft) SW 229 0 min 0,000 mm 0,0 UV-I 138 W/m -0,8 C 0,3 C 1,6 km/h (1 Bft) 97,14 %
07.12.2017 11:02 0,3 C 3,9 C 92 % 1026,4 hPa 0,0 l/m 1,0 km/h (0 Bft) SW 229 0 min 0,026 mm 0,0 UV-I 146 W/m -0,8 C 0,3 C 3,2 km/h (1 Bft) 96,15 %
07.12.2017 11:04 0,3 C 3,9 C 92 % 1026,4 hPa 0,0 l/m 1,4 km/h (1 Bft) SW 229 0 min 0,000 mm 0,0 UV-I 145 W/m -0,8 C 0,3 C 3,2 km/h (1 Bft) 98,00 %
07.12.2017 11:06 0,3 C 3,9 C 92 % 1026,3 hPa 0,0 l/m 0,4 km/h (0 Bft) SW 229 0 min 0,000 mm 0,0 UV-I 142 W/m -0,8 C 0,3 C 1,6 km/h (1 Bft) 97,87 %
07.12.2017 11:08 0,4 C 3,9 C 93 % 1026,3 hPa 0,0 l/m 1,2 km/h (1 Bft) SW 229 0 min 0,000 mm 0,0 UV-I 137 W/m -0,6 C 0,4 C 3,2 km/h (1 Bft) 96,00 %
07.12.2017 11:10 0,6 C 3,9 C 93 % 1026,4 hPa 0,0 l/m 4,0 km/h (1 Bft) S-SW 209 0 min 0,000 mm 0,0 UV-I 136 W/m -0,4 C 0,6 C 8,0 km/h (2 Bft) 97,37 %
07.12.2017 11:12 0,6 C 3,9 C 92 % 1026,3 hPa 0,0 l/m 2,5 km/h (1 Bft) S-SW 199 0 min 0,000 mm 0,0 UV-I 140 W/m -0,5 C 0,6 C 6,4 km/h (2 Bft) 97,87 %
07.12.2017 11:14 0,5 C 3,9 C 92 % 1026,3 hPa 0,0 l/m 2,2 km/h (1 Bft) S-SW 199 0 min 0,000 mm 0,0 UV-I 143 W/m -0,6 C 0,5 C 4,8 km/h (1 Bft) 96,55 %
07.12.2017 11:16 0,5 C 3,9 C 92 % 1026,3 hPa 0,0 l/m 0,5 km/h (0 Bft) S-SW 199 0 min 0,000 mm 0,0 UV-I 151 W/m -0,6 C 0,5 C 1,6 km/h (1 Bft) 97,56 %
07.12.2017 11:18 0,6 C 3,9 C 93 % 1026,2 hPa 0,0 l/m 2,6 km/h (1 Bft) S-SW 199 0 min 0,000 mm 0,0 UV-I 151 W/m -0,4 C 0,6 C 4,8 km/h (1 Bft) 95,12 %
07.12.2017 11:20 0,6 C 3,9 C 92 % 1026,1 hPa 0,0 l/m 1,8 km/h (1 Bft) S-SW 199 0 min 0,000 mm 0,0 UV-I 159 W/m -0,5 C 0,6 C 3,2 km/h (1 Bft) 96,00 %
07.12.2017 11:22 0,6 C 3,9 C 92 % 1026,1 hPa 0,0 l/m 0,5 km/h (0 Bft) S-SW 199 0 min 0,000 mm 0,1 UV-I 162 W/m -0,5 C 0,6 C 3,2 km/h (1 Bft) 98,00 %
07.12.2017 11:24 0,7 C 3,9 C 92 % 1026,1 hPa 0,0 l/m 1,2 km/h (1 Bft) S-SW 199 0 min 0,000 mm 0,5 UV-I 178 W/m -0,4 C 0,7 C 3,2 km/h (1 Bft) 98,00 %
07.12.2017 11:26 0,8 C 3,9 C 92 % 1026,0 hPa 0,0 l/m 2,3 km/h (1 Bft) S-SW 199 2 min 0,000 mm 0,5 UV-I 189 W/m -0,3 C 0,8 C 3,2 km/h (1 Bft) 97,37 %
07.12.2017 11:28 0,8 C 3,9 C 92 % 1026,0 hPa 0,0 l/m 1,9 km/h (1 Bft) S-SW 199 2 min 0,000 mm 0,5 UV-I 207 W/m -0,3 C 0,8 C 3,2 km/h (1 Bft) 98,21 %
07.12.2017 11:30 0,7 C 3,9 C 91 % 1026,0 hPa 0,0 l/m 2,7 km/h (1 Bft) S-SW 199 2 min 0,000 mm 0,5 UV-I 215 W/m -0,6 C 0,7 C 4,8 km/h (1 Bft) 97,37 %
07.12.2017 11:32 0,9 C 3,9 C 92 % 1025,9 hPa 0,0 l/m 1,9 km/h (1 Bft) S-SW 199 2 min 0,000 mm 0,5 UV-I 225 W/m -0,2 C 0,9 C 3,2 km/h (1 Bft) 94,64 %
07.12.2017 11:34 1,1 C 3,9 C 92 % 1025,9 hPa 0,0 l/m 1,8 km/h (1 Bft) S-SW 200 2 min 0,000 mm 0,5 UV-I 237 W/m -0,1 C 1,1 C 3,2 km/h (1 Bft) 95,74 %
07.12.2017 11:36 1,0 C 3,9 C 90 % 1025,8 hPa 0,0 l/m 0,9 km/h (0 Bft) S-SW 200 2 min 0,000 mm 0,5 UV-I 252 W/m -0,5 C 1,0 C 3,2 km/h (1 Bft) 97,62 %
07.12.2017 11:38 1,0 C 3,9 C 91 % 1025,8 hPa 0,0 l/m 2,3 km/h (1 Bft) W 279 2 min 0,000 mm 0,5 UV-I 261 W/m -0,3 C 1,0 C 4,8 km/h (1 Bft) 98,00 %
07.12.2017 11:40 1,1 C 3,9 C 91 % 1025,9 hPa 0,0 l/m 2,3 km/h (1 Bft) W 279 2 min 0,000 mm 0,6 UV-I 267 W/m -0,2 C 1,1 C 4,8 km/h (1 Bft) 97,56 %
07.12.2017 11:42 1,1 C 3,9 C 90 % 1025,8 hPa 0,0 l/m 3,3 km/h (1 Bft) W 275 2 min 0,000 mm 0,6 UV-I 288 W/m -0,4 C 1,1 C 4,8 km/h (1 Bft) 94,00 %
07.12.2017 11:44 1,1 C 3,9 C 91 % 1025,8 hPa 0,0 l/m 2,4 km/h (1 Bft) W 277 2 min 0,000 mm 0,6 UV-I 305 W/m -0,2 C 1,1 C 4,8 km/h (1 Bft) 100,00 %
07.12.2017 11:46 0,9 C 3,9 C 90 % 1025,8 hPa 0,0 l/m 0,1 km/h (0 Bft) W 277 2 min 0,000 mm 0,6 UV-I 267 W/m -0,6 C 0,9 C 1,6 km/h (1 Bft) 98,11 %
07.12.2017 11:48 0,9 C 3,9 C 90 % 1025,8 hPa 0,0 l/m 1,8 km/h (1 Bft) S-SW 196 2 min 0,000 mm 0,6 UV-I 231 W/m -0,6 C 0,9 C 6,4 km/h (2 Bft) 100,00 %
07.12.2017 11:50 0,9 C 3,9 C 91 % 1025,8 hPa 0,0 l/m 2,0 km/h (1 Bft) S-SW 196 2 min 0,000 mm 0,6 UV-I 232 W/m -0,4 C 0,9 C 3,2 km/h (1 Bft) 100,00 %
07.12.2017 11:52 0,9 C 3,9 C 90 % 1025,7 hPa 0,0 l/m 0,6 km/h (0 Bft) S-SW 196 2 min 0,000 mm 0,6 UV-I 290 W/m -0,6 C 0,9 C 1,6 km/h (1 Bft) 100,00 %
07.12.2017 11:54 1,1 C 3,9 C 91 % 1025,6 hPa 0,0 l/m 0,0 km/h (0 Bft) S-SW 196 2 min 0,000 mm 0,6 UV-I 277 W/m -0,2 C 1,1 C 1,6 km/h (1 Bft) 100,00 %
07.12.2017 11:56 1,3 C 3,9 C 91 % 1025,6 hPa 0,0 l/m 0,1 km/h (0 Bft) S-SW 196 2 min 0,000 mm 0,7 UV-I 325 W/m -0,0 C 1,3 C 1,6 km/h (1 Bft) 100,00 %
07.12.2017 11:58 1,5 C 3,9 C 90 % 1025,6 hPa 0,0 l/m 2,1 km/h (1 Bft) SO 142 2 min 0,000 mm 0,7 UV-I 392 W/m 0,0 C 1,5 C 4,8 km/h (1 Bft) 100,00 %
07.12.2017 12:00 1,4 C 3,9 C 89 % 1025,5 hPa 0,0 l/m 2,5 km/h (1 Bft) SO 143 2 min 0,000 mm 0,7 UV-I 440 W/m -0,2 C 1,4 C 4,8 km/h (1 Bft) 98,00 %
07.12.2017 12:02 1,4 C 3,9 C 89 % 1025,5 hPa 0,0 l/m 1,8 km/h (1 Bft) S 173 2 min 0,076 mm 0,7 UV-I 399 W/m -0,2 C 1,4 C 6,4 km/h (2 Bft) 100,00 %
07.12.2017 12:04 1,6 C 3,9 C 90 % 1025,5 hPa 0,0 l/m 4,2 km/h (1 Bft) S 188 2 min 0,000 mm 0,7 UV-I 365 W/m 0,1 C 1,6 C 8,0 km/h (2 Bft) 100,00 %
07.12.2017 12:06 1,6 C 3,9 C 89 % 1025,4 hPa 0,0 l/m 3,9 km/h (1 Bft) SW 221 2 min 0,000 mm 0,7 UV-I 358 W/m -0,0 C 1,6 C 6,4 km/h (2 Bft) 100,00 %
07.12.2017 12:08 1,6 C 3,9 C 89 % 1025,4 hPa 0,0 l/m 3,3 km/h (1 Bft) S-SW 206 2 min 0,000 mm 0,7 UV-I 357 W/m -0,0 C 1,6 C 6,4 km/h (2 Bft) 100,00 %
07.12.2017 12:10 1,6 C 3,9 C 89 % 1025,4 hPa 0,0 l/m 4,1 km/h (1 Bft) S-SW 202 2 min 0,000 mm 0,7 UV-I 355 W/m -0,0 C 1,6 C 9,7 km/h (2 Bft) 100,00 %
07.12.2017 12:12 1,7 C 3,9 C 89 % 1025,3 hPa 0,0 l/m 3,5 km/h (1 Bft) SW 215 2 min 0,000 mm 0,7 UV-I 342 W/m 0,1 C 1,7 C 6,4 km/h (2 Bft) 100,00 %
07.12.2017 12:14 1,7 C 3,9 C 89 % 1025,3 hPa 0,0 l/m 2,7 km/h (1 Bft) SW 215 2 min 0,000 mm 0,7 UV-I 340 W/m 0,1 C 1,7 C 4,8 km/h (1 Bft) 97,56 %
07.12.2017 12:16 1,7 C 3,9 C 89 % 1025,2 hPa 0,0 l/m 3,8 km/h (1 Bft) W 265 2 min 0,000 mm 0,7 UV-I 338 W/m 0,1 C 1,7 C 4,8 km/h (1 Bft) 100,00 %
07.12.2017 12:18 1,7 C 3,9 C 89 % 1025,2 hPa 0,0 l/m 3,7 km/h (1 Bft) W 265 2 min 0,000 mm 0,7 UV-I 336 W/m 0,1 C 1,7 C 4,8 km/h (1 Bft) 98,00 %
07.12.2017 12:20 1,5 C 3,9 C 88 % 1025,1 hPa 0,0 l/m 3,8 km/h (1 Bft) W-SW 238 2 min 0,000 mm 0,7 UV-I 326 W/m -0,3 C 1,5 C 6,4 km/h (2 Bft) 98,11 %
07.12.2017 12:22 1,5 C 3,9 C 89 % 1025,1 hPa 0,0 l/m 3,6 km/h (1 Bft) SW 233 2 min 0,000 mm 0,7 UV-I 319 W/m -0,1 C 1,5 C 6,4 km/h (2 Bft) 92,68 %
07.12.2017 12:24 1,6 C 3,9 C 89 % 1025,0 hPa 0,0 l/m 1,9 km/h (1 Bft) SW 233 2 min 0,000 mm 0,7 UV-I 323 W/m -0,0 C 1,6 C 4,8 km/h (1 Bft) 95,74 %
07.12.2017 12:26 1,7 C 3,9 C 88 % 1025,0 hPa 0,0 l/m 3,3 km/h (1 Bft) SW 233 2 min 0,000 mm 0,7 UV-I 321 W/m -0,1 C 1,7 C 6,4 km/h (2 Bft) 90,57 %
07.12.2017 12:28 1,6 C 3,9 C 89 % 1024,9 hPa 0,0 l/m 4,1 km/h (1 Bft) W-SW 255 2 min 0,000 mm 0,7 UV-I 323 W/m -0,0 C 1,6 C 6,4 km/h (2 Bft) 92,68 %
07.12.2017 12:30 1,6 C 3,9 C 88 % 1025,0 hPa 0,0 l/m 3,7 km/h (1 Bft) W-SW 255 2 min 0,000 mm 0,7 UV-I 320 W/m -0,2 C 1,6 C 6,4 km/h (2 Bft) 97,44 %
07.12.2017 12:32 1,8 C 3,9 C 90 % 1025,0 hPa 0,0 l/m 2,2 km/h (1 Bft) W-SW 255 2 min 0,000 mm 0,7 UV-I 307 W/m 0,3 C 1,8 C 4,8 km/h (1 Bft) 94,64 %
07.12.2017 12:34 1,7 C 3,9 C 88 % 1024,9 hPa 0,0 l/m 1,1 km/h (1 Bft) W-SW 255 2 min 0,000 mm 0,7 UV-I 311 W/m -0,1 C 1,7 C 3,2 km/h (1 Bft) 95,45 %
07.12.2017 12:36 1,6 C 3,9 C 88 % 1024,9 hPa 0,0 l/m 0,1 km/h (0 Bft) W-SW 254 2 min 0,000 mm 0,7 UV-I 319 W/m -0,2 C 1,6 C 1,6 km/h (1 Bft) 95,74 %
07.12.2017 12:38 1,6 C 3,9 C 88 % 1024,8 hPa 0,0 l/m 0,6 km/h (0 Bft) W-SW 254 2 min 0,000 mm 0,7 UV-I 325 W/m -0,2 C 1,6 C 1,6 km/h (1 Bft) 95,74 %
07.12.2017 12:40 1,6 C 3,9 C 89 % 1024,8 hPa 0,0 l/m 1,0 km/h (0 Bft) S 185 2 min 0,000 mm 0,7 UV-I 325 W/m -0,0 C 1,6 C 4,8 km/h (1 Bft) 95,12 %
07.12.2017 12:42 1,7 C 3,9 C 89 % 1024,8 hPa 0,0 l/m 2,4 km/h (1 Bft) S 185 2 min 0,000 mm 0,7 UV-I 321 W/m 0,1 C 1,7 C 4,8 km/h (1 Bft) 94,87 %
07.12.2017 12:44 1,7 C 3,9 C 89 % 1024,7 hPa 0,0 l/m 2,0 km/h (1 Bft) S 185 2 min 0,000 mm 0,7 UV-I 318 W/m 0,1 C 1,7 C 3,2 km/h (1 Bft) 98,36 %
07.12.2017 12:46 1,7 C 3,9 C 89 % 1024,6 hPa 0,0 l/m 1,1 km/h (1 Bft) S 185 2 min 0,000 mm 0,7 UV-I 318 W/m 0,1 C 1,7 C 3,2 km/h (1 Bft) 97,73 %
07.12.2017 12:48 1,8 C 3,9 C 89 % 1024,7 hPa 0,0 l/m 2,4 km/h (1 Bft) S 185 2 min 0,000 mm 0,7 UV-I 318 W/m 0,2 C 1,8 C 4,8 km/h (1 Bft) 96,00 %
07.12.2017 12:50 2,1 C 3,9 C 88 % 1024,7 hPa 0,0 l/m 4,6 km/h (1 Bft) SW 225 2 min 0,000 mm 0,7 UV-I 315 W/m 0,3 C 2,1 C 6,4 km/h (2 Bft) 94,00 %
07.12.2017 12:52 2,2 C 3,9 C 88 % 1024,6 hPa 0,0 l/m 3,8 km/h (1 Bft) SW 225 2 min 0,000 mm 0,7 UV-I 313 W/m 0,4 C 2,2 C 6,4 km/h (2 Bft) 97,22 %
07.12.2017 12:54 2,1 C 3,9 C 87 % 1024,6 hPa 0,0 l/m 4,0 km/h (1 Bft) S-SW 209 2 min 0,000 mm 0,6 UV-I 313 W/m 0,2 C 2,1 C 8,0 km/h (2 Bft) 98,11 %
07.12.2017 12:56 2,2 C 3,9 C 88 % 1024,6 hPa 0,0 l/m 4,2 km/h (1 Bft) S-SW 209 2 min 0,000 mm 0,6 UV-I 313 W/m 0,4 C 2,2 C 6,4 km/h (2 Bft) 96,00 %
07.12.2017 12:58 2,2 C 3,9 C 87 % 1024,5 hPa 0,0 l/m 2,6 km/h (1 Bft) S-SW 202 2 min 0,000 mm 0,6 UV-I 309 W/m 0,3 C 2,2 C 4,8 km/h (1 Bft) 96,00 %
07.12.2017 13:00 2,1 C 3,9 C 87 % 1024,4 hPa 0,0 l/m 1,6 km/h (1 Bft) S-SW 202 2 min 0,127 mm 0,6 UV-I 308 W/m 0,2 C 2,1 C 4,8 km/h (1 Bft) 97,14 %
07.12.2017 13:02 2,3 C 3,9 C 87 % 1024,4 hPa 0,0 l/m 3,3 km/h (1 Bft) S-SW 202 2 min 0,000 mm 0,6 UV-I 306 W/m 0,4 C 2,3 C 4,8 km/h (1 Bft) 98,21 %
07.12.2017 13:04 2,2 C 3,9 C 86 % 1024,4 hPa 0,0 l/m 0,6 km/h (0 Bft) S-SW 202 2 min 0,000 mm 0,6 UV-I 302 W/m 0,1 C 2,2 C 3,2 km/h (1 Bft) 97,87 %
07.12.2017 13:06 2,3 C 3,9 C 87 % 1024,3 hPa 0,0 l/m 2,2 km/h (1 Bft) S-SW 202 2 min 0,000 mm 0,6 UV-I 301 W/m 0,4 C 2,3 C 4,8 km/h (1 Bft) 97,37 %
07.12.2017 13:08 2,3 C 3,9 C 87 % 1024,3 hPa 0,0 l/m 3,4 km/h (1 Bft) S-SW 208 2 min 0,000 mm 0,6 UV-I 298 W/m 0,4 C 2,3 C 4,8 km/h (1 Bft) 94,92 %
07.12.2017 13:10 2,2 C 3,9 C 86 % 1024,3 hPa 0,0 l/m 2,1 km/h (1 Bft) S-SW 208 2 min 0,000 mm 0,6 UV-I 296 W/m 0,1 C 2,2 C 4,8 km/h (1 Bft) 97,87 %
07.12.2017 13:12 2,2 C 3,9 C 86 % 1024,3 hPa 0,0 l/m 1,5 km/h (1 Bft) S-SW 207 2 min 0,000 mm 0,6 UV-I 294 W/m 0,1 C 2,2 C 4,8 km/h (1 Bft) 100,00 %
07.12.2017 13:14 2,3 C 3,9 C 87 % 1024,2 hPa 0,0 l/m 0,0 km/h (0 Bft) S-SW 207 2 min 0,000 mm 0,6 UV-I 294 W/m 0,4 C 2,3 C 0,0 km/h (0 Bft) 96,23 %
07.12.2017 13:16 2,4 C 3,9 C 86 % 1024,2 hPa 0,0 l/m 1,8 km/h (1 Bft) S-SW 207 2 min 0,000 mm 0,6 UV-I 291 W/m 0,3 C 2,4 C 4,8 km/h (1 Bft) 97,87 %
07.12.2017 13:18 2,4 C 3,9 C 86 % 1024,2 hPa 0,0 l/m 2,3 km/h (1 Bft) S-SW 207 2 min 0,000 mm 0,6 UV-I 287 W/m 0,3 C 2,4 C 3,2 km/h (1 Bft) 98,11 %
07.12.2017 13:20 2,4 C 3,9 C 86 % 1024,2 hPa 0,0 l/m 2,7 km/h (1 Bft) S-SW 207 2 min 0,000 mm 0,6 UV-I 281 W/m 0,3 C 2,4 C 4,8 km/h (1 Bft) 97,56 %
07.12.2017 13:22 2,5 C 3,9 C 86 % 1024,2 hPa 0,0 l/m 1,8 km/h (1 Bft) S-SW 207 2 min 0,000 mm 0,5 UV-I 277 W/m 0,4 C 2,5 C 3,2 km/h (1 Bft) 100,00 %
07.12.2017 13:24 2,7 C 3,9 C 87 % 1024,2 hPa 0,0 l/m 0,2 km/h (0 Bft) S-SW 207 2 min 0,000 mm 0,5 UV-I 277 W/m 0,8 C 2,7 C 1,6 km/h (1 Bft) 100,00 %
07.12.2017 13:26 2,8 C 3,9 C 86 % 1024,1 hPa 0,0 l/m 0,4 km/h (0 Bft) S-SW 207 2 min 0,000 mm 0,5 UV-I 276 W/m 0,7 C 2,8 C 1,6 km/h (1 Bft) 100,00 %
07.12.2017 13:28 2,8 C 3,9 C 85 % 1024,1 hPa 0,0 l/m 0,9 km/h (0 Bft) S-SW 207 2 min 0,000 mm 0,5 UV-I 274 W/m 0,5 C 2,8 C 3,2 km/h (1 Bft) 100,00 %
07.12.2017 13:30 2,7 C 3,9 C 85 % 1024,0 hPa 0,0 l/m 2,1 km/h (1 Bft) S-SW 207 2 min 0,000 mm 0,5 UV-I 273 W/m 0,4 C 2,7 C 4,8 km/h (1 Bft) 100,00 %
07.12.2017 13:32 2,9 C 3,9 C 86 % 1024,0 hPa 0,0 l/m 1,4 km/h (1 Bft) S-SW 207 2 min 0,000 mm 0,5 UV-I 270 W/m 0,8 C 2,9 C 3,2 km/h (1 Bft) 100,00 %
07.12.2017 13:34 2,9 C 3,9 C 85 % 1024,0 hPa 0,0 l/m 0,9 km/h (0 Bft) S-SW 208 2 min 0,000 mm 0,5 UV-I 266 W/m 0,6 C 2,9 C 3,2 km/h (1 Bft) 97,87 %
07.12.2017 13:36 2,9 C 3,9 C 85 % 1024,0 hPa 0,0 l/m 3,2 km/h (1 Bft) SW 215 2 min 0,000 mm 0,5 UV-I 262 W/m 0,6 C 2,9 C 4,8 km/h (1 Bft) 100,00 %
07.12.2017 13:38 3,0 C 3,9 C 84 % 1023,9 hPa 0,0 l/m 2,9 km/h (1 Bft) SW 215 2 min 0,000 mm 0,5 UV-I 260 W/m 0,6 C 3,0 C 4,8 km/h (1 Bft) 100,00 %
07.12.2017 13:40 2,9 C 3,9 C 84 % 1023,9 hPa 0,0 l/m 1,4 km/h (1 Bft) SW 215 2 min 0,000 mm 0,5 UV-I 254 W/m 0,5 C 2,9 C 3,2 km/h (1 Bft) 100,00 %
07.12.2017 13:42 2,8 C 3,9 C 85 % 1023,9 hPa 0,0 l/m 0,3 km/h (0 Bft) SW 215 2 min 0,000 mm 0,5 UV-I 251 W/m 0,5 C 2,8 C 1,6 km/h (1 Bft) 98,00 %
07.12.2017 13:44 2,8 C 3,9 C 85 % 1023,9 hPa 0,0 l/m 0,8 km/h (0 Bft) SW 215 2 min 0,000 mm 0,5 UV-I 251 W/m 0,5 C 2,8 C 1,6 km/h (1 Bft) 97,56 %
07.12.2017 13:46 2,9 C 3,9 C 86 % 1023,8 hPa 0,0 l/m 1,9 km/h (1 Bft) S-SW 212 2 min 0,000 mm 0,0 UV-I 248 W/m 0,8 C 2,9 C 3,2 km/h (1 Bft) 98,00 %
07.12.2017 13:48 3,0 C 3,9 C 86 % 1023,8 hPa 0,0 l/m 2,4 km/h (1 Bft) S-SW 212 2 min 0,000 mm 0,0 UV-I 245 W/m 0,9 C 3,0 C 4,8 km/h (1 Bft) 97,87 %
07.12.2017 13:50 3,1 C 3,9 C 85 % 1023,7 hPa 0,0 l/m 2,8 km/h (1 Bft) S-SW 212 2 min 0,000 mm 0,0 UV-I 242 W/m 0,8 C 3,1 C 4,8 km/h (1 Bft) 97,87 %
07.12.2017 13:52 3,0 C 3,9 C 84 % 1023,7 hPa 0,0 l/m 0,3 km/h (0 Bft) S-SW 212 2 min 0,000 mm 0,0 UV-I 238 W/m 0,6 C 3,0 C 1,6 km/h (1 Bft) 96,00 %
07.12.2017 13:54 3,0 C 3,9 C 85 % 1023,6 hPa 0,0 l/m 1,2 km/h (1 Bft) S-SW 212 2 min 0,000 mm 0,0 UV-I 235 W/m 0,7 C 3,0 C 4,8 km/h (1 Bft) 97,56 %
07.12.2017 13:56 3,1 C 3,9 C 85 % 1023,6 hPa 0,0 l/m 3,8 km/h (1 Bft) O-NO 63 2 min 0,000 mm 0,0 UV-I 232 W/m 0,8 C 3,1 C 4,8 km/h (1 Bft) 97,87 %
07.12.2017 13:58 3,1 C 3,9 C 86 % 1023,7 hPa 0,0 l/m 3,5 km/h (1 Bft) O-NO 63 2 min 0,000 mm 0,0 UV-I 227 W/m 1,0 C 3,1 C 4,8 km/h (1 Bft) 96,23 %
07.12.2017 14:00 3,1 C 3,9 C 86 % 1023,7 hPa 0,0 l/m 3,1 km/h (1 Bft) O-NO 63 2 min 0,102 mm 0,0 UV-I 224 W/m 1,0 C 3,1 C 4,8 km/h (1 Bft) 97,37 %
07.12.2017 14:02 2,9 C 3,9 C 85 % 1023,7 hPa 0,0 l/m 1,0 km/h (0 Bft) O-NO 63 2 min 0,000 mm 0,0 UV-I 221 W/m 0,6 C 2,9 C 3,2 km/h (1 Bft) 97,87 %
07.12.2017 14:04 3,0 C 3,9 C 87 % 1023,6 hPa 0,0 l/m 0,2 km/h (0 Bft) O-NO 63 2 min 0,000 mm 0,0 UV-I 217 W/m 1,1 C 3,0 C 1,6 km/h (1 Bft) 98,11 %
07.12.2017 14:06 3,1 C 3,9 C 86 % 1023,6 hPa 0,0 l/m 2,6 km/h (1 Bft) N 10 2 min 0,000 mm 0,0 UV-I 213 W/m 1,0 C 3,1 C 4,8 km/h (1 Bft) 100,00 %
07.12.2017 14:08 3,1 C 3,9 C 86 % 1023,5 hPa 0,0 l/m 2,5 km/h (1 Bft) N-NO 15 2 min 0,000 mm 0,0 UV-I 211 W/m 1,0 C 3,1 C 4,8 km/h (1 Bft) 98,00 %
07.12.2017 14:10 3,0 C 3,9 C 86 % 1023,5 hPa 0,0 l/m 3,5 km/h (1 Bft) N-NO 15 2 min 0,000 mm 0,0 UV-I 207 W/m 0,9 C 3,0 C 4,8 km/h (1 Bft) 100,00 %
07.12.2017 14:12 3,1 C 3,9 C 87 % 1023,4 hPa 0,0 l/m 2,1 km/h (1 Bft) N 11 2 min 0,000 mm 0,0 UV-I 201 W/m 1,2 C 3,1 C 3,2 km/h (1 Bft) 100,00 %
07.12.2017 14:14 3,2 C 3,9 C 87 % 1023,4 hPa 0,0 l/m 0,8 km/h (0 Bft) N 11 2 min 0,000 mm 0,0 UV-I 201 W/m 1,2 C 3,2 C 3,2 km/h (1 Bft) 98,39 %
07.12.2017 14:16 3,1 C 3,9 C 86 % 1023,4 hPa 0,0 l/m 0,7 km/h (0 Bft) N 11 2 min 0,000 mm 0,0 UV-I 197 W/m 1,0 C 3,1 C 1,6 km/h (1 Bft) 100,00 %
07.12.2017 14:18 3,1 C 3,9 C 86 % 1023,4 hPa 0,0 l/m 0,4 km/h (0 Bft) N 11 2 min 0,000 mm 0,0 UV-I 193 W/m 1,0 C 3,1 C 1,6 km/h (1 Bft) 100,00 %
07.12.2017 14:20 3,2 C 3,9 C 86 % 1023,3 hPa 0,0 l/m 1,5 km/h (1 Bft) N 10 2 min 0,000 mm 0,0 UV-I 192 W/m 1,1 C 3,2 C 4,8 km/h (1 Bft) 100,00 %
07.12.2017 14:22 3,1 C 3,9 C 86 % 1023,3 hPa 0,0 l/m 3,9 km/h (1 Bft) N-NO 22 2 min 0,000 mm 0,0 UV-I 188 W/m 1,0 C 3,1 C 6,4 km/h (2 Bft) 100,00 %
07.12.2017 14:24 3,0 C 3,9 C 86 % 1023,3 hPa 0,0 l/m 3,3 km/h (1 Bft) N-NO 22 2 min 0,000 mm 0,0 UV-I 184 W/m 0,9 C 3,0 C 4,8 km/h (1 Bft) 98,00 %
07.12.2017 14:26 2,9 C 3,9 C 86 % 1023,3 hPa 0,0 l/m 3,1 km/h (1 Bft) N-NO 22 2 min 0,000 mm 0,0 UV-I 181 W/m 0,8 C 2,9 C 4,8 km/h (1 Bft) 100,00 %
07.12.2017 14:28 2,9 C 3,9 C 87 % 1023,2 hPa 0,0 l/m 3,5 km/h (1 Bft) N-NO 26 2 min 0,000 mm 0,0 UV-I 176 W/m 1,0 C 2,9 C 6,4 km/h (2 Bft) 100,00 %
07.12.2017 14:30 2,9 C 3,9 C 86 % 1023,2 hPa 0,0 l/m 2,4 km/h (1 Bft) N-NO 26 2 min 0,000 mm 0,0 UV-I 173 W/m 0,8 C 2,9 C 3,2 km/h (1 Bft) 100,00 %
07.12.2017 14:32 2,9 C 3,9 C 86 % 1023,2 hPa 0,0 l/m 2,6 km/h (1 Bft) N-NO 26 2 min 0,000 mm 0,0 UV-I 168 W/m 0,8 C 2,9 C 3,2 km/h (1 Bft) 100,00 %
07.12.2017 14:34 2,9 C 3,9 C 87 % 1023,3 hPa 0,0 l/m 0,8 km/h (0 Bft) N-NO 26 2 min 0,000 mm 0,0 UV-I 161 W/m 1,0 C 2,9 C 1,6 km/h (1 Bft) 97,87 %
07.12.2017 14:36 2,9 C 3,9 C 86 % 1023,2 hPa 0,0 l/m 0,0 km/h (0 Bft) N-NO 26 2 min 0,000 mm 0,0 UV-I 160 W/m 0,8 C 2,9 C 0,0 km/h (0 Bft) 100,00 %
07.12.2017 14:38 2,9 C 3,9 C 87 % 1023,2 hPa 0,0 l/m 0,3 km/h (0 Bft) N-NO 26 2 min 0,000 mm 0,0 UV-I 154 W/m 1,0 C 2,9 C 3,2 km/h (1 Bft) 100,00 %
07.12.2017 14:40 2,9 C 3,9 C 87 % 1023,2 hPa 0,0 l/m 0,1 km/h (0 Bft) N-NO 26 2 min 0,000 mm 0,0 UV-I 152 W/m 1,0 C 2,9 C 1,6 km/h (1 Bft) 100,00 %
07.12.2017 14:42 2,8 C 3,9 C 87 % 1023,1 hPa 0,0 l/m 0,4 km/h (0 Bft) N-NO 26 2 min 0,000 mm 0,0 UV-I 149 W/m 0,9 C 2,8 C 1,6 km/h (1 Bft) 98,21 %
07.12.2017 14:44 2,7 C 3,9 C 87 % 1023,2 hPa 0,0 l/m 1,0 km/h (0 Bft) N-NO 26 2 min 0,000 mm 0,0 UV-I 146 W/m 0,8 C 2,7 C 3,2 km/h (1 Bft) 100,00 %
07.12.2017 14:46 2,7 C 3,9 C 87 % 1023,1 hPa 0,0 l/m 2,8 km/h (1 Bft) N-NO 26 2 min 0,000 mm 0,0 UV-I 142 W/m 0,8 C 2,7 C 4,8 km/h (1 Bft) 100,00 %
07.12.2017 14:48 2,7 C 3,9 C 88 % 1023,2 hPa 0,0 l/m 3,9 km/h (1 Bft) N-NO 26 2 min 0,000 mm 0,0 UV-I 139 W/m 0,9 C 2,7 C 4,8 km/h (1 Bft) 100,00 %
07.12.2017 14:50 2,7 C 3,9 C 89 % 1023,1 hPa 0,0 l/m 0,1 km/h (0 Bft) N-NO 26 2 min 0,000 mm 0,0 UV-I 135 W/m 1,1 C 2,7 C 1,6 km/h (1 Bft) 98,00 %
07.12.2017 14:52 2,6 C 3,9 C 88 % 1023,1 hPa 0,0 l/m 0,4 km/h (0 Bft) N-NO 26 2 min 0,000 mm 0,0 UV-I 131 W/m 0,8 C 2,6 C 1,6 km/h (1 Bft) 97,87 %
07.12.2017 14:54 2,4 C 3,9 C 88 % 1023,1 hPa 0,0 l/m 0,3 km/h (0 Bft) N-NO 26 2 min 0,000 mm 0,0 UV-I 128 W/m 0,6 C 2,4 C 1,6 km/h (1 Bft) 100,00 %
07.12.2017 14:56 2,4 C 3,9 C 88 % 1023,1 hPa 0,0 l/m 0,4 km/h (0 Bft) N-NO 26 2 min 0,000 mm 0,0 UV-I 124 W/m 0,6 C 2,4 C 1,6 km/h (1 Bft) 100,00 %
07.12.2017 14:58 2,4 C 3,9 C 88 % 1023,1 hPa 0,0 l/m 0,2 km/h (0 Bft) N-NO 26 2 min 0,000 mm 0,0 UV-I 120 W/m 0,6 C 2,4 C 1,6 km/h (1 Bft) 97,56 %
07.12.2017 15:00 2,4 C 3,9 C 89 % 1023,1 hPa 0,0 l/m 2,4 km/h (1 Bft) N-NO 26 2 min 0,076 mm 0,0 UV-I 117 W/m 0,8 C 2,4 C 4,8 km/h (1 Bft) 100,00 %
07.12.2017 15:02 2,4 C 3,9 C 89 % 1023,0 hPa 0,0 l/m 5,4 km/h (1 Bft) NO 40 2 min 0,000 mm 0,0 UV-I 115 W/m 0,8 C 2,4 C 6,4 km/h (2 Bft) 100,00 %
07.12.2017 15:04 2,4 C 3,9 C 89 % 1022,9 hPa 0,0 l/m 5,1 km/h (1 Bft) N-NO 25 2 min 0,000 mm 0,0 UV-I 110 W/m 0,8 C 2,4 C 8,0 km/h (2 Bft) 100,00 %
07.12.2017 15:06 2,3 C 3,9 C 89 % 1022,9 hPa 0,0 l/m 4,3 km/h (1 Bft) N-NO 20 2 min 0,000 mm 0,0 UV-I 107 W/m 0,7 C 2,3 C 6,4 km/h (2 Bft) 97,37 %
07.12.2017 15:08 2,3 C 3,9 C 89 % 1022,8 hPa 0,0 l/m 5,0 km/h (1 Bft) NO 35 2 min 0,000 mm 0,0 UV-I 102 W/m 0,7 C 2,3 C 8,0 km/h (2 Bft) 98,18 %
07.12.2017 15:10 2,2 C 3,9 C 89 % 1022,8 hPa 0,0 l/m 3,5 km/h (1 Bft) NO 34 2 min 0,000 mm 0,0 UV-I 99 W/m 0,6 C 2,2 C 6,4 km/h (2 Bft) 100,00 %
07.12.2017 15:12 2,2 C 3,9 C 90 % 1022,7 hPa 0,0 l/m 7,7 km/h (2 Bft) NO 52 2 min 0,000 mm 0,0 UV-I 96 W/m 0,7 C 0,9 C 9,7 km/h (2 Bft) 97,14 %
07.12.2017 15:14 2,2 C 3,9 C 89 % 1022,9 hPa 0,0 l/m 2,5 km/h (1 Bft) NO 51 2 min 0,000 mm 0,0 UV-I 91 W/m 0,6 C 2,2 C 6,4 km/h (2 Bft) 100,00 %
07.12.2017 15:16 2,2 C 3,9 C 90 % 1022,8 hPa 0,0 l/m 3,4 km/h (1 Bft) NO 51 2 min 0,000 mm 0,0 UV-I 87 W/m 0,7 C 2,2 C 8,0 km/h (2 Bft) 100,00 %
07.12.2017 15:18 2,2 C 3,9 C 89 % 1023,0 hPa 0,0 l/m 3,4 km/h (1 Bft) N-NO 15 2 min 0,000 mm 0,0 UV-I 83 W/m 0,6 C 2,2 C 8,0 km/h (2 Bft) 100,00 %
07.12.2017 15:20 2,2 C 3,9 C 90 % 1022,8 hPa 0,0 l/m 1,7 km/h (1 Bft) NO 40 2 min 0,000 mm 0,0 UV-I 80 W/m 0,7 C 2,2 C 4,8 km/h (1 Bft) 98,00 %
07.12.2017 15:22 2,2 C 3,9 C 89 % 1022,8 hPa 0,0 l/m 2,9 km/h (1 Bft) N 355 2 min 0,000 mm 0,0 UV-I 76 W/m 0,6 C 2,2 C 4,8 km/h (1 Bft) 100,00 %
07.12.2017 15:24 2,2 C 3,9 C 89 % 1022,9 hPa 0,0 l/m 2,1 km/h (1 Bft) NO 51 2 min 0,000 mm 0,0 UV-I 73 W/m 0,6 C 2,2 C 8,0 km/h (2 Bft) 100,00 %
07.12.2017 15:26 2,2 C 3,9 C 89 % 1022,7 hPa 0,0 l/m 4,1 km/h (1 Bft) NW 316 2 min 0,000 mm 0,0 UV-I 68 W/m 0,6 C 2,2 C 8,0 km/h (2 Bft) 100,00 %
07.12.2017 15:28 2,2 C 3,9 C 89 % 1022,7 hPa 0,0 l/m 1,4 km/h (1 Bft) NW 313 2 min 0,000 mm 0,0 UV-I 65 W/m 0,6 C 2,2 C 3,2 km/h (1 Bft) 100,00 %
07.12.2017 15:30 2,1 C 3,9 C 90 % 1022,7 hPa 0,0 l/m 1,6 km/h (1 Bft) NW 313 2 min 0,000 mm 0,0 UV-I 61 W/m 0,6 C 2,1 C 3,2 km/h (1 Bft) 100,00 %
07.12.2017 15:32 2,1 C 3,9 C 90 % 1022,8 hPa 0,0 l/m 0,7 km/h (0 Bft) NW 313 2 min 0,000 mm 0,0 UV-I 56 W/m 0,6 C 2,1 C 1,6 km/h (1 Bft) 100,00 %
07.12.2017 15:34 2,0 C 3,9 C 90 % 1022,7 hPa 0,0 l/m 4,1 km/h (1 Bft) NW 326 2 min 0,000 mm 0,0 UV-I 54 W/m 0,5 C 2,0 C 6,4 km/h (2 Bft) 100,00 %
07.12.2017 15:36 1,9 C 3,9 C 90 % 1022,8 hPa 0,0 l/m 1,9 km/h (1 Bft) NW 326 2 min 0,000 mm 0,0 UV-I 50 W/m 0,4 C 1,9 C 4,8 km/h (1 Bft) 97,87 %
07.12.2017 15:38 1,8 C 3,9 C 90 % 1022,7 hPa 0,0 l/m 0,9 km/h (0 Bft) NW 326 2 min 0,000 mm 0,0 UV-I 48 W/m 0,3 C 1,8 C 3,2 km/h (1 Bft) 97,87 %
07.12.2017 15:40 1,8 C 3,9 C 90 % 1022,6 hPa 0,0 l/m 1,0 km/h (0 Bft) NW 326 2 min 0,000 mm 0,0 UV-I 44 W/m 0,3 C 1,8 C 4,8 km/h (1 Bft) 97,37 %
07.12.2017 15:42 1,8 C 3,9 C 90 % 1022,7 hPa 0,0 l/m 1,8 km/h (1 Bft) N-NW 330 2 min 0,000 mm 0,0 UV-I 40 W/m 0,3 C 1,8 C 6,4 km/h (2 Bft) 100,00 %
07.12.2017 15:44 1,7 C 3,9 C 90 % 1022,6 hPa 0,0 l/m 4,6 km/h (1 Bft) N-NO 20 2 min 0,000 mm 0,0 UV-I 37 W/m 0,2 C 1,7 C 6,4 km/h (2 Bft) 100,00 %
07.12.2017 15:46 1,7 C 3,9 C 90 % 1022,5 hPa 0,0 l/m 5,2 km/h (1 Bft) N-NO 30 2 min 0,000 mm 0,0 UV-I 34 W/m 0,2 C 1,7 C 6,4 km/h (2 Bft) 100,00 %
07.12.2017 15:48 1,6 C 3,9 C 90 % 1022,6 hPa 0,0 l/m 3,8 km/h (1 Bft) N-NO 30 2 min 0,000 mm 0,0 UV-I 32 W/m 0,1 C 1,6 C 4,8 km/h (1 Bft) 97,37 %
07.12.2017 15:50 1,6 C 3,9 C 90 % 1022,4 hPa 0,0 l/m 5,3 km/h (1 Bft) N-NO 31 2 min 0,000 mm 0,0 UV-I 28 W/m 0,1 C 1,6 C 6,4 km/h (2 Bft) 100,00 %
07.12.2017 15:52 1,6 C 3,9 C 90 % 1022,5 hPa 0,0 l/m 3,3 km/h (1 Bft) N-NO 31 2 min 0,000 mm 0,0 UV-I 26 W/m 0,1 C 1,6 C 6,4 km/h (2 Bft) 100,00 %
07.12.2017 15:54 1,4 C 3,9 C 90 % 1022,5 hPa 0,0 l/m 4,4 km/h (1 Bft) N-NO 31 2 min 0,000 mm 0,0 UV-I 24 W/m -0,1 C 1,4 C 6,4 km/h (2 Bft) 100,00 %
07.12.2017 15:56 1,4 C 3,9 C 91 % 1022,5 hPa 0,0 l/m 3,5 km/h (1 Bft) N-NO 31 2 min 0,000 mm 0,0 UV-I 22 W/m 0,1 C 1,4 C 4,8 km/h (1 Bft) 96,23 %
07.12.2017 15:58 1,4 C 3,9 C 91 % 1022,5 hPa 0,0 l/m 4,8 km/h (1 Bft) N-NO 31 0 min 0,000 mm 0,0 UV-I 19 W/m 0,1 C 1,4 C 6,4 km/h (2 Bft) 97,87 %
07.12.2017 16:00 1,3 C 3,9 C 91 % 1022,4 hPa 0,0 l/m 3,9 km/h (1 Bft) N-NO 31 0 min 0,025 mm 0,0 UV-I 18 W/m -0,0 C 1,3 C 6,4 km/h (2 Bft) 97,87 %
07.12.2017 16:02 1,3 C 3,9 C 91 % 1022,3 hPa 0,0 l/m 3,6 km/h (1 Bft) N-NO 31 0 min 0,000 mm 0,0 UV-I 16 W/m -0,0 C 1,3 C 6,4 km/h (2 Bft) 95,74 %
07.12.2017 16:04 1,2 C 3,9 C 91 % 1022,3 hPa 0,0 l/m 4,3 km/h (1 Bft) N-NO 31 0 min 0,000 mm 0,0 UV-I 12 W/m -0,1 C 1,2 C 6,4 km/h (2 Bft) 98,00 %
07.12.2017 16:06 1,2 C 3,9 C 91 % 1022,2 hPa 0,0 l/m 4,3 km/h (1 Bft) N-NO 31 0 min 0,000 mm 0,0 UV-I 11 W/m -0,1 C 1,2 C 6,4 km/h (2 Bft) 97,37 %
07.12.2017 16:08 1,2 C 3,9 C 91 % 1022,2 hPa 0,0 l/m 2,7 km/h (1 Bft) N-NO 31 0 min 0,000 mm 0,0 UV-I 11 W/m -0,1 C 1,2 C 4,8 km/h (1 Bft) 98,00 %
07.12.2017 16:10 1,2 C 3,9 C 91 % 1022,3 hPa 0,0 l/m 1,2 km/h (1 Bft) N-NO 31 0 min 0,000 mm 0,0 UV-I 9 W/m -0,1 C 1,2 C 3,2 km/h (1 Bft) 96,00 %
07.12.2017 16:12 1,1 C 3,9 C 91 % 1022,2 hPa 0,0 l/m 2,1 km/h (1 Bft) N-NO 31 0 min 0,000 mm 0,0 UV-I 9 W/m -0,2 C 1,1 C 3,2 km/h (1 Bft) 97,44 %
07.12.2017 16:14 1,0 C 3,9 C 91 % 1022,1 hPa 0,0 l/m 3,8 km/h (1 Bft) N-NO 31 0 min 0,000 mm 0,0 UV-I 9 W/m -0,3 C 1,0 C 4,8 km/h (1 Bft) 97,87 %
07.12.2017 16:16 0,8 C 3,9 C 91 % 1022,1 hPa 0,0 l/m 3,2 km/h (1 Bft) N-NO 31 0 min 0,000 mm 0,0 UV-I 7 W/m -0,5 C 0,8 C 4,8 km/h (1 Bft) 96,00 %
07.12.2017 16:18 0,8 C 3,9 C 92 % 1022,1 hPa 0,0 l/m 3,3 km/h (1 Bft) N-NO 31 0 min 0,000 mm 0,0 UV-I 7 W/m -0,3 C 0,8 C 4,8 km/h (1 Bft) 98,00 %
07.12.2017 16:20 0,8 C 3,9 C 92 % 1022,1 hPa 0,0 l/m 2,0 km/h (1 Bft) N-NO 31 0 min 0,000 mm 0,0 UV-I 7 W/m -0,3 C 0,8 C 3,2 km/h (1 Bft) 96,00 %
07.12.2017 16:22 0,9 C 3,9 C 92 % 1022,0 hPa 0,0 l/m 2,3 km/h (1 Bft) N-NO 31 0 min 0,000 mm 0,0 UV-I 5 W/m -0,2 C 0,9 C 3,2 km/h (1 Bft) 97,37 %
07.12.2017 16:24 0,9 C 3,9 C 92 % 1022,0 hPa 0,0 l/m 1,8 km/h (1 Bft) N-NO 31 0 min 0,000 mm 0,0 UV-I 5 W/m -0,2 C 0,9 C 3,2 km/h (1 Bft) 98,00 %
07.12.2017 16:26 0,8 C 3,9 C 92 % 1022,0 hPa 0,0 l/m 1,6 km/h (1 Bft) N-NO 31 0 min 0,000 mm 0,0 UV-I 5 W/m -0,3 C 0,8 C 3,2 km/h (1 Bft) 94,00 %
07.12.2017 16:28 0,8 C 3,9 C 92 % 1021,9 hPa 0,0 l/m 2,9 km/h (1 Bft) N-NO 31 0 min 0,000 mm 0,0 UV-I 5 W/m -0,3 C 0,8 C 3,2 km/h (1 Bft) 96,00 %
07.12.2017 16:30 0,8 C 3,9 C 92 % 1021,9 hPa 0,0 l/m 3,3 km/h (1 Bft) N-NO 31 0 min 0,000 mm 0,0 UV-I 4 W/m -0,3 C 0,8 C 4,8 km/h (1 Bft) 97,56 %
07.12.2017 16:32 0,8 C 3,9 C 92 % 1021,9 hPa 0,0 l/m 2,7 km/h (1 Bft) N-NO 31 0 min 0,000 mm 0,0 UV-I 0 W/m -0,3 C 0,8 C 3,2 km/h (1 Bft) 96,00 %
07.12.2017 16:34 0,7 C 3,9 C 92 % 1021,9 hPa 0,0 l/m 2,0 km/h (1 Bft) N-NO 31 0 min 0,000 mm 0,0 UV-I 0 W/m -0,4 C 0,7 C 3,2 km/h (1 Bft) 96,00 %
07.12.2017 16:36 0,5 C 3,9 C 92 % 1021,9 hPa 0,0 l/m 0,9 km/h (0 Bft) N-NO 31 0 min 0,000 mm 0,0 UV-I 0 W/m -0,6 C 0,5 C 1,6 km/h (1 Bft) 94,74 %
07.12.2017 16:38 0,2 C 3,9 C 92 % 1021,9 hPa 0,0 l/m 1,8 km/h (1 Bft) N-NO 31 0 min 0,000 mm 0,0 UV-I 0 W/m -0,9 C 0,2 C 3,2 km/h (1 Bft) 96,23 %
07.12.2017 16:40 0,0 C 3,9 C 92 % 1021,8 hPa 0,0 l/m 2,2 km/h (1 Bft) N-NO 31 0 min 0,000 mm 0,0 UV-I 0 W/m -1,1 C 0,0 C 3,2 km/h (1 Bft) 95,12 %
07.12.2017 16:42 -0,2 C 3,9 C 93 % 1021,8 hPa 0,0 l/m 1,6 km/h (1 Bft) N-NO 31 0 min 0,000 mm 0,0 UV-I 0 W/m -1,2 C -0,2 C 3,2 km/h (1 Bft) 94,34 %
07.12.2017 16:44 -0,2 C 3,9 C 94 % 1021,8 hPa 0,0 l/m 1,6 km/h (1 Bft) N-NO 31 0 min 0,000 mm 0,0 UV-I 0 W/m -1,0 C -0,2 C 3,2 km/h (1 Bft) 95,12 %
07.12.2017 16:46 -0,2 C 3,9 C 94 % 1021,7 hPa 0,0 l/m 3,1 km/h (1 Bft) N-NO 31 0 min 0,000 mm 0,0 UV-I 0 W/m -1,0 C -0,2 C 4,8 km/h (1 Bft) 95,74 %
07.12.2017 16:48 -0,3 C 3,9 C 94 % 1021,6 hPa 0,0 l/m 3,9 km/h (1 Bft) N-NO 31 0 min 0,000 mm 0,0 UV-I 0 W/m -1,1 C -0,3 C 4,8 km/h (1 Bft) 94,00 %
07.12.2017 16:50 -0,3 C 3,9 C 94 % 1021,6 hPa 0,0 l/m 4,2 km/h (1 Bft) N-NO 31 0 min 0,000 mm 0,0 UV-I 0 W/m -1,1 C -0,3 C 4,8 km/h (1 Bft) 95,83 %
07.12.2017 16:52 -0,5 C 3,9 C 93 % 1021,5 hPa 0,0 l/m 2,9 km/h (1 Bft) N-NO 31 0 min 0,000 mm 0,0 UV-I 0 W/m -1,5 C -0,5 C 4,8 km/h (1 Bft) 92,11 %
07.12.2017 16:54 -0,7 C 3,9 C 94 % 1021,5 hPa 0,0 l/m 4,6 km/h (1 Bft) N-NO 32 0 min 0,000 mm 0,0 UV-I 0 W/m -1,5 C -0,7 C 4,8 km/h (1 Bft) 96,43 %
07.12.2017 16:56 -0,7 C 3,9 C 94 % 1021,5 hPa 0,0 l/m 4,6 km/h (1 Bft) N-NO 32 0 min 0,000 mm 0,0 UV-I 0 W/m -1,5 C -0,7 C 4,8 km/h (1 Bft) 96,00 %
07.12.2017 16:58 -0,8 C 3,9 C 94 % 1021,5 hPa 0,0 l/m 3,6 km/h (1 Bft) N-NO 32 0 min 0,000 mm 0,0 UV-I 0 W/m -1,6 C -0,8 C 4,8 km/h (1 Bft) 97,56 %
07.12.2017 17:00 -0,7 C 3,9 C 94 % 1021,5 hPa 0,0 l/m 2,5 km/h (1 Bft) N-NO 32 0 min 0,000 mm 0,0 UV-I 0 W/m -1,5 C -0,7 C 3,2 km/h (1 Bft) 96,00 %
07.12.2017 17:02 -0,7 C 3,9 C 95 % 1021,5 hPa 0,0 l/m 1,7 km/h (1 Bft) N-NO 32 0 min 0,000 mm 0,0 UV-I 0 W/m -1,4 C -0,7 C 3,2 km/h (1 Bft) 98,00 %
07.12.2017 17:04 -0,7 C 3,9 C 95 % 1021,4 hPa 0,0 l/m 0,1 km/h (0 Bft) N-NO 32 0 min 0,000 mm 0,0 UV-I 0 W/m -1,4 C -0,7 C 1,6 km/h (1 Bft) 95,12 %
07.12.2017 17:06 -0,6 C 3,9 C 95 % 1021,4 hPa 0,0 l/m 0,0 km/h (0 Bft) N-NO 32 0 min 0,000 mm 0,0 UV-I 0 W/m -1,3 C -0,6 C 0,0 km/h (0 Bft) 98,00 %
07.12.2017 17:08 -0,6 C 3,9 C 95 % 1021,3 hPa 0,0 l/m 0,0 km/h (0 Bft) N-NO 32 0 min 0,000 mm 0,0 UV-I 0 W/m -1,3 C -0,6 C 0,0 km/h (0 Bft) 97,37 %
07.12.2017 17:10 -0,6 C 3,9 C 95 % 1021,4 hPa 0,0 l/m 0,0 km/h (0 Bft) N-NO 32 0 min 0,000 mm 0,0 UV-I 0 W/m -1,3 C -0,6 C 0,0 km/h (0 Bft) 98,00 %
07.12.2017 17:12 -0,6 C 3,9 C 94 % 1021,3 hPa 0,0 l/m 0,0 km/h (0 Bft) N-NO 32 0 min 0,000 mm 0,0 UV-I 0 W/m -1,4 C -0,6 C 0,0 km/h (0 Bft) 97,73 %
07.12.2017 17:14 -0,6 C 3,9 C 95 % 1021,3 hPa 0,0 l/m 0,0 km/h (0 Bft) N-NO 32 0 min 0,000 mm 0,0 UV-I 0 W/m -1,3 C -0,6 C 0,0 km/h (0 Bft) 97,87 %
07.12.2017 17:16 -0,6 C 3,9 C 94 % 1021,3 hPa 0,0 l/m 0,0 km/h (0 Bft) N-NO 32 0 min 0,000 mm 0,0 UV-I 0 W/m -1,4 C -0,6 C 0,0 km/h (0 Bft) 96,00 %
07.12.2017 17:18 -0,6 C 3,9 C 95 % 1021,3 hPa 0,0 l/m 0,0 km/h (0 Bft) N-NO 32 0 min 0,000 mm 0,0 UV-I 0 W/m -1,3 C -0,6 C 0,0 km/h (0 Bft) 95,74 %
07.12.2017 17:20 -0,6 C 3,9 C 94 % 1021,3 hPa 0,0 l/m 1,3 km/h (1 Bft) N-NO 32 0 min 0,000 mm 0,0 UV-I 0 W/m -1,4 C -0,6 C 3,2 km/h (1 Bft) 97,87 %
07.12.2017 17:22 -0,7 C 3,9 C 94 % 1021,2 hPa 0,0 l/m 2,5 km/h (1 Bft) N-NO 32 0 min 0,000 mm 0,0 UV-I 0 W/m -1,5 C -0,7 C 3,2 km/h (1 Bft) 98,00 %
07.12.2017 17:24 -0,9 C 3,9 C 94 % 1021,2 hPa 0,0 l/m 2,9 km/h (1 Bft) N-NO 32 0 min 0,000 mm 0,0 UV-I 0 W/m -1,7 C -0,9 C 3,2 km/h (1 Bft) 100,00 %
07.12.2017 17:26 -0,9 C 3,9 C 94 % 1021,2 hPa 0,0 l/m 2,6 km/h (1 Bft) N-NO 32 0 min 0,000 mm 0,0 UV-I 0 W/m -1,7 C -0,9 C 3,2 km/h (1 Bft) 100,00 %
07.12.2017 17:28 -0,9 C 3,9 C 95 % 1021,2 hPa 0,0 l/m 1,9 km/h (1 Bft) N-NO 32 0 min 0,000 mm 0,0 UV-I 0 W/m -1,6 C -0,9 C 3,2 km/h (1 Bft) 98,11 %
07.12.2017 17:30 -0,7 C 3,9 C 95 % 1021,2 hPa 0,0 l/m 1,6 km/h (1 Bft) N-NO 32 0 min 0,000 mm 0,0 UV-I 0 W/m -1,4 C -0,7 C 3,2 km/h (1 Bft) 100,00 %
07.12.2017 17:32 -0,8 C 3,9 C 95 % 1021,2 hPa 0,0 l/m 1,1 km/h (1 Bft) N-NO 32 0 min 0,000 mm 0,0 UV-I 0 W/m -1,5 C -0,8 C 3,2 km/h (1 Bft) 98,11 %
07.12.2017 17:34 -0,8 C 3,9 C 95 % 1021,2 hPa 0,0 l/m 0,2 km/h (0 Bft) N-NO 32 0 min 0,000 mm 0,0 UV-I 0 W/m -1,5 C -0,8 C 1,6 km/h (1 Bft) 100,00 %
07.12.2017 17:36 -0,8 C 3,9 C 95 % 1021,2 hPa 0,0 l/m 0,3 km/h (0 Bft) N-NO 32 0 min 0,000 mm 0,0 UV-I 0 W/m -1,5 C -0,8 C 1,6 km/h (1 Bft) 98,00 %
07.12.2017 17:38 -0,7 C 3,9 C 95 % 1021,1 hPa 0,0 l/m 0,0 km/h (0 Bft) N-NO 32 0 min 0,000 mm 0,0 UV-I 0 W/m -1,4 C -0,7 C 0,0 km/h (0 Bft) 100,00 %
07.12.2017 17:40 -0,6 C 3,9 C 95 % 1021,1 hPa 0,0 l/m 0,0 km/h (0 Bft) N-NO 32 0 min 0,000 mm 0,0 UV-I 0 W/m -1,3 C -0,6 C 0,0 km/h (0 Bft) 100,00 %
07.12.2017 17:42 -0,6 C 3,9 C 95 % 1021,1 hPa 0,0 l/m 0,0 km/h (0 Bft) N-NO 32 0 min 0,000 mm 0,0 UV-I 0 W/m -1,3 C -0,6 C 0,0 km/h (0 Bft) 100,00 %
07.12.2017 17:44 -0,7 C 3,9 C 95 % 1021,1 hPa 0,0 l/m 0,0 km/h (0 Bft) N-NO 32 0 min 0,000 mm 0,0 UV-I 0 W/m -1,4 C -0,7 C 0,0 km/h (0 Bft) 100,00 %
07.12.2017 17:46 -0,8 C 3,9 C 94 % 1021,0 hPa 0,0 l/m 0,0 km/h (0 Bft) N-NO 32 0 min 0,000 mm 0,0 UV-I 0 W/m -1,6 C -0,8 C 0,0 km/h (0 Bft) 100,00 %
07.12.2017 17:48 -0,9 C 3,9 C 95 % 1021,0 hPa 0,0 l/m 1,5 km/h (1 Bft) N-NO 32 0 min 0,000 mm 0,0 UV-I 0 W/m -1,6 C -0,9 C 3,2 km/h (1 Bft) 100,00 %
07.12.2017 17:50 -0,9 C 3,9 C 95 % 1020,9 hPa 0,0 l/m 2,0 km/h (1 Bft) N-NO 32 0 min 0,000 mm 0,0 UV-I 0 W/m -1,6 C -0,9 C 3,2 km/h (1 Bft) 100,00 %
07.12.2017 17:52 -1,1 C 3,9 C 95 % 1021,0 hPa 0,0 l/m 2,0 km/h (1 Bft) N-NO 32 0 min 0,000 mm 0,0 UV-I 0 W/m -1,8 C -1,1 C 3,2 km/h (1 Bft) 100,00 %
07.12.2017 17:54 -1,1 C 3,9 C 95 % 1021,0 hPa 0,0 l/m 1,1 km/h (1 Bft) N-NO 32 0 min 0,000 mm 0,0 UV-I 0 W/m -1,8 C -1,1 C 1,6 km/h (1 Bft) 100,00 %
07.12.2017 17:56 -1,0 C 3,9 C 96 % 1021,0 hPa 0,0 l/m 1,6 km/h (1 Bft) N-NO 32 0 min 0,000 mm 0,0 UV-I 0 W/m -1,6 C -1,0 C 3,2 km/h (1 Bft) 100,00 %
07.12.2017 17:58 -1,0 C 3,9 C 95 % 1021,0 hPa 0,0 l/m 1,1 km/h (1 Bft) N-NO 32 0 min 0,000 mm 0,0 UV-I 0 W/m -1,7 C -1,0 C 3,2 km/h (1 Bft) 100,00 %
07.12.2017 18:00 -1,0 C 3,9 C 96 % 1020,9 hPa 0,0 l/m 0,4 km/h (0 Bft) N-NO 32 0 min 0,000 mm 0,0 UV-I 0 W/m -1,6 C -1,0 C 1,6 km/h (1 Bft) 100,00 %
07.12.2017 18:02 -1,0 C 3,9 C 96 % 1020,9 hPa 0,0 l/m 0,3 km/h (0 Bft) N-NO 32 0 min 0,000 mm 0,0 UV-I 0 W/m -1,6 C -1,0 C 1,6 km/h (1 Bft) 100,00 %
07.12.2017 18:04 -1,0 C 3,9 C 95 % 1020,9 hPa 0,0 l/m 0,1 km/h (0 Bft) N-NO 32 0 min 0,000 mm 0,0 UV-I 0 W/m -1,7 C -1,0 C 1,6 km/h (1 Bft) 100,00 %
07.12.2017 18:06 -1,0 C 3,9 C 95 % 1020,9 hPa 0,0 l/m 1,8 km/h (1 Bft) N-NO 32 0 min 0,000 mm 0,0 UV-I 0 W/m -1,7 C -1,0 C 3,2 km/h (1 Bft) 97,87 %
07.12.2017 18:08 -0,9 C 3,9 C 96 % 1020,9 hPa 0,0 l/m 2,0 km/h (1 Bft) N-NO 32 0 min 0,000 mm 0,0 UV-I 0 W/m -1,5 C -0,9 C 3,2 km/h (1 Bft) 97,87 %
07.12.2017 18:10 -0,9 C 3,9 C 96 % 1020,8 hPa 0,0 l/m 3,2 km/h (1 Bft) N-NO 32 0 min 0,000 mm 0,0 UV-I 0 W/m -1,5 C -0,9 C 4,8 km/h (1 Bft) 100,00 %
07.12.2017 18:12 -1,1 C 3,9 C 95 % 1020,9 hPa 0,0 l/m 2,6 km/h (1 Bft) N-NO 32 0 min 0,000 mm 0,0 UV-I 0 W/m -1,8 C -1,1 C 3,2 km/h (1 Bft) 100,00 %
07.12.2017 18:14 -1,1 C 3,9 C 96 % 1020,8 hPa 0,0 l/m 1,9 km/h (1 Bft) N-NO 32 0 min 0,000 mm 0,0 UV-I 0 W/m -1,7 C -1,1 C 3,2 km/h (1 Bft) 100,00 %
07.12.2017 18:16 -1,0 C 3,9 C 96 % 1020,8 hPa 0,0 l/m 2,7 km/h (1 Bft) N-NO 32 0 min 0,000 mm 0,0 UV-I 0 W/m -1,6 C -1,0 C 3,2 km/h (1 Bft) 100,00 %
07.12.2017 18:18 -1,0 C 3,9 C 96 % 1020,8 hPa 0,0 l/m 3,3 km/h (1 Bft) N-NO 32 0 min 0,000 mm 0,0 UV-I 0 W/m -1,6 C -1,0 C 4,8 km/h (1 Bft) 100,00 %
07.12.2017 18:20 -1,1 C 3,9 C 95 % 1020,7 hPa 0,0 l/m 3,1 km/h (1 Bft) N-NO 32 0 min 0,000 mm 0,0 UV-I 0 W/m -1,8 C -1,1 C 4,8 km/h (1 Bft) 100,00 %
07.12.2017 18:22 -1,1 C 3,9 C 96 % 1020,8 hPa 0,0 l/m 3,6 km/h (1 Bft) N-NO 32 0 min 0,000 mm 0,0 UV-I 0 W/m -1,7 C -1,1 C 4,8 km/h (1 Bft) 100,00 %
07.12.2017 18:24 -1,0 C 3,9 C 96 % 1020,6 hPa 0,0 l/m 3,7 km/h (1 Bft) N-NO 32 0 min 0,000 mm 0,0 UV-I 0 W/m -1,6 C -1,0 C 4,8 km/h (1 Bft) 100,00 %
07.12.2017 18:26 -1,0 C 3,9 C 96 % 1020,6 hPa 0,0 l/m 2,8 km/h (1 Bft) N-NO 32 0 min 0,000 mm 0,0 UV-I 0 W/m -1,6 C -1,0 C 4,8 km/h (1 Bft) 96,00 %
07.12.2017 18:28 -1,0 C 3,9 C 96 % 1020,7 hPa 0,0 l/m 2,5 km/h (1 Bft) N-NO 32 0 min 0,000 mm 0,0 UV-I 0 W/m -1,6 C -1,0 C 3,2 km/h (1 Bft) 100,00 %
07.12.2017 18:30 -0,9 C 3,9 C 96 % 1020,6 hPa 0,0 l/m 4,3 km/h (1 Bft) N-NO 32 0 min 0,000 mm 0,0 UV-I 0 W/m -1,5 C -0,9 C 6,4 km/h (2 Bft) 100,00 %
07.12.2017 18:32 -0,8 C 3,9 C 96 % 1020,6 hPa 0,0 l/m 0,6 km/h (0 Bft) N-NO 32 0 min 0,000 mm 0,0 UV-I 0 W/m -1,4 C -0,8 C 3,2 km/h (1 Bft) 98,00 %
07.12.2017 18:34 -0,9 C 3,9 C 96 % 1020,6 hPa 0,0 l/m 1,6 km/h (1 Bft) N-NO 32 0 min 0,000 mm 0,0 UV-I 0 W/m -1,5 C -0,9 C 3,2 km/h (1 Bft) 97,73 %
07.12.2017 18:36 -0,9 C 3,9 C 96 % 1020,6 hPa 0,0 l/m 0,4 km/h (0 Bft) N-NO 32 0 min 0,000 mm 0,0 UV-I 0 W/m -1,5 C -0,9 C 3,2 km/h (1 Bft) 97,87 %
07.12.2017 18:38 -1,0 C 3,9 C 96 % 1020,7 hPa 0,0 l/m 1,8 km/h (1 Bft) N-NO 32 0 min 0,000 mm 0,0 UV-I 0 W/m -1,6 C -1,0 C 3,2 km/h (1 Bft) 97,44 %
07.12.2017 18:40 -1,1 C 3,9 C 95 % 1020,6 hPa 0,0 l/m 0,7 km/h (0 Bft) N-NO 32 0 min 0,000 mm 0,0 UV-I 0 W/m -1,8 C -1,1 C 3,2 km/h (1 Bft) 98,36 %
07.12.2017 18:42 -1,2 C 3,9 C 95 % 1020,6 hPa 0,0 l/m 0,0 km/h (0 Bft) N-NO 32 0 min 0,000 mm 0,0 UV-I 0 W/m -1,9 C -1,2 C 1,6 km/h (1 Bft) 98,00 %
07.12.2017 18:44 -1,2 C 3,9 C 96 % 1020,5 hPa 0,0 l/m 1,4 km/h (1 Bft) N-NO 32 0 min 0,000 mm 0,0 UV-I 0 W/m -1,8 C -1,2 C 3,2 km/h (1 Bft) 97,87 %
07.12.2017 18:46 -1,2 C 3,9 C 96 % 1020,5 hPa 0,0 l/m 1,9 km/h (1 Bft) N-NO 32 0 min 0,000 mm 0,0 UV-I 0 W/m -1,8 C -1,2 C 3,2 km/h (1 Bft) 97,22 %
07.12.2017 18:48 -1,2 C 3,9 C 96 % 1020,5 hPa 0,0 l/m 0,3 km/h (0 Bft) N-NO 32 0 min 0,000 mm 0,0 UV-I 0 W/m -1,8 C -1,2 C 1,6 km/h (1 Bft) 96,36 %
07.12.2017 18:50 -1,3 C 3,9 C 96 % 1020,4 hPa 0,0 l/m 2,0 km/h (1 Bft) N-NO 32 0 min 0,000 mm 0,0 UV-I 0 W/m -1,9 C -1,3 C 3,2 km/h (1 Bft) 98,00 %
07.12.2017 18:52 -1,2 C 3,9 C 96 % 1020,4 hPa 0,0 l/m 2,1 km/h (1 Bft) N-NO 32 0 min 0,000 mm 0,0 UV-I 0 W/m -1,8 C -1,2 C 3,2 km/h (1 Bft) 97,44 %
07.12.2017 18:54 -1,1 C 3,9 C 96 % 1020,4 hPa 0,0 l/m 2,1 km/h (1 Bft) N-NO 32 0 min 0,000 mm 0,0 UV-I 0 W/m -1,7 C -1,1 C 3,2 km/h (1 Bft) 98,00 %
07.12.2017 18:56 -1,2 C 3,9 C 96 % 1020,4 hPa 0,0 l/m 1,6 km/h (1 Bft) N-NO 32 0 min 0,000 mm 0,0 UV-I 0 W/m -1,8 C -1,2 C 3,2 km/h (1 Bft) 95,74 %
07.12.2017 18:58 -1,2 C 3,9 C 96 % 1020,4 hPa 0,0 l/m 1,2 km/h (1 Bft) N-NO 32 0 min 0,000 mm 0,0 UV-I 0 W/m -1,8 C -1,2 C 3,2 km/h (1 Bft) 98,00 %
07.12.2017 19:00 -1,2 C 3,9 C 96 % 1020,4 hPa 0,0 l/m 3,1 km/h (1 Bft) N-NO 32 0 min 0,000 mm 0,0 UV-I 0 W/m -1,8 C -1,2 C 4,8 km/h (1 Bft) 97,37 %
07.12.2017 19:02 -1,3 C 3,9 C 96 % 1020,4 hPa 0,0 l/m 2,9 km/h (1 Bft) N-NO 32 0 min 0,000 mm 0,0 UV-I 0 W/m -1,9 C -1,3 C 4,8 km/h (1 Bft) 96,00 %
07.12.2017 19:04 -1,3 C 3,9 C 95 % 1020,4 hPa 0,0 l/m 2,4 km/h (1 Bft) N-NO 32 0 min 0,000 mm 0,0 UV-I 0 W/m -2,0 C -1,3 C 4,8 km/h (1 Bft) 96,23 %
07.12.2017 19:06 -1,3 C 3,9 C 96 % 1020,4 hPa 0,0 l/m 0,4 km/h (0 Bft) N-NO 32 0 min 0,000 mm 0,0 UV-I 0 W/m -1,9 C -1,3 C 1,6 km/h (1 Bft) 100,00 %
07.12.2017 19:08 -1,3 C 3,9 C 96 % 1020,4 hPa 0,0 l/m 0,7 km/h (0 Bft) N-NO 32 0 min 0,000 mm 0,0 UV-I 0 W/m -1,9 C -1,3 C 3,2 km/h (1 Bft) 95,74 %
07.12.2017 19:10 -1,4 C 3,9 C 96 % 1020,3 hPa 0,0 l/m 1,5 km/h (1 Bft) N-NO 32 0 min 0,000 mm 0,0 UV-I 0 W/m -2,0 C -1,4 C 3,2 km/h (1 Bft) 98,11 %
07.12.2017 19:12 -1,3 C 3,9 C 96 % 1020,3 hPa 0,0 l/m 1,4 km/h (1 Bft) N-NO 32 0 min 0,000 mm 0,0 UV-I 0 W/m -1,9 C -1,3 C 3,2 km/h (1 Bft) 100,00 %
07.12.2017 19:14 -1,2 C 3,9 C 96 % 1020,3 hPa 0,0 l/m 2,8 km/h (1 Bft) N-NO 32 0 min 0,000 mm 0,0 UV-I 0 W/m -1,8 C -1,2 C 4,8 km/h (1 Bft) 95,74 %
07.12.2017 19:16 -1,3 C 3,9 C 96 % 1020,3 hPa 0,0 l/m 1,1 km/h (1 Bft) N-NO 32 0 min 0,000 mm 0,0 UV-I 0 W/m -1,9 C -1,3 C 3,2 km/h (1 Bft) 98,11 %
07.12.2017 19:18 -1,4 C 3,9 C 96 % 1020,3 hPa 0,0 l/m 0,4 km/h (0 Bft) N-NO 32 0 min 0,000 mm 0,0 UV-I 0 W/m -2,0 C -1,4 C 3,2 km/h (1 Bft) 100,00 %
07.12.2017 19:20 -1,3 C 3,9 C 96 % 1020,3 hPa 0,0 l/m 1,7 km/h (1 Bft) N-NO 32 0 min 0,000 mm 0,0 UV-I 0 W/m -1,9 C -1,3 C 3,2 km/h (1 Bft) 100,00 %
07.12.2017 19:22 -1,4 C 3,9 C 96 % 1020,1 hPa 0,0 l/m 3,7 km/h (1 Bft) N-NO 32 0 min 0,000 mm 0,0 UV-I 0 W/m -2,0 C -1,4 C 4,8 km/h (1 Bft) 97,14 %
07.12.2017 19:24 -1,4 C 3,9 C 96 % 1020,1 hPa 0,0 l/m 3,1 km/h (1 Bft) N-NO 32 0 min 0,000 mm 0,0 UV-I 0 W/m -2,0 C -1,4 C 4,8 km/h (1 Bft) 100,00 %
07.12.2017 19:26 -1,4 C 3,9 C 96 % 1020,0 hPa 0,0 l/m 4,5 km/h (1 Bft) NO 54 0 min 0,000 mm 0,0 UV-I 0 W/m -2,0 C -1,4 C 6,4 km/h (2 Bft) 100,00 %
07.12.2017 19:28 -1,3 C 3,9 C 96 % 1020,1 hPa 0,0 l/m 4,0 km/h (1 Bft) O-NO 58 0 min 0,000 mm 0,0 UV-I 0 W/m -1,9 C -1,3 C 6,4 km/h (2 Bft) 100,00 %
07.12.2017 19:30 -1,3 C 3,9 C 96 % 1020,0 hPa 0,0 l/m 3,5 km/h (1 Bft) O-NO 68 0 min 0,000 mm 0,0 UV-I 0 W/m -1,9 C -1,3 C 6,4 km/h (2 Bft) 100,00 %
07.12.2017 19:32 -1,1 C 3,9 C 96 % 1020,0 hPa 0,0 l/m 4,3 km/h (1 Bft) O-NO 77 0 min 0,000 mm 0,0 UV-I 0 W/m -1,7 C -1,1 C 6,4 km/h (2 Bft) 100,00 %
07.12.2017 19:34 -0,9 C 3,9 C 97 % 1020,0 hPa 0,0 l/m 4,0 km/h (1 Bft) O-SO 119 0 min 0,000 mm 0,0 UV-I 0 W/m -1,3 C -0,9 C 9,7 km/h (2 Bft) 100,00 %
07.12.2017 19:36 -0,9 C 3,9 C 96 % 1020,0 hPa 0,0 l/m 1,0 km/h (0 Bft) SO 133 0 min 0,000 mm 0,0 UV-I 0 W/m -1,5 C -0,9 C 4,8 km/h (1 Bft) 100,00 %
07.12.2017 19:38 -1,0 C 3,9 C 96 % 1020,0 hPa 0,0 l/m 0,0 km/h (0 Bft) SO 133 0 min 0,000 mm 0,0 UV-I 0 W/m -1,6 C -1,0 C 0,0 km/h (0 Bft) 100,00 %
07.12.2017 19:40 -1,1 C 3,9 C 96 % 1020,0 hPa 0,0 l/m 2,1 km/h (1 Bft) SO 133 0 min 0,000 mm 0,0 UV-I 0 W/m -1,7 C -1,1 C 4,8 km/h (1 Bft) 100,00 %
07.12.2017 19:42 -1,3 C 3,9 C 96 % 1020,1 hPa 0,0 l/m 0,5 km/h (0 Bft) SO 133 0 min 0,000 mm 0,0 UV-I 0 W/m -1,9 C -1,3 C 3,2 km/h (1 Bft) 100,00 %
07.12.2017 19:44 -1,3 C 3,9 C 96 % 1020,1 hPa 0,0 l/m 0,1 km/h (0 Bft) SO 133 0 min 0,000 mm 0,0 UV-I 0 W/m -1,9 C -1,3 C 1,6 km/h (1 Bft) 100,00 %
07.12.2017 19:46 -1,4 C 3,9 C 96 % 1020,0 hPa 0,0 l/m 0,6 km/h (0 Bft) SO 133 0 min 0,000 mm 0,0 UV-I 0 W/m -2,0 C -1,4 C 3,2 km/h (1 Bft) 97,87 %
07.12.2017 19:48 -1,6 C 3,9 C 96 % 1019,9 hPa 0,0 l/m 0,1 km/h (0 Bft) SO 133 0 min 0,000 mm 0,0 UV-I 0 W/m -2,2 C -1,6 C 1,6 km/h (1 Bft) 97,87 %
07.12.2017 19:50 -1,6 C 3,9 C 96 % 1019,9 hPa 0,0 l/m 0,2 km/h (0 Bft) SO 133 0 min 0,000 mm 0,0 UV-I 0 W/m -2,2 C -1,6 C 1,6 km/h (1 Bft) 97,87 %
07.12.2017 19:52 -1,6 C 3,9 C 96 % 1019,9 hPa 0,0 l/m 0,4 km/h (0 Bft) SO 133 0 min 0,000 mm 0,0 UV-I 0 W/m -2,2 C -1,6 C 3,2 km/h (1 Bft) 100,00 %
07.12.2017 19:54 -1,5 C 3,9 C 96 % 1019,9 hPa 0,0 l/m 0,4 km/h (0 Bft) SO 133 0 min 0,000 mm 0,0 UV-I 0 W/m -2,1 C -1,5 C 1,6 km/h (1 Bft) 98,00 %
07.12.2017 19:56 -1,4 C 3,9 C 96 % 1019,9 hPa 0,0 l/m 0,9 km/h (0 Bft) SO 133 0 min 0,000 mm 0,0 UV-I 0 W/m -2,0 C -1,4 C 3,2 km/h (1 Bft) 100,00 %
07.12.2017 19:58 -1,4 C 3,9 C 96 % 1019,8 hPa 0,0 l/m 0,7 km/h (0 Bft) SO 133 0 min 0,000 mm 0,0 UV-I 0 W/m -2,0 C -1,4 C 1,6 km/h (1 Bft) 97,87 %
07.12.2017 20:00 -1,4 C 3,9 C 96 % 1019,8 hPa 0,0 l/m 0,1 km/h (0 Bft) SO 133 0 min 0,000 mm 0,0 UV-I 0 W/m -2,0 C -1,4 C 1,6 km/h (1 Bft) 97,87 %
07.12.2017 20:02 -1,3 C 3,9 C 96 % 1019,7 hPa 0,0 l/m 1,0 km/h (0 Bft) SO 133 0 min 0,000 mm 0,0 UV-I 0 W/m -1,9 C -1,3 C 3,2 km/h (1 Bft) 96,00 %
07.12.2017 20:04 -1,3 C 3,9 C 96 % 1019,7 hPa 0,0 l/m 1,3 km/h (1 Bft) SO 133 0 min 0,000 mm 0,0 UV-I 0 W/m -1,9 C -1,3 C 3,2 km/h (1 Bft) 97,87 %
07.12.2017 20:06 -1,3 C 3,9 C 96 % 1019,7 hPa 0,0 l/m 2,4 km/h (1 Bft) SO 133 0 min 0,000 mm 0,0 UV-I 0 W/m -1,9 C -1,3 C 3,2 km/h (1 Bft) 97,56 %
07.12.2017 20:09 -1,3 C 3,9 C 96 % 1019,6 hPa 0,0 l/m 2,8 km/h (1 Bft) SO 133 0 min 0,000 mm 0,0 UV-I 0 W/m -1,9 C -1,3 C 4,8 km/h (1 Bft) 97,50 %
07.12.2017 20:10 -1,3 C 3,9 C 96 % 1019,6 hPa 0,0 l/m 2,6 km/h (1 Bft) SO 133 0 min 0,000 mm 0,0 UV-I 0 W/m -1,9 C -1,3 C 3,2 km/h (1 Bft) 91,67 %
07.12.2017 20:12 -1,2 C 3,9 C 96 % 1019,7 hPa 0,0 l/m 1,9 km/h (1 Bft) SO 133 0 min 0,000 mm 0,0 UV-I 0 W/m -1,8 C -1,2 C 3,2 km/h (1 Bft) 95,74 %
07.12.2017 20:14 -1,1 C 3,9 C 96 % 1019,6 hPa 0,0 l/m 1,7 km/h (1 Bft) SO 133 0 min 0,000 mm 0,0 UV-I 0 W/m -1,7 C -1,1 C 3,2 km/h (1 Bft) 98,11 %
07.12.2017 20:16 -1,1 C 3,9 C 96 % 1019,6 hPa 0,0 l/m 2,4 km/h (1 Bft) SO 133 0 min 0,000 mm 0,0 UV-I 0 W/m -1,7 C -1,1 C 4,8 km/h (1 Bft) 97,87 %
07.12.2017 20:18 -1,1 C 3,9 C 96 % 1019,6 hPa 0,0 l/m 3,1 km/h (1 Bft) SO 133 0 min 0,000 mm 0,0 UV-I 0 W/m -1,7 C -1,1 C 4,8 km/h (1 Bft) 97,37 %
07.12.2017 20:20 -1,1 C 3,9 C 96 % 1019,6 hPa 0,0 l/m 2,7 km/h (1 Bft) SO 133 0 min 0,000 mm 0,0 UV-I 0 W/m -1,7 C -1,1 C 4,8 km/h (1 Bft) 97,56 %
07.12.2017 20:22 -1,1 C 3,9 C 96 % 1019,6 hPa 0,0 l/m 3,1 km/h (1 Bft) SO 133 0 min 0,000 mm 0,0 UV-I 0 W/m -1,7 C -1,1 C 3,2 km/h (1 Bft) 98,21 %
07.12.2017 20:24 -1,1 C 3,9 C 96 % 1019,6 hPa 0,0 l/m 3,4 km/h (1 Bft) SO 133 0 min 0,000 mm 0,0 UV-I 0 W/m -1,7 C -1,1 C 4,8 km/h (1 Bft) 97,96 %
07.12.2017 20:26 -1,1 C 3,9 C 96 % 1019,6 hPa 0,0 l/m 2,5 km/h (1 Bft) SO 133 0 min 0,000 mm 0,0 UV-I 0 W/m -1,7 C -1,1 C 3,2 km/h (1 Bft) 97,87 %
07.12.2017 20:28 -1,0 C 3,9 C 96 % 1019,5 hPa 0,0 l/m 2,3 km/h (1 Bft) SO 133 0 min 0,000 mm 0,0 UV-I 0 W/m -1,6 C -1,0 C 3,2 km/h (1 Bft) 96,00 %
07.12.2017 20:30 -1,1 C 3,9 C 96 % 1019,4 hPa 0,0 l/m 3,0 km/h (1 Bft) SO 133 0 min 0,000 mm 0,0 UV-I 0 W/m -1,7 C -1,1 C 4,8 km/h (1 Bft) 97,73 %
07.12.2017 20:32 -1,3 C 3,9 C 96 % 1019,4 hPa 0,0 l/m 2,6 km/h (1 Bft) SO 133 0 min 0,000 mm 0,0 UV-I 0 W/m -1,9 C -1,3 C 3,2 km/h (1 Bft) 96,15 %
07.12.2017 20:34 -1,4 C 3,9 C 96 % 1019,3 hPa 0,0 l/m 2,4 km/h (1 Bft) SO 133 0 min 0,000 mm 0,0 UV-I 0 W/m -2,0 C -1,4 C 3,2 km/h (1 Bft) 97,37 %
07.12.2017 20:36 -1,5 C 3,9 C 96 % 1019,4 hPa 0,0 l/m 2,2 km/h (1 Bft) SO 133 0 min 0,000 mm 0,0 UV-I 0 W/m -2,1 C -1,5 C 3,2 km/h (1 Bft) 97,87 %
07.12.2017 20:38 -1,6 C 3,9 C 96 % 1019,3 hPa 0,0 l/m 0,1 km/h (0 Bft) SO 133 0 min 0,000 mm 0,0 UV-I 0 W/m -2,2 C -1,6 C 1,6 km/h (1 Bft) 97,87 %
07.12.2017 20:40 -1,6 C 3,9 C 96 % 1019,3 hPa 0,0 l/m 0,3 km/h (0 Bft) SO 133 0 min 0,000 mm 0,0 UV-I 0 W/m -2,2 C -1,6 C 1,6 km/h (1 Bft) 96,00 %
07.12.2017 20:42 -1,7 C 3,9 C 96 % 1019,2 hPa 0,0 l/m 0,1 km/h (0 Bft) SO 133 0 min 0,000 mm 0,0 UV-I 0 W/m -2,3 C -1,7 C 1,6 km/h (1 Bft) 98,11 %
07.12.2017 20:44 -1,8 C 3,9 C 96 % 1019,2 hPa 0,0 l/m 0,0 km/h (0 Bft) SO 133 0 min 0,000 mm 0,0 UV-I 0 W/m -2,4 C -1,8 C 0,0 km/h (0 Bft) 94,74 %
07.12.2017 20:46 -1,7 C 3,9 C 96 % 1019,1 hPa 0,0 l/m 0,0 km/h (0 Bft) SO 133 0 min 0,000 mm 0,0 UV-I 0 W/m -2,3 C -1,7 C 0,0 km/h (0 Bft) 98,00 %
07.12.2017 20:48 -1,7 C 3,9 C 96 % 1019,1 hPa 0,0 l/m 0,0 km/h (0 Bft) SO 133 0 min 0,000 mm 0,0 UV-I 0 W/m -2,3 C -1,7 C 0,0 km/h (0 Bft) 96,23 %
07.12.2017 20:50 -1,7 C 3,9 C 96 % 1019,1 hPa 0,0 l/m 0,0 km/h (0 Bft) SO 133 0 min 0,000 mm 0,0 UV-I 0 W/m -2,3 C -1,7 C 0,0 km/h (0 Bft) 96,30 %
07.12.2017 20:52 -1,8 C 3,9 C 96 % 1019,0 hPa 0,0 l/m 0,0 km/h (0 Bft) SO 133 0 min 0,000 mm 0,0 UV-I 0 W/m -2,4 C -1,8 C 0,0 km/h (0 Bft) 92,86 %
07.12.2017 20:54 -1,8 C 3,9 C 96 % 1019,0 hPa 0,0 l/m 0,6 km/h (0 Bft) SO 133 0 min 0,000 mm 0,0 UV-I 0 W/m -2,4 C -1,8 C 3,2 km/h (1 Bft) 93,62 %
07.12.2017 20:56 -1,8 C 3,9 C 96 % 1018,9 hPa 0,0 l/m 0,4 km/h (0 Bft) SO 133 0 min 0,000 mm 0,0 UV-I 0 W/m -2,4 C -1,8 C 3,2 km/h (1 Bft) 96,00 %
07.12.2017 20:58 -1,8 C 3,9 C 96 % 1018,9 hPa 0,0 l/m 0,0 km/h (0 Bft) SO 133 0 min 0,000 mm 0,0 UV-I 0 W/m -2,4 C -1,8 C 1,6 km/h (1 Bft) 98,00 %
07.12.2017 21:00 -1,7 C 3,9 C 97 % 1019,0 hPa 0,0 l/m 0,1 km/h (0 Bft) SO 133 0 min 0,000 mm 0,0 UV-I 0 W/m -2,1 C -1,7 C 1,6 km/h (1 Bft) 96,00 %
07.12.2017 21:02 -1,8 C 3,9 C 96 % 1019,0 hPa 0,0 l/m 0,0 km/h (0 Bft) SO 133 0 min 0,000 mm 0,0 UV-I 0 W/m -2,4 C -1,8 C 0,0 km/h (0 Bft) 91,49 %
07.12.2017 21:04 -1,8 C 3,9 C 96 % 1019,0 hPa 0,0 l/m 0,0 km/h (0 Bft) SO 133 0 min 0,000 mm 0,0 UV-I 0 W/m -2,4 C -1,8 C 0,0 km/h (0 Bft) 97,56 %
07.12.2017 21:06 -1,8 C 3,9 C 96 % 1019,0 hPa 0,0 l/m 0,0 km/h (0 Bft) SO 133 0 min 0,000 mm 0,0 UV-I 0 W/m -2,4 C -1,8 C 0,0 km/h (0 Bft) 95,74 %
07.12.2017 21:08 -1,8 C 3,9 C 96 % 1018,9 hPa 0,0 l/m 0,0 km/h (0 Bft) SO 133 0 min 0,000 mm 0,0 UV-I 0 W/m -2,4 C -1,8 C 0,0 km/h (0 Bft) 94,00 %
07.12.2017 21:10 -1,7 C 3,9 C 96 % 1018,9 hPa 0,0 l/m 0,0 km/h (0 Bft) SO 133 0 min 0,000 mm 0,0 UV-I 0 W/m -2,3 C -1,7 C 0,0 km/h (0 Bft) 97,96 %
07.12.2017 21:12 -1,7 C 3,9 C 97 % 1018,9 hPa 0,0 l/m 0,0 km/h (0 Bft) SO 133 0 min 0,000 mm 0,0 UV-I 0 W/m -2,1 C -1,7 C 0,0 km/h (0 Bft) 91,49 %
07.12.2017 21:14 -1,6 C 3,9 C 97 % 1018,9 hPa 0,0 l/m 0,0 km/h (0 Bft) SO 133 0 min 0,000 mm 0,0 UV-I 0 W/m -2,0 C -1,6 C 0,0 km/h (0 Bft) 95,74 %
07.12.2017 21:16 -1,6 C 3,9 C 96 % 1018,9 hPa 0,0 l/m 0,0 km/h (0 Bft) SO 133 0 min 0,000 mm 0,0 UV-I 0 W/m -2,2 C -1,6 C 0,0 km/h (0 Bft) 92,11 %
07.12.2017 21:18 -1,6 C 3,9 C 96 % 1018,9 hPa 0,0 l/m 0,0 km/h (0 Bft) SO 133 0 min 0,000 mm 0,0 UV-I 0 W/m -2,2 C -1,6 C 0,0 km/h (0 Bft) 97,87 %
07.12.2017 21:20 -1,5 C 3,9 C 96 % 1018,9 hPa 0,0 l/m 0,0 km/h (0 Bft) SO 133 0 min 0,000 mm 0,0 UV-I 0 W/m -2,1 C -1,5 C 0,0 km/h (0 Bft) 98,11 %
07.12.2017 21:22 -1,6 C 3,9 C 96 % 1018,8 hPa 0,0 l/m 0,0 km/h (0 Bft) SO 133 0 min 0,000 mm 0,0 UV-I 0 W/m -2,2 C -1,6 C 0,0 km/h (0 Bft) 93,62 %
07.12.2017 21:24 -1,6 C 3,9 C 96 % 1018,8 hPa 0,0 l/m 0,0 km/h (0 Bft) SO 133 0 min 0,000 mm 0,0 UV-I 0 W/m -2,2 C -1,6 C 0,0 km/h (0 Bft) 93,62 %
07.12.2017 21:26 -1,6 C 3,9 C 96 % 1018,9 hPa 0,0 l/m 0,0 km/h (0 Bft) SO 133 0 min 0,000 mm 0,0 UV-I 0 W/m -2,2 C -1,6 C 0,0 km/h (0 Bft) 100,00 %
07.12.2017 21:28 -1,6 C 3,9 C 96 % 1018,9 hPa 0,0 l/m 0,0 km/h (0 Bft) SO 133 0 min 0,000 mm 0,0 UV-I 0 W/m -2,2 C -1,6 C 0,0 km/h (0 Bft) 100,00 %
07.12.2017 21:30 -1,7 C 3,9 C 96 % 1018,8 hPa 0,0 l/m 0,0 km/h (0 Bft) SO 133 0 min 0,000 mm 0,0 UV-I 0 W/m -2,3 C -1,7 C 0,0 km/h (0 Bft) 95,74 %
07.12.2017 21:32 -1,8 C 3,9 C 96 % 1018,7 hPa 0,0 l/m 0,0 km/h (0 Bft) SO 133 0 min 0,000 mm 0,0 UV-I 0 W/m -2,4 C -1,8 C 0,0 km/h (0 Bft) 100,00 %
07.12.2017 21:34 -1,8 C 3,9 C 96 % 1018,7 hPa 0,0 l/m 0,0 km/h (0 Bft) SO 133 0 min 0,000 mm 0,0 UV-I 0 W/m -2,4 C -1,8 C 0,0 km/h (0 Bft) 100,00 %
07.12.2017 21:36 -1,8 C 3,9 C 96 % 1018,7 hPa 0,0 l/m 0,0 km/h (0 Bft) SO 133 0 min 0,000 mm 0,0 UV-I 0 W/m -2,4 C -1,8 C 0,0 km/h (0 Bft) 100,00 %
07.12.2017 21:38 -1,8 C 3,9 C 96 % 1018,7 hPa 0,0 l/m 0,0 km/h (0 Bft) SO 133 0 min 0,000 mm 0,0 UV-I 0 W/m -2,4 C -1,8 C 0,0 km/h (0 Bft) 96,00 %
07.12.2017 21:40 -1,8 C 3,9 C 96 % 1018,7 hPa 0,0 l/m 0,0 km/h (0 Bft) SO 133 0 min 0,000 mm 0,0 UV-I 0 W/m -2,4 C -1,8 C 0,0 km/h (0 Bft) 100,00 %
07.12.2017 21:42 -1,8 C 3,9 C 96 % 1018,7 hPa 0,0 l/m 0,0 km/h (0 Bft) SO 133 0 min 0,000 mm 0,0 UV-I 0 W/m -2,4 C -1,8 C 0,0 km/h (0 Bft) 97,87 %
07.12.2017 21:44 -1,8 C 3,9 C 96 % 1018,7 hPa 0,0 l/m 1,8 km/h (1 Bft) SO 133 0 min 0,000 mm 0,0 UV-I 0 W/m -2,4 C -1,8 C 3,2 km/h (1 Bft) 94,00 %
07.12.2017 21:46 -1,9 C 3,9 C 96 % 1018,6 hPa 0,0 l/m 0,7 km/h (0 Bft) SO 133 0 min 0,000 mm 0,0 UV-I 0 W/m -2,5 C -1,9 C 1,6 km/h (1 Bft) 95,74 %
07.12.2017 21:48 -1,9 C 3,9 C 96 % 1018,6 hPa 0,0 l/m 1,2 km/h (1 Bft) SO 133 0 min 0,000 mm 0,0 UV-I 0 W/m -2,5 C -1,9 C 3,2 km/h (1 Bft) 100,00 %
07.12.2017 21:50 -1,9 C 3,9 C 96 % 1018,6 hPa 0,0 l/m 0,8 km/h (0 Bft) SO 133 0 min 0,000 mm 0,0 UV-I 0 W/m -2,5 C -1,9 C 3,2 km/h (1 Bft) 100,00 %
07.12.2017 21:52 -1,9 C 3,9 C 96 % 1018,4 hPa 0,0 l/m 0,4 km/h (0 Bft) SO 133 0 min 0,000 mm 0,0 UV-I 0 W/m -2,5 C -1,9 C 1,6 km/h (1 Bft) 97,87 %
07.12.2017 21:54 -1,9 C 3,9 C 96 % 1018,4 hPa 0,0 l/m 2,1 km/h (1 Bft) SO 133 0 min 0,000 mm 0,0 UV-I 0 W/m -2,5 C -1,9 C 4,8 km/h (1 Bft) 100,00 %
07.12.2017 21:56 -1,9 C 3,9 C 97 % 1018,4 hPa 0,0 l/m 1,1 km/h (1 Bft) SO 133 0 min 0,000 mm 0,0 UV-I 0 W/m -2,3 C -1,9 C 4,8 km/h (1 Bft) 97,87 %
07.12.2017 21:58 -1,9 C 3,9 C 97 % 1018,3 hPa 0,0 l/m 1,6 km/h (1 Bft) SO 133 0 min 0,000 mm 0,0 UV-I 0 W/m -2,3 C -1,9 C 3,2 km/h (1 Bft) 100,00 %
07.12.2017 22:00 -1,8 C 3,9 C 97 % 1018,3 hPa 0,0 l/m 1,8 km/h (1 Bft) S 171 0 min 0,000 mm 0,0 UV-I 0 W/m -2,2 C -1,8 C 3,2 km/h (1 Bft) 100,00 %
07.12.2017 22:02 -1,8 C 3,9 C 97 % 1018,2 hPa 0,0 l/m 1,8 km/h (1 Bft) S 171 0 min 0,000 mm 0,0 UV-I 0 W/m -2,2 C -1,8 C 6,4 km/h (2 Bft) 100,00 %
07.12.2017 22:04 -1,9 C 3,9 C 97 % 1018,1 hPa 0,0 l/m 1,8 km/h (1 Bft) S 171 0 min 0,000 mm 0,0 UV-I 0 W/m -2,3 C -1,9 C 6,4 km/h (2 Bft) 100,00 %
07.12.2017 22:06 -1,9 C 3,9 C 96 % 1018,2 hPa 0,0 l/m 0,3 km/h (0 Bft) S 171 0 min 0,000 mm 0,0 UV-I 0 W/m -2,5 C -1,9 C 3,2 km/h (1 Bft) 100,00 %
07.12.2017 22:08 -2,0 C 3,9 C 96 % 1018,1 hPa 0,0 l/m 0,0 km/h (0 Bft) S 171 0 min 0,000 mm 0,0 UV-I 0 W/m -2,6 C -2,0 C 1,6 km/h (1 Bft) 100,00 %
07.12.2017 22:10 -2,1 C 3,9 C 96 % 1018,2 hPa 0,0 l/m 0,0 km/h (0 Bft) S 171 0 min 0,000 mm 0,0 UV-I 0 W/m -2,6 C -2,1 C 0,0 km/h (0 Bft) 100,00 %
07.12.2017 22:12 -2,2 C 3,9 C 96 % 1018,1 hPa 0,0 l/m 0,1 km/h (0 Bft) S 171 0 min 0,000 mm 0,0 UV-I 0 W/m -2,7 C -2,2 C 1,6 km/h (1 Bft) 100,00 %
07.12.2017 22:14 -2,2 C 3,9 C 96 % 1018,1 hPa 0,0 l/m 0,1 km/h (0 Bft) S 171 0 min 0,000 mm 0,0 UV-I 0 W/m -2,7 C -2,2 C 1,6 km/h (1 Bft) 100,00 %
07.12.2017 22:16 -2,1 C 3,9 C 96 % 1018,0 hPa 0,0 l/m 0,4 km/h (0 Bft) S 171 0 min 0,000 mm 0,0 UV-I 0 W/m -2,6 C -2,1 C 1,6 km/h (1 Bft) 100,00 %
07.12.2017 22:18 -2,0 C 3,9 C 96 % 1018,0 hPa 0,0 l/m 0,5 km/h (0 Bft) S 171 0 min 0,000 mm 0,0 UV-I 0 W/m -2,6 C -2,0 C 1,6 km/h (1 Bft) 100,00 %
07.12.2017 22:20 -2,1 C 3,9 C 96 % 1018,0 hPa 0,0 l/m 0,3 km/h (0 Bft) S 171 0 min 0,000 mm 0,0 UV-I 0 W/m -2,6 C -2,1 C 1,6 km/h (1 Bft) 100,00 %
07.12.2017 22:22 -2,2 C 3,9 C 96 % 1018,0 hPa 0,0 l/m 0,4 km/h (0 Bft) S 171 0 min 0,000 mm 0,0 UV-I 0 W/m -2,7 C -2,2 C 1,6 km/h (1 Bft) 97,87 %
07.12.2017 22:24 -2,1 C 3,9 C 96 % 1018,0 hPa 0,0 l/m 0,0 km/h (0 Bft) S 171 0 min 0,000 mm 0,0 UV-I 0 W/m -2,6 C -2,1 C 0,0 km/h (0 Bft) 96,00 %
07.12.2017 22:26 -2,1 C 3,9 C 96 % 1018,0 hPa 0,0 l/m 0,0 km/h (0 Bft) S 171 0 min 0,000 mm 0,0 UV-I 0 W/m -2,6 C -2,1 C 0,0 km/h (0 Bft) 100,00 %
07.12.2017 22:28 -2,1 C 3,9 C 96 % 1017,9 hPa 0,0 l/m 0,0 km/h (0 Bft) S 171 0 min 0,000 mm 0,0 UV-I 0 W/m -2,6 C -2,1 C 0,0 km/h (0 Bft) 98,00 %
07.12.2017 22:30 -2,1 C 3,9 C 96 % 1017,9 hPa 0,0 l/m 0,0 km/h (0 Bft) S 171 0 min 0,000 mm 0,0 UV-I 0 W/m -2,6 C -2,1 C 0,0 km/h (0 Bft) 100,00 %
07.12.2017 22:32 -2,2 C 3,9 C 96 % 1017,9 hPa 0,0 l/m 0,0 km/h (0 Bft) S 171 0 min 0,000 mm 0,0 UV-I 0 W/m -2,7 C -2,2 C 0,0 km/h (0 Bft) 98,21 %
07.12.2017 22:34 -2,2 C 3,9 C 96 % 1017,9 hPa 0,0 l/m 0,0 km/h (0 Bft) S 171 0 min 0,000 mm 0,0 UV-I 0 W/m -2,7 C -2,2 C 0,0 km/h (0 Bft) 93,62 %
07.12.2017 22:36 -2,3 C 3,9 C 96 % 1017,9 hPa 0,0 l/m 0,0 km/h (0 Bft) S 171 0 min 0,000 mm 0,0 UV-I 0 W/m -2,8 C -2,3 C 0,0 km/h (0 Bft) 100,00 %
07.12.2017 22:38 -2,3 C 3,9 C 96 % 1017,8 hPa 0,0 l/m 0,0 km/h (0 Bft) S 171 0 min 0,000 mm 0,0 UV-I 0 W/m -2,8 C -2,3 C 0,0 km/h (0 Bft) 100,00 %
07.12.2017 22:40 -2,3 C 3,9 C 96 % 1017,8 hPa 0,0 l/m 0,0 km/h (0 Bft) S 171 0 min 0,000 mm 0,0 UV-I 0 W/m -2,8 C -2,3 C 0,0 km/h (0 Bft) 98,36 %
07.12.2017 22:42 -2,4 C 3,9 C 96 % 1017,8 hPa 0,0 l/m 0,0 km/h (0 Bft) S 171 0 min 0,000 mm 0,0 UV-I 0 W/m -2,9 C -2,4 C 0,0 km/h (0 Bft) 100,00 %
07.12.2017 22:44 -2,4 C 3,9 C 96 % 1017,8 hPa 0,0 l/m 0,5 km/h (0 Bft) S 171 0 min 0,000 mm 0,0 UV-I 0 W/m -2,9 C -2,4 C 3,2 km/h (1 Bft) 97,87 %
07.12.2017 22:46 -2,3 C 3,9 C 96 % 1017,8 hPa 0,0 l/m 2,5 km/h (1 Bft) S 171 0 min 0,000 mm 0,0 UV-I 0 W/m -2,8 C -2,3 C 3,2 km/h (1 Bft) 97,73 %
07.12.2017 22:48 -2,4 C 3,9 C 96 % 1017,7 hPa 0,0 l/m 1,0 km/h (0 Bft) S 171 0 min 0,000 mm 0,0 UV-I 0 W/m -2,9 C -2,4 C 1,6 km/h (1 Bft) 96,00 %
07.12.2017 22:50 -2,3 C 3,9 C 96 % 1017,7 hPa 0,0 l/m 2,0 km/h (1 Bft) S 171 0 min 0,000 mm 0,0 UV-I 0 W/m -2,8 C -2,3 C 3,2 km/h (1 Bft) 97,87 %
07.12.2017 22:52 -2,3 C 3,9 C 96 % 1017,7 hPa 0,0 l/m 0,2 km/h (0 Bft) S 171 0 min 0,000 mm 0,0 UV-I 0 W/m -2,8 C -2,3 C 1,6 km/h (1 Bft) 100,00 %
07.12.2017 22:54 -2,4 C 3,9 C 96 % 1017,6 hPa 0,0 l/m 0,5 km/h (0 Bft) S 171 0 min 0,000 mm 0,0 UV-I 0 W/m -2,9 C -2,4 C 1,6 km/h (1 Bft) 100,00 %
07.12.2017 22:56 -2,4 C 3,9 C 96 % 1017,6 hPa 0,0 l/m 1,4 km/h (1 Bft) S 171 0 min 0,000 mm 0,0 UV-I 0 W/m -2,9 C -2,4 C 1,6 km/h (1 Bft) 97,37 %
07.12.2017 22:58 -2,6 C 3,9 C 96 % 1017,5 hPa 0,0 l/m 0,0 km/h (0 Bft) S 171 0 min 0,000 mm 0,0 UV-I 0 W/m -3,1 C -2,6 C 1,6 km/h (1 Bft) 100,00 %
07.12.2017 23:00 -2,5 C 3,9 C 96 % 1017,5 hPa 0,0 l/m 0,9 km/h (0 Bft) S 171 0 min 0,000 mm 0,0 UV-I 0 W/m -3,0 C -2,5 C 3,2 km/h (1 Bft) 97,37 %
07.12.2017 23:02 -2,4 C 3,9 C 96 % 1017,4 hPa 0,0 l/m 0,0 km/h (0 Bft) S 171 0 min 0,000 mm 0,0 UV-I 0 W/m -2,9 C -2,4 C 0,0 km/h (0 Bft) 98,00 %
07.12.2017 23:04 -2,3 C 3,9 C 96 % 1017,4 hPa 0,0 l/m 0,8 km/h (0 Bft) S 171 0 min 0,000 mm 0,0 UV-I 0 W/m -2,8 C -2,3 C 3,2 km/h (1 Bft) 100,00 %
07.12.2017 23:06 -2,3 C 3,9 C 96 % 1017,3 hPa 0,0 l/m 0,4 km/h (0 Bft) S 171 0 min 0,000 mm 0,0 UV-I 0 W/m -2,8 C -2,3 C 1,6 km/h (1 Bft) 93,62 %
07.12.2017 23:08 -2,3 C 3,9 C 96 % 1017,3 hPa 0,0 l/m 0,1 km/h (0 Bft) S 171 0 min 0,000 mm 0,0 UV-I 0 W/m -2,8 C -2,3 C 1,6 km/h (1 Bft) 97,87 %
07.12.2017 23:10 -2,3 C 3,9 C 96 % 1017,2 hPa 0,0 l/m 0,0 km/h (0 Bft) S 171 0 min 0,000 mm 0,0 UV-I 0 W/m -2,8 C -2,3 C 0,0 km/h (0 Bft) 93,18 %
07.12.2017 23:12 -2,3 C 3,9 C 96 % 1017,2 hPa 0,0 l/m 1,1 km/h (1 Bft) S 171 0 min 0,000 mm 0,0 UV-I 0 W/m -2,8 C -2,3 C 3,2 km/h (1 Bft) 96,00 %
07.12.2017 23:14 -2,4 C 3,9 C 96 % 1017,1 hPa 0,0 l/m 0,0 km/h (0 Bft) S 171 0 min 0,000 mm 0,0 UV-I 0 W/m -2,9 C -2,4 C 1,6 km/h (1 Bft) 96,23 %
07.12.2017 23:16 -2,4 C 3,9 C 96 % 1017,1 hPa 0,0 l/m 0,0 km/h (0 Bft) S 171 0 min 0,000 mm 0,0 UV-I 0 W/m -2,9 C -2,4 C 0,0 km/h (0 Bft) 97,37 %
07.12.2017 23:18 -2,4 C 3,9 C 96 % 1017,1 hPa 0,0 l/m 0,0 km/h (0 Bft) S 171 0 min 0,000 mm 0,0 UV-I 0 W/m -2,9 C -2,4 C 0,0 km/h (0 Bft) 95,74 %
07.12.2017 23:20 -2,3 C 3,9 C 96 % 1017,1 hPa 0,0 l/m 0,0 km/h (0 Bft) S 171 0 min 0,000 mm 0,0 UV-I 0 W/m -2,8 C -2,3 C 0,0 km/h (0 Bft) 97,87 %
07.12.2017 23:22 -2,3 C 3,9 C 96 % 1017,0 hPa 0,0 l/m 1,3 km/h (1 Bft) S 171 0 min 0,000 mm 0,0 UV-I 0 W/m -2,8 C -2,3 C 3,2 km/h (1 Bft) 97,87 %
07.12.2017 23:24 -2,4 C 3,9 C 96 % 1017,0 hPa 0,0 l/m 1,5 km/h (1 Bft) S 171 0 min 0,000 mm 0,0 UV-I 0 W/m -2,9 C -2,4 C 3,2 km/h (1 Bft) 97,87 %
07.12.2017 23:26 -2,5 C 3,9 C 96 % 1017,0 hPa 0,0 l/m 0,0 km/h (0 Bft) S 171 0 min 0,000 mm 0,0 UV-I 0 W/m -3,0 C -2,5 C 1,6 km/h (1 Bft) 96,00 %
07.12.2017 23:28 -2,3 C 3,9 C 96 % 1016,9 hPa 0,0 l/m 2,2 km/h (1 Bft) S 171 0 min 0,000 mm 0,0 UV-I 0 W/m -2,8 C -2,3 C 3,2 km/h (1 Bft) 98,00 %
07.12.2017 23:30 -2,4 C 3,9 C 96 % 1016,9 hPa 0,0 l/m 0,1 km/h (0 Bft) S 171 0 min 0,000 mm 0,0 UV-I 0 W/m -2,9 C -2,4 C 1,6 km/h (1 Bft) 94,87 %
07.12.2017 23:32 -2,4 C 3,9 C 96 % 1017,0 hPa 0,0 l/m 0,2 km/h (0 Bft) S 171 0 min 0,000 mm 0,0 UV-I 0 W/m -2,9 C -2,4 C 1,6 km/h (1 Bft) 93,62 %
07.12.2017 23:34 -2,4 C 3,9 C 96 % 1017,0 hPa 0,0 l/m 0,2 km/h (0 Bft) S 171 0 min 0,000 mm 0,0 UV-I 0 W/m -2,9 C -2,4 C 3,2 km/h (1 Bft) 94,00 %
07.12.2017 23:36 -2,4 C 3,9 C 96 % 1017,0 hPa 0,0 l/m 1,3 km/h (1 Bft) S 171 0 min 0,000 mm 0,0 UV-I 0 W/m -2,9 C -2,4 C 3,2 km/h (1 Bft) 95,74 %
07.12.2017 23:38 -2,5 C 3,9 C 96 % 1017,1 hPa 0,0 l/m 1,2 km/h (1 Bft) S 171 0 min 0,000 mm 0,0 UV-I 0 W/m -3,0 C -2,5 C 3,2 km/h (1 Bft) 95,12 %
07.12.2017 23:40 -2,6 C 3,9 C 96 % 1017,0 hPa 0,0 l/m 0,2 km/h (0 Bft) S 171 0 min 0,000 mm 0,0 UV-I 0 W/m -3,1 C -2,6 C 1,6 km/h (1 Bft) 94,00 %
07.12.2017 23:42 -2,6 C 3,9 C 96 % 1016,9 hPa 0,0 l/m 0,0 km/h (0 Bft) S 171 0 min 0,000 mm 0,0 UV-I 0 W/m -3,1 C -2,6 C 1,6 km/h (1 Bft) 94,00 %
07.12.2017 23:44 -2,7 C 3,9 C 96 % 1016,9 hPa 0,0 l/m 0,4 km/h (0 Bft) S 171 0 min 0,000 mm 0,0 UV-I 0 W/m -3,2 C -2,7 C 1,6 km/h (1 Bft) 97,56 %
07.12.2017 23:46 -2,6 C 3,9 C 96 % 1016,9 hPa 0,0 l/m 0,5 km/h (0 Bft) S 171 0 min 0,000 mm 0,0 UV-I 0 W/m -3,1 C -2,6 C 3,2 km/h (1 Bft) 94,64 %
07.12.2017 23:48 -2,7 C 3,9 C 96 % 1016,8 hPa 0,0 l/m 0,0 km/h (0 Bft) S 171 0 min 0,000 mm 0,0 UV-I 0 W/m -3,2 C -2,7 C 1,6 km/h (1 Bft) 97,87 %
07.12.2017 23:50 -2,7 C 3,9 C 96 % 1016,8 hPa 0,0 l/m 0,0 km/h (0 Bft) S 171 0 min 0,000 mm 0,0 UV-I 0 W/m -3,2 C -2,7 C 0,0 km/h (0 Bft) 94,74 %
07.12.2017 23:52 -2,5 C 3,9 C 96 % 1016,8 hPa 0,0 l/m 2,0 km/h (1 Bft) S 171 0 min 0,000 mm 0,0 UV-I 0 W/m -3,0 C -2,5 C 3,2 km/h (1 Bft) 97,87 %
07.12.2017 23:54 -2,5 C 3,9 C 97 % 1016,7 hPa 0,0 l/m 0,9 km/h (0 Bft) S 171 0 min 0,000 mm 0,0 UV-I 0 W/m -2,9 C -2,5 C 3,2 km/h (1 Bft) 94,34 %
07.12.2017 23:56 -2,5 C 3,9 C 97 % 1016,6 hPa 0,0 l/m 0,4 km/h (0 Bft) S 171 0 min 0,000 mm 0,0 UV-I 0 W/m -2,9 C -2,5 C 1,6 km/h (1 Bft) 97,56 %
07.12.2017 23:58 -2,7 C 3,9 C 96 % 1016,6 hPa 0,0 l/m 0,7 km/h (0 Bft) S 171 0 min 0,000 mm 0,0 UV-I 0 W/m -3,2 C -2,7 C 3,2 km/h (1 Bft) 97,22 %
_ Min-Zeit 23:44 00:00 13:38 23:56 - 07:20 - - - - - - 23:44 02:50 07:20 06:42
Minimum _ -2,7 C 3,9 C 84 % 1016,6 hPa - 0,0 km/h (0 Bft) - - - - - - -3,2 C -4,2 C 0,0 km/h (0 Bft) 89,36 %
_ Max-Zeit 13:52 00:00 19:34 00:00 00:00 02:50 - - 11:26 13:00 11:56 12:00 14:14 14:14 02:44 00:48
Maximum _ 3,2 C 3,9 C 97 % 1030,5 hPa 0,0 l/m 11,8 km/h
SW (2 Bft)
- - 2 min 0,127 mm 0,7 UV-I 440 W/m 1,2 C 3,2 C 19,3 km/h
W-SW (3 Bft)
100,00 %
Durchschnitt _ 0,2 C 3,9 C 92 % 1024,5 hPa #0,0 l/m 3,2 km/h (1 Bft) SW - #4:32 h #0,457 mm 0,6 UV-I 138 W/m -1,0 C -0,1 C 5,6 km/h (1 Bft) 97,91 %